ftp/pub/palmer/observations_modified/2017/June/AR170611_BASE.txt

Download

Sample DateTime	Unit Id	WS Avg 2min	WD Avg 2min	WGS 10min	WGD 10min	Air Temp	Rel Humidity	Dew Point	Pyranometer	Quantum	Air Pressure	Snow Level	Rainfall	PW Current	Visibility	CBase 1	CBase 2	CBase 3	Vert Vis
2017/06/11 00:00:00	BASE	6.51	14	8.08	9	-3.0	73	-7.1	0	0	986.3	NA	0.0000	-SN	9999	0	0	0	4660
2017/06/11 00:01:00	BASE	6.31	11	8.08	9	-3.0	73	-7.1	0	0	986.3	NA	0.0000		9999	0	0	0	4660
2017/06/11 00:02:00	BASE	6.78	7	8.08	6	-2.9	73	-7.1	0	0	986.3	NA	0.0000		9999	0	0	0	4400
2017/06/11 00:03:00	BASE	7.34	7	8.44	6	-2.9	73	-7.1	0	0	986.3	NA	0.0000		9999	2260	0	0	0
2017/06/11 00:04:00	BASE	7.33	8	8.44	6	-2.9	73	-7.1	0	0	986.3	NA	0.0000		9999	2260	0	0	0
2017/06/11 00:05:00	BASE	7.25	10	8.44	6	-2.9	73	-7.1	0	0	986.4	NA	0.0000		9999	2300	0	0	0
2017/06/11 00:06:00	BASE	7.37	11	8.44	6	-2.9	73	-7.1	0	0	986.4	NA	0.0000		9999	0	0	0	4590
2017/06/11 00:07:00	BASE	6.88	13	8.44	6	-2.9	73	-7.2	0	0	986.4	NA	0.0000		9999	0	0	0	4530
2017/06/11 00:08:00	BASE	6.14	11	8.44	6	-3.0	72	-7.2	0	0	986.4	NA	0.0000		9999	0	0	0	4560
2017/06/11 00:09:00	BASE	5.71	11	8.44	6	-3.0	72	-7.3	0	0	986.4	NA	0.0000		9999	0	0	0	4460
2017/06/11 00:10:00	BASE	5.87	13	8.44	6	-3.0	72	-7.3	0	0	986.4	NA	0.0000		9999	0	0	0	4430
2017/06/11 00:11:00	BASE	6.11	16	8.44	6	-3.0	72	-7.3	0	0	986.4	NA	0.0000		9999	0	0	0	4360
2017/06/11 00:12:00	BASE	5.67	14	8.44	6	-3.0	73	-7.3	0	0	986.5	NA	0.0000		9999	0	0	0	4400
2017/06/11 00:13:00	BASE	5.57	9	8.28	12	-3.0	73	-7.2	0	0	986.5	NA	0.0000		9999	0	0	0	4300
2017/06/11 00:14:00	BASE	5.79	11	8.28	12	-3.0	73	-7.2	0	0	986.5	NA	0.0000		9999	0	0	0	4200
2017/06/11 00:15:00	BASE	5.68	12	8.28	12	-3.0	73	-7.2	0	0	986.5	NA	0.0000		9999	0	0	0	3480
2017/06/11 00:16:00	BASE	5.56	14	7.05	18	-3.0	73	-7.2	0	0	986.6	NA	0.0000		9999	3480	0	0	0
2017/06/11 00:17:00	BASE	5.18	18	6.89	15	-3.0	73	-7.2	0	0	986.6	NA	0.0000		9999	3380	0	0	0
2017/06/11 00:18:00	BASE	4.95	19	6.89	15	-3.0	73	-7.2	0	0	986.5	NA	0.0000		9999	0	0	0	4430
2017/06/11 00:19:00	BASE	5.16	19	6.89	15	-3.0	73	-7.2	0	0	986.6	NA	0.0000		9999	3970	0	0	0
2017/06/11 00:20:00	BASE	4.87	19	6.79	13	-3.0	73	-7.2	0	0	986.6	NA	0.0000		9999	4430	0	0	0
2017/06/11 00:21:00	BASE	4.40	20	6.48	19	-3.0	73	-7.2	0	0	986.6	NA	0.0000		9999	4460	0	0	0
2017/06/11 00:22:00	BASE	4.41	19	6.48	19	-3.1	73	-7.2	0	0	986.6	NA	0.0000		9999	4660	0	0	0
2017/06/11 00:23:00	BASE	4.60	16	6.48	19	-3.1	73	-7.2	0	0	986.6	NA	0.0000		9999	4790	0	0	0
2017/06/11 00:24:00	BASE	4.92	14	6.48	19	-3.1	73	-7.2	0	0	986.6	NA	0.0000		9999	3580	0	0	0
2017/06/11 00:25:00	BASE	4.69	11	6.02	16	-3.1	73	-7.3	0	0	986.6	NA	0.0000		9999	4760	0	0	0
2017/06/11 00:26:00	BASE	4.39	10	6.02	16	-3.1	73	-7.3	0	0	986.6	NA	0.0000		9999	4950	0	0	0
2017/06/11 00:27:00	BASE	4.53	12	6.02	16	-3.1	73	-7.3	0	0	986.6	NA	0.0000		9999	4070	0	0	0
2017/06/11 00:28:00	BASE	4.59	16	5.61	18	-3.1	72	-7.4	0	0	986.6	NA	0.0000		9999	4560	0	0	0
2017/06/11 00:29:00	BASE	4.46	20	5.61	18	-3.1	72	-7.4	0	0	986.6	NA	0.0000		9999	5380	0	0	0
2017/06/11 00:30:00	BASE	4.19	23	5.40	12	-3.1	72	-7.4	0	0	986.6	NA	0.0000		9999	5450	0	0	0
2017/06/11 00:31:00	BASE	4.17	26	5.40	12	-3.1	72	-7.5	0	0	986.6	NA	0.0000		9999	5810	0	0	0
2017/06/11 00:32:00	BASE	4.49	27	5.40	12	-3.1	72	-7.4	0	0	986.6	NA	0.0000		9999	5810	0	0	0
2017/06/11 00:33:00	BASE	4.67	26	5.40	12	-3.1	72	-7.4	0	0	986.6	NA	0.0000		9999	6530	0	0	0
2017/06/11 00:34:00	BASE	4.62	25	5.35	23	-3.0	72	-7.4	0	0	986.6	NA	0.0000		9999	6790	0	0	0
2017/06/11 00:35:00	BASE	4.70	23	5.35	23	-3.0	71	-7.5	0	0	986.6	NA	0.0000		9999	6960	0	0	0
2017/06/11 00:36:00	BASE	4.65	23	5.35	23	-3.0	71	-7.5	0	0	986.6	NA	0.0000		9999	6230	0	0	0
2017/06/11 00:37:00	BASE	4.49	23	5.35	23	-2.9	71	-7.5	0	0	986.6	NA	0.0000		9999	7120	0	0	0
2017/06/11 00:38:00	BASE	4.44	23	5.35	23	-2.9	70	-7.6	0	0	986.6	NA	0.0000		9999	7150	0	0	0
2017/06/11 00:39:00	BASE	4.34	23	5.35	23	-2.9	70	-7.6	0	0	986.6	NA	0.0000		9999	7190	0	0	0
2017/06/11 00:40:00	BASE	4.12	18	5.35	23	-2.9	70	-7.6	0	0	986.6	NA	0.0000		9999	7090	0	0	0
2017/06/11 00:41:00	BASE	4.04	17	5.35	23	-2.9	70	-7.6	0	0	986.6	NA	0.0000		9999	7120	0	0	0
2017/06/11 00:42:00	BASE	4.01	22	5.04	21	-2.9	70	-7.6	0	0	986.6	NA	0.0000		9999	7090	0	0	0
2017/06/11 00:43:00	BASE	3.93	26	5.04	21	-3.0	70	-7.6	0	0	986.6	NA	0.0000		9999	7150	0	0	0
2017/06/11 00:44:00	BASE	3.86	30	5.04	21	-3.0	70	-7.6	0	0	986.6	NA	0.0000		9999	7150	0	0	0
2017/06/11 00:45:00	BASE	3.65	30	5.04	21	-3.1	71	-7.6	0	0	986.7	NA	0.0000		9999	7050	0	0	0
2017/06/11 00:46:00	BASE	3.29	25	4.94	13	-3.1	71	-7.6	0	0	986.7	NA	0.0000		9999	6960	0	0	0
2017/06/11 00:47:00	BASE	2.88	23	4.58	23	-3.1	71	-7.7	0	0	986.7	NA	0.0000		9999	6820	0	0	0
2017/06/11 00:48:00	BASE	2.64	22	4.53	14	-3.1	71	-7.7	0	0	986.7	NA	0.0000		9999	6860	0	0	0
2017/06/11 00:49:00	BASE	2.90	20	4.53	14	-3.2	70	-7.8	0	0	986.7	NA	0.0000		9999	6860	0	0	0
2017/06/11 00:50:00	BASE	2.71	16	4.32	18	-3.2	70	-7.9	0	0	986.7	NA	0.0000		9999	6820	0	0	0
2017/06/11 00:51:00	BASE	1.96	0	4.27	38	-3.2	70	-8.0	0	0	986.7	NA	0.0000		9999	6660	0	0	0
2017/06/11 00:52:00	BASE	1.66	356	4.27	38	-3.2	69	-8.0	0	0	986.7	NA	0.0000		9999	6560	0	0	0
2017/06/11 00:53:00	BASE	1.98	8	4.27	38	-3.2	69	-8.1	0	0	986.7	NA	0.0000		9999	5540	0	0	0
2017/06/11 00:54:00	BASE	2.21	27	4.22	31	-3.2	68	-8.2	0	0	986.7	NA	0.0000		9999	0	0	0	0
2017/06/11 00:55:00	BASE	2.20	37	4.12	20	-3.2	68	-8.2	0	0	986.7	NA	0.0000		9999	0	0	0	0
2017/06/11 00:56:00	BASE	2.36	33	4.12	20	-3.3	68	-8.3	0	0	986.7	NA	0.0000		9999	0	0	0	0
2017/06/11 00:57:00	BASE	2.47	53	4.12	20	-3.3	69	-8.3	0	0	986.7	NA	0.0000		9999	3840	0	0	0
2017/06/11 00:58:00	BASE	2.53	74	4.12	20	-3.4	69	-8.3	0	0	986.7	NA	0.0000		9999	0	0	0	0
2017/06/11 00:59:00	BASE	2.26	79	3.14	85	-3.4	69	-8.3	0	0	986.7	NA	0.0000		9999	0	0	0	0
2017/06/11 01:00:00	BASE	2.33	86	3.65	82	-3.5	69	-8.3	0	0	986.7	NA	0.0000		9999	0	0	0	0
2017/06/11 01:01:00	BASE	2.95	86	3.65	82	-3.5	70	-8.2	0	0	986.7	NA	0.0000		9999	0	0	0	0
2017/06/11 01:02:00	BASE	3.44	82	4.12	68	-3.5	70	-8.2	0	0	986.7	NA	0.0000		9999	0	0	0	0
2017/06/11 01:03:00	BASE	3.77	73	4.17	65	-3.5	70	-8.2	0	0	986.7	NA	0.0000		9999	9880	0	0	0
2017/06/11 01:04:00	BASE	4.21	72	4.78	79	-3.5	70	-8.2	0	0	986.8	NA	0.0000		9999	9910	0	0	0
2017/06/11 01:05:00	BASE	4.34	81	4.78	79	-3.6	70	-8.2	0	0	986.7	NA	0.0000		9999	9910	0	0	0
2017/06/11 01:06:00	BASE	4.00	87	4.78	79	-3.6	70	-8.2	0	0	986.8	NA	0.0000		9999	9910	0	0	0
2017/06/11 01:07:00	BASE	3.81	92	4.78	79	-3.6	71	-8.2	0	0	986.8	NA	0.0000		9999	4130	0	0	0
2017/06/11 01:08:00	BASE	3.73	98	4.78	79	-3.6	71	-8.1	0	0	986.8	NA	0.0000		9999	9910	0	0	0
2017/06/11 01:09:00	BASE	3.76	99	4.78	79	-3.5	71	-8.1	0	0	986.8	NA	0.0000		9999	4170	0	0	0
2017/06/11 01:10:00	BASE	3.87	98	4.78	79	-3.4	71	-8.0	0	0	986.8	NA	0.0000		9999	9880	0	0	0
2017/06/11 01:11:00	BASE	3.92	97	4.78	79	-3.4	71	-7.9	0	0	986.8	NA	0.0000		9999	9880	0	0	0
2017/06/11 01:12:00	BASE	4.04	97	4.78	79	-3.4	71	-7.8	0	0	986.8	NA	0.0000		9999	9880	0	0	0
2017/06/11 01:13:00	BASE	4.05	97	4.78	79	-3.3	72	-7.7	0	0	986.9	NA	0.0000		9999	4660	0	0	0
2017/06/11 01:14:00	BASE	3.88	99	4.73	80	-3.3	72	-7.6	0	0	987.0	NA	0.0000		9999	4690	0	0	0
2017/06/11 01:15:00	BASE	3.60	97	4.53	103	-3.3	72	-7.6	0	0	987.0	NA	0.0000		9999	4230	0	0	0
2017/06/11 01:16:00	BASE	3.72	93	4.58	94	-3.3	72	-7.7	0	0	987.0	NA	0.0000		9999	3870	0	0	0
2017/06/11 01:17:00	BASE	4.28	94	4.78	92	-3.4	72	-7.7	0	0	987.0	NA	0.0000		9999	3840	0	0	0
2017/06/11 01:18:00	BASE	4.33	95	4.78	92	-3.4	73	-7.6	0	0	986.9	NA	0.0000		9999	3900	0	0	0
2017/06/11 01:19:00	BASE	4.04	97	4.78	92	-3.4	73	-7.5	0	0	986.9	NA	0.0000		9999	4170	0	0	0
2017/06/11 01:20:00	BASE	3.80	98	4.78	92	-3.3	74	-7.4	0	0	987.0	NA	0.0000		9999	3940	0	0	0
2017/06/11 01:21:00	BASE	3.97	100	4.78	92	-3.3	74	-7.2	0	0	986.9	NA	0.0000		9999	3180	0	0	0
2017/06/11 01:22:00	BASE	4.42	103	4.84	102	-3.2	75	-7.1	0	0	986.9	NA	0.0000		9999	2400	0	0	0
2017/06/11 01:23:00	BASE	4.60	102	5.04	98	-3.1	75	-6.9	0	0	987.0	NA	0.0000		9999	2660	0	0	0
2017/06/11 01:24:00	BASE	4.86	96	6.02	87	-3.1	75	-6.9	0	0	987.0	NA	0.0000		9999	3940	0	0	0
2017/06/11 01:25:00	BASE	5.35	90	6.02	87	-3.1	75	-6.9	0	0	987.0	NA	0.0000		9999	4560	0	0	0
2017/06/11 01:26:00	BASE	5.46	86	6.02	87	-3.1	75	-6.8	0	0	987.1	NA	0.0000		9999	4560	0	0	0
2017/06/11 01:27:00	BASE	4.96	91	6.02	87	-3.2	76	-6.9	0	0	987.1	NA	0.0000		9999	4630	0	0	0
2017/06/11 01:28:00	BASE	4.61	91	6.02	87	-3.3	76	-7.0	0	0	987.2	NA	0.0000		9999	2660	0	0	0
2017/06/11 01:29:00	BASE	4.71	86	6.02	87	-3.4	76	-7.1	0	0	987.2	NA	0.0000		9999	2590	0	0	0
2017/06/11 01:30:00	BASE	5.20	88	6.02	87	-3.5	76	-7.1	0	0	987.1	NA	0.0000		9999	3940	0	0	0
2017/06/11 01:31:00	BASE	5.32	92	6.02	87	-3.5	76	-7.1	0	0	987.1	NA	0.0000		9999	3940	0	0	0
2017/06/11 01:32:00	BASE	5.08	93	6.02	87	-3.5	77	-7.0	0	0	987.1	NA	0.0000		9999	4360	0	0	0
2017/06/11 01:33:00	BASE	4.78	91	6.02	87	-3.5	77	-7.0	0	0	987.2	NA	0.0000		9999	3710	0	0	0
2017/06/11 01:34:00	BASE	4.68	85	5.97	88	-3.5	77	-6.9	0	0	987.2	NA	0.0000		9999	4690	0	0	0
2017/06/11 01:35:00	BASE	4.94	79	5.97	88	-3.4	77	-6.9	0	0	987.2	NA	0.0000		9999	2820	0	0	0
2017/06/11 01:36:00	BASE	4.90	77	5.92	94	-3.4	77	-6.9	0	0	987.2	NA	0.0000		9999	4890	0	0	0
2017/06/11 01:37:00	BASE	4.87	72	5.92	94	-3.4	77	-6.9	0	0	987.2	NA	0.0000		9999	0	0	0	5050
2017/06/11 01:38:00	BASE	5.45	68	6.74	67	-3.4	77	-6.9	0	0	987.2	NA	0.0000		9999	4400	0	0	0
2017/06/11 01:39:00	BASE	5.94	71	6.74	67	-3.5	77	-6.9	0	0	987.2	NA	0.0000		9999	0	0	0	3020
2017/06/11 01:40:00	BASE	5.57	75	6.74	67	-3.5	77	-6.9	0	0	987.2	NA	0.0000		9999	0	0	0	2850
2017/06/11 01:41:00	BASE	5.19	76	6.74	67	-3.5	77	-7.0	0	0	987.2	NA	0.0000		9999	0	0	0	2950
2017/06/11 01:42:00	BASE	4.79	80	6.74	67	-3.6	77	-7.0	0	0	987.2	NA	0.0000		9999	0	0	0	3120
2017/06/11 01:43:00	BASE	4.20	89	6.74	67	-3.6	77	-7.0	0	0	987.2	NA	0.0000		9999	0	0	0	3280
2017/06/11 01:44:00	BASE	3.86	97	6.74	67	-3.6	77	-7.0	0	0	987.2	NA	0.0000		9999	1800	0	0	0
2017/06/11 01:45:00	BASE	3.70	97	6.74	67	-3.5	77	-7.0	0	0	987.2	NA	0.0000		9999	0	0	0	5710
2017/06/11 01:46:00	BASE	3.89	97	6.74	67	-3.4	77	-6.9	0	0	987.2	NA	0.0000		9999	0	0	0	5740
2017/06/11 01:47:00	BASE	4.17	98	6.74	67	-3.3	77	-6.7	0	0	987.2	NA	0.0000	-SN	9999	0	0	0	6070
2017/06/11 01:48:00	BASE	4.03	96	6.38	74	-3.2	77	-6.6	0	0	987.2	NA	0.0000	-SN	9999	0	0	0	5740
2017/06/11 01:49:00	BASE	3.93	91	5.71	78	-3.2	78	-6.6	0	0	987.3	NA	0.0000	-SN	9999	0	0	0	3540
2017/06/11 01:50:00	BASE	3.92	86	5.71	78	-3.2	78	-6.5	0	0	987.2	NA	0.0000	-SN	9999	0	0	0	3640
2017/06/11 01:51:00	BASE	3.87	92	4.89	77	-3.3	78	-6.5	0	0	987.3	NA	0.0000	-SN	9999	0	0	0	1510
2017/06/11 01:52:00	BASE	3.99	103	4.78	88	-3.3	78	-6.6	0	0	987.3	NA	0.0000	-SN	9999	0	0	0	1280
2017/06/11 01:53:00	BASE	3.93	106	4.78	88	-3.4	79	-6.6	0	0	987.2	NA	0.0000	-SN	9999	0	0	0	1080
2017/06/11 01:54:00	BASE	3.65	108	4.78	88	-3.4	79	-6.5	0	0	987.2	NA	0.0000	-SN	9999	0	0	0	1180
2017/06/11 01:55:00	BASE	3.29	112	4.78	88	-3.3	79	-6.4	0	0	987.2	NA	0.0000	-SN	9999	0	0	0	1150
2017/06/11 01:56:00	BASE	3.24	111	4.78	88	-3.2	79	-6.3	0	0	987.2	NA	0.0000	-SN	9999	0	0	0	1080
2017/06/11 01:57:00	BASE	3.29	106	4.78	88	-3.2	79	-6.2	0	0	987.2	NA	0.0000	-SN	9999	0	0	0	590
2017/06/11 01:58:00	BASE	3.39	107	4.78	88	-3.2	80	-6.2	0	0	987.2	NA	0.0000	-SN	9999	0	0	0	620
2017/06/11 01:59:00	BASE	3.18	109	4.48	104	-3.1	80	-6.1	0	0	987.3	NA	0.0000	-SN	9999	6430	0	0	0
2017/06/11 02:00:00	BASE	2.51	110	4.48	104	-3.1	80	-6.0	0	0	987.3	NA	0.0000	-SN	9999	0	0	0	490
2017/06/11 02:01:00	BASE	2.18	98	4.48	104	-3.1	81	-6.0	0	0	987.3	NA	0.0000	-SN	9999	6530	0	0	0
2017/06/11 02:02:00	BASE	2.43	72	4.48	104	-3.2	81	-6.0	0	0	987.3	NA	0.0000	-SN	9999	6460	0	0	0
2017/06/11 02:03:00	BASE	2.71	67	4.37	108	-3.2	81	-5.9	0	0	987.3	NA	0.0000	-SN	9999	1310	0	0	0
2017/06/11 02:04:00	BASE	2.68	81	4.37	108	-3.2	81	-5.9	0	0	987.3	NA	0.0000	-SN	9999	1800	0	0	0
2017/06/11 02:05:00	BASE	2.37	90	4.37	108	-3.2	82	-5.9	0	0	987.3	NA	0.0000	-SN	9999	6430	0	0	0
2017/06/11 02:06:00	BASE	1.69	100	4.37	108	-3.3	82	-5.9	0	0	987.3	NA	0.0000		9999	5250	0	0	0
2017/06/11 02:07:00	BASE	1.32	109	4.37	108	-3.3	82	-5.9	0	0	987.3	NA	0.0000		9999	5250	0	0	0
2017/06/11 02:08:00	BASE	1.33	104	3.45	77	-3.3	82	-5.9	0	0	987.4	NA	0.0000		9999	5280	0	0	0
2017/06/11 02:09:00	BASE	1.00	109	3.45	77	-3.3	82	-5.9	0	0	987.3	NA	0.0000		9999	5220	0	0	0
2017/06/11 02:10:00	BASE	0.31	122	3.45	77	-3.3	82	-5.9	0	0	987.3	NA	0.0000		9999	6590	0	0	0
2017/06/11 02:11:00	BASE	0.37	118	3.45	77	-3.3	82	-5.9	0	0	987.4	NA	0.0000		9999	6560	0	0	0
2017/06/11 02:12:00	BASE	0.42	121	3.19	69	-3.3	83	-5.8	0	0	987.4	NA	0.0000		9999	4860	0	0	0
2017/06/11 02:13:00	BASE	0.19	126	2.98	90	-3.2	83	-5.7	0	0	987.4	NA	0.0000		9999	4720	0	0	0
2017/06/11 02:14:00	BASE	0.23	104	2.42	91	-3.2	83	-5.7	0	0	987.4	NA	0.0000		9999	6400	0	0	0
2017/06/11 02:15:00	BASE	0.09	93	2.01	112	-3.2	83	-5.7	0	0	987.4	NA	0.0000		9999	6660	0	0	0
2017/06/11 02:16:00	BASE	0.00	85	1.75	96	-3.2	83	-5.7	0	0	987.4	NA	0.0000		9999	6400	0	0	0
2017/06/11 02:17:00	BASE	0.48	53	1.75	96	-3.2	83	-5.7	0	0	987.5	NA	0.0000		9999	6530	0	0	0
2017/06/11 02:18:00	BASE	1.13	30	1.59	30	-3.2	83	-5.7	0	0	987.6	NA	0.0000		9999	1380	0	0	0
2017/06/11 02:19:00	BASE	0.95	10	1.95	348	-3.3	83	-5.8	0	0	987.6	NA	0.0000		9999	1380	0	0	0
2017/06/11 02:20:00	BASE	1.22	346	1.95	338	-3.3	83	-5.8	0	0	987.6	NA	0.0000		9999	1350	0	0	0
2017/06/11 02:21:00	BASE	1.77	339	1.95	338	-3.4	83	-5.8	0	0	987.6	NA	0.0000		9999	1250	0	0	0
2017/06/11 02:22:00	BASE	1.64	341	1.95	338	-3.4	83	-5.8	0	0	987.6	NA	0.0000		9999	1180	0	0	0
2017/06/11 02:23:00	BASE	1.92	339	2.68	339	-3.3	83	-5.8	0	0	987.6	NA	0.0000		9999	5320	0	0	0
2017/06/11 02:24:00	BASE	2.38	335	2.73	328	-3.3	83	-5.8	0	0	987.6	NA	0.0000		9999	1800	5220	0	0
2017/06/11 02:25:00	BASE	2.54	329	2.78	323	-3.3	83	-5.7	0	0	987.6	NA	0.0000		9999	1940	0	0	0
2017/06/11 02:26:00	BASE	2.31	320	2.78	323	-3.2	83	-5.7	0	0	987.6	NA	0.0000		9999	1540	0	0	0
2017/06/11 02:27:00	BASE	1.91	309	2.78	323	-3.2	83	-5.7	0	0	987.6	NA	0.0000		9999	1510	0	0	0
2017/06/11 02:28:00	BASE	1.87	302	2.78	323	-3.2	82	-5.8	0	0	987.5	NA	0.0000		9999	5320	0	0	0
2017/06/11 02:29:00	BASE	1.84	298	2.78	323	-3.2	82	-5.8	0	0	987.5	NA	0.0000		9999	6560	0	0	0
2017/06/11 02:30:00	BASE	1.62	294	2.78	323	-3.1	82	-5.8	0	0	987.5	NA	0.0000		9999	5280	0	0	0
2017/06/11 02:31:00	BASE	1.51	297	2.78	323	-3.1	82	-5.8	0	0	987.6	NA	0.0000		9999	5250	0	0	0
2017/06/11 02:32:00	BASE	1.29	298	2.78	323	-3.1	81	-5.8	0	0	987.6	NA	0.0000		9999	5220	0	0	0
2017/06/11 02:33:00	BASE	0.94	294	2.78	323	-3.0	81	-5.8	0	0	987.6	NA	0.0000		9999	5250	0	0	0
2017/06/11 02:34:00	BASE	0.90	283	2.78	323	-3.0	81	-5.9	0	0	987.6	NA	0.0000		9999	5450	0	0	0
2017/06/11 02:35:00	BASE	1.15	271	2.16	335	-3.0	80	-5.9	0	0	987.6	NA	0.0000		9999	5250	0	0	0
2017/06/11 02:36:00	BASE	1.39	273	2.16	302	-3.0	80	-6.0	0	0	987.5	NA	0.0000		9999	5320	0	0	0
2017/06/11 02:37:00	BASE	1.95	294	2.98	323	-3.0	79	-6.1	0	0	987.5	NA	0.0000		9999	5540	0	0	0
2017/06/11 02:38:00	BASE	2.40	318	2.98	323	-3.0	79	-6.1	0	0	987.5	NA	0.0000		9999	5510	0	0	0
2017/06/11 02:39:00	BASE	2.21	333	2.98	323	-3.1	79	-6.2	0	0	987.5	NA	0.0000		9999	5410	0	0	0
2017/06/11 02:40:00	BASE	2.01	334	2.98	323	-3.1	78	-6.4	0	0	987.5	NA	0.0000		9999	5640	0	0	0
2017/06/11 02:41:00	BASE	2.07	333	2.98	323	-3.2	78	-6.5	0	0	987.6	NA	0.0000		9999	5640	0	0	0
2017/06/11 02:42:00	BASE	2.23	334	2.98	323	-3.2	77	-6.7	0	0	987.5	NA	0.0000		9999	5770	0	0	0
2017/06/11 02:43:00	BASE	2.50	330	2.98	323	-3.2	76	-6.8	0	0	987.5	NA	0.0000		9999	5810	0	0	0
2017/06/11 02:44:00	BASE	2.72	333	3.09	348	-3.2	75	-7.0	0	0	987.4	NA	0.0000		9999	6730	0	0	0
2017/06/11 02:45:00	BASE	3.26	341	4.48	344	-3.2	74	-7.1	0	0	987.4	NA	0.0000		9999	6790	0	0	0
2017/06/11 02:46:00	BASE	3.68	343	4.48	344	-3.1	74	-7.2	0	0	987.4	NA	0.0000		9999	6730	0	0	0
2017/06/11 02:47:00	BASE	3.41	343	4.48	344	-3.1	73	-7.3	0	0	987.4	NA	0.0000		9999	6690	0	0	0
2017/06/11 02:48:00	BASE	3.14	350	4.48	344	-3.1	72	-7.4	0	0	987.5	NA	0.0000		9999	6760	0	0	0
2017/06/11 02:49:00	BASE	2.48	360	4.48	344	-3.1	72	-7.5	0	0	987.5	NA	0.0000		9999	6760	0	0	0
2017/06/11 02:50:00	BASE	2.09	351	4.48	344	-3.1	71	-7.6	0	0	987.4	NA	0.0000		9999	6730	0	0	0
2017/06/11 02:51:00	BASE	2.21	332	4.48	344	-3.1	71	-7.7	0	0	987.4	NA	0.0000		9999	6860	0	0	0
2017/06/11 02:52:00	BASE	2.00	316	4.48	344	-3.1	70	-7.7	0	0	987.4	NA	0.0000		9999	6820	0	0	0
2017/06/11 02:53:00	BASE	1.92	309	4.48	344	-3.1	70	-7.8	0	0	987.4	NA	0.0000		9999	6920	0	0	0
2017/06/11 02:54:00	BASE	2.10	311	4.48	344	-3.2	70	-8.0	0	0	987.4	NA	0.0000		9999	0	0	0	0
2017/06/11 02:55:00	BASE	2.23	305	4.01	345	-3.2	69	-8.0	0	0	987.4	NA	0.0000		9999	0	0	0	0
2017/06/11 02:56:00	BASE	1.91	305	3.60	340	-3.2	69	-8.1	0	0	987.4	NA	0.0000		9999	0	0	0	0
2017/06/11 02:57:00	BASE	1.08	301	3.45	339	-3.3	69	-8.2	0	0	987.4	NA	0.0000		9999	4270	0	0	0
2017/06/11 02:58:00	BASE	0.30	281	2.98	322	-3.3	68	-8.3	0	0	987.4	NA	0.0000		9999	3900	0	0	0
2017/06/11 02:59:00	BASE	0.00	283	2.98	322	-3.2	68	-8.3	0	0	987.4	NA	0.0000		9999	3640	0	0	0
2017/06/11 03:00:00	BASE	0.00	259	2.98	322	-3.2	68	-8.3	0	0	987.4	NA	0.0000		9999	0	0	0	0
2017/06/11 03:01:00	BASE	0.00	173	2.98	322	-3.2	68	-8.3	0	0	987.4	NA	0.0000		9999	4200	0	0	0
2017/06/11 03:02:00	BASE	0.26	169	2.98	322	-3.2	69	-8.2	0	0	987.4	NA	0.0000		9999	4040	0	0	0
2017/06/11 03:03:00	BASE	0.74	169	2.78	318	-3.2	69	-8.1	0	0	987.4	NA	0.0000		9999	3250	0	0	0
2017/06/11 03:04:00	BASE	1.39	166	2.52	295	-3.2	69	-8.0	0	0	987.4	NA	0.0000		9999	3280	0	0	0
2017/06/11 03:05:00	BASE	1.70	161	2.06	158	-3.3	70	-8.0	0	0	987.4	NA	0.0000		9999	3670	0	0	0
2017/06/11 03:06:00	BASE	1.59	154	2.06	158	-3.3	70	-8.0	0	0	987.4	NA	0.0000		9999	4300	0	0	0
2017/06/11 03:07:00	BASE	1.53	149	2.06	158	-3.4	70	-8.0	0	0	987.4	NA	0.0000		9999	4270	0	0	0
2017/06/11 03:08:00	BASE	1.45	150	2.06	158	-3.5	71	-8.1	0	0	987.4	NA	0.0000		9999	3740	0	0	0
2017/06/11 03:09:00	BASE	1.65	157	2.06	172	-3.6	71	-8.0	0	0	987.4	NA	0.0000		9999	0	0	0	0
2017/06/11 03:10:00	BASE	1.77	152	2.06	172	-3.7	72	-8.0	0	0	987.5	NA	0.0000		9999	3710	0	0	0
2017/06/11 03:11:00	BASE	1.61	140	2.06	172	-3.8	72	-8.0	0	0	987.5	NA	0.0000		9999	0	0	0	0
2017/06/11 03:12:00	BASE	1.49	141	2.06	172	-3.8	73	-8.0	0	0	987.6	NA	0.0000		9999	0	0	0	0
2017/06/11 03:13:00	BASE	1.59	141	2.21	144	-3.9	73	-7.9	0	0	987.6	NA	0.0000		9999	0	0	0	0
2017/06/11 03:14:00	BASE	1.78	133	2.31	122	-3.9	73	-7.9	0	0	987.6	NA	0.0000		9999	4690	0	0	0
2017/06/11 03:15:00	BASE	1.67	131	2.31	122	-3.8	74	-7.9	0	0	987.6	NA	0.0000		9999	4040	0	0	0
2017/06/11 03:16:00	BASE	1.52	127	2.31	122	-3.7	74	-7.7	0	0	987.6	NA	0.0000		9999	0	0	0	0
2017/06/11 03:17:00	BASE	1.74	126	2.31	122	-3.6	74	-7.6	0	0	987.7	NA	0.0000		9999	0	0	0	0
2017/06/11 03:18:00	BASE	1.98	135	2.31	122	-3.6	74	-7.6	0	0	987.7	NA	0.0000		9999	0	0	0	0
2017/06/11 03:19:00	BASE	1.99	140	2.31	122	-3.5	73	-7.6	0	0	987.7	NA	0.0000		9999	0	0	0	0
2017/06/11 03:20:00	BASE	1.85	139	2.31	122	-3.5	73	-7.6	0	0	987.7	NA	0.0000		9999	0	0	0	0
2017/06/11 03:21:00	BASE	1.53	142	2.31	122	-3.5	73	-7.7	0	0	987.8	NA	0.0000		9999	0	0	0	0
2017/06/11 03:22:00	BASE	1.29	128	2.31	122	-3.5	73	-7.7	0	0	987.8	NA	0.0000		9999	0	0	0	0
2017/06/11 03:23:00	BASE	1.53	98	2.31	122	-3.6	73	-7.7	0	0	987.8	NA	0.0000		9999	0	0	0	0
2017/06/11 03:24:00	BASE	2.06	77	2.52	68	-3.6	73	-7.7	0	0	987.8	NA	0.0000		9999	0	0	0	0
2017/06/11 03:25:00	BASE	2.55	72	3.14	88	-3.6	74	-7.6	0	0	987.8	NA	0.0000		9999	0	0	0	0
2017/06/11 03:26:00	BASE	2.34	94	3.14	88	-3.6	74	-7.6	0	0	987.8	NA	0.0000		9999	0	0	0	0
2017/06/11 03:27:00	BASE	1.88	107	3.14	88	-3.7	75	-7.4	0	0	987.8	NA	0.0000		9999	0	0	0	0
2017/06/11 03:28:00	BASE	2.02	94	3.14	88	-3.7	76	-7.3	0	0	987.8	NA	0.0000		9999	0	0	0	0
2017/06/11 03:29:00	BASE	2.48	74	3.14	88	-3.7	77	-7.2	0	0	987.8	NA	0.0000		9999	3050	0	0	0
2017/06/11 03:30:00	BASE	2.58	65	3.14	88	-3.7	77	-7.0	0	0	987.8	NA	0.0000		9999	0	0	0	0
2017/06/11 03:31:00	BASE	2.45	73	3.14	88	-3.6	78	-6.9	0	0	987.9	NA	0.0000		9999	2590	0	0	0
2017/06/11 03:32:00	BASE	2.43	85	3.14	88	-3.6	79	-6.8	0	0	987.9	NA	0.0000		9999	2490	0	0	0
2017/06/11 03:33:00	BASE	2.13	74	3.14	88	-3.6	79	-6.6	0	0	987.9	NA	0.0000		9999	2530	0	0	0
2017/06/11 03:34:00	BASE	1.53	63	3.14	88	-3.5	80	-6.5	0	0	987.9	NA	0.0000		9999	2530	0	0	0
2017/06/11 03:35:00	BASE	1.29	68	2.93	66	-3.6	80	-6.5	0	0	987.9	NA	0.0000		9999	2430	0	0	0
2017/06/11 03:36:00	BASE	1.62	71	2.93	66	-3.6	81	-6.4	0	0	987.9	NA	0.0000		9999	2400	0	0	0
2017/06/11 03:37:00	BASE	1.83	61	2.93	66	-3.6	81	-6.4	0	0	987.9	NA	0.0000		9999	2560	0	0	0
2017/06/11 03:38:00	BASE	1.66	36	2.93	66	-3.5	81	-6.3	0	0	987.9	NA	0.0000		9999	2360	0	0	0
2017/06/11 03:39:00	BASE	0.96	19	2.88	88	-3.5	82	-6.2	0	0	987.9	NA	0.0000		9999	1640	0	0	0
2017/06/11 03:40:00	BASE	0.33	11	2.88	88	-3.4	82	-6.1	0	0	987.9	NA	0.0000		9999	1610	0	0	0
2017/06/11 03:41:00	BASE	0.99	8	2.88	88	-3.3	82	-6.0	0	0	987.9	NA	0.0000		9999	1610	0	0	0
2017/06/11 03:42:00	BASE	2.15	7	2.98	7	-3.2	81	-6.0	0	0	987.9	NA	0.0000		9999	1540	0	0	0
2017/06/11 03:43:00	BASE	2.56	360	2.98	7	-3.2	81	-6.0	0	0	987.9	NA	0.0000		9999	1510	0	0	0
2017/06/11 03:44:00	BASE	2.59	351	2.98	7	-3.2	81	-5.9	0	0	987.9	NA	0.0000		9999	1540	0	0	0
2017/06/11 03:45:00	BASE	2.55	354	2.98	7	-3.2	81	-5.9	0	0	987.9	NA	0.0000		9999	0	0	0	0
2017/06/11 03:46:00	BASE	2.33	358	2.98	7	-3.1	81	-5.9	0	0	987.9	NA	0.0000		9999	2030	0	0	0
2017/06/11 03:47:00	BASE	2.18	346	2.98	7	-3.1	81	-5.9	0	0	987.9	NA	0.0000		9999	0	0	0	0
2017/06/11 03:48:00	BASE	2.34	328	2.98	7	-3.1	81	-5.9	0	0	987.9	NA	0.0000		9999	2760	0	0	0
2017/06/11 03:49:00	BASE	2.49	322	2.98	7	-3.1	81	-5.9	0	0	987.9	NA	0.0000		9999	0	0	0	2820
2017/06/11 03:50:00	BASE	2.73	321	3.19	320	-3.1	81	-5.9	0	0	987.9	NA	0.0000		9999	0	0	0	2760
2017/06/11 03:51:00	BASE	2.80	323	3.19	320	-3.1	81	-5.9	0	0	987.9	NA	0.0000		9999	0	0	0	2760
2017/06/11 03:52:00	BASE	2.51	327	3.19	320	-3.2	81	-6.0	0	0	987.9	NA	0.0000		9999	2530	0	0	0
2017/06/11 03:53:00	BASE	2.22	324	3.19	320	-3.2	81	-6.0	0	0	987.9	NA	0.0000		9999	0	0	0	2560
2017/06/11 03:54:00	BASE	2.08	313	3.19	320	-3.2	81	-6.1	0	0	987.9	NA	0.0000		9999	0	0	0	2460
2017/06/11 03:55:00	BASE	2.01	299	3.19	320	-3.2	80	-6.1	0	0	987.9	NA	0.0000		9999	0	0	0	2330
2017/06/11 03:56:00	BASE	2.14	279	3.19	320	-3.2	80	-6.1	0	0	987.9	NA	0.0000		9999	0	0	0	2330
2017/06/11 03:57:00	BASE	2.19	266	3.19	320	-3.1	80	-6.1	0	0	987.9	NA	0.0000		9999	0	0	0	2400
2017/06/11 03:58:00	BASE	2.09	268	3.19	320	-3.1	80	-6.1	0	0	987.9	NA	0.0000		9999	0	0	0	2200
2017/06/11 03:59:00	BASE	2.17	271	3.19	320	-3.0	79	-6.1	0	0	987.9	NA	0.0000		9999	0	0	0	1940
2017/06/11 04:00:00	BASE	2.13	274	2.88	306	-3.0	79	-6.1	0	0	987.9	NA	0.0000		9999	0	0	0	2560
2017/06/11 04:01:00	BASE	2.11	274	2.88	306	-3.0	79	-6.2	0	0	987.9	NA	0.0000		9999	3250	0	0	0
2017/06/11 04:02:00	BASE	2.17	274	2.88	306	-3.1	79	-6.2	0	0	988.0	NA	0.0000		9999	0	0	0	3350
2017/06/11 04:03:00	BASE	2.21	269	2.88	306	-3.1	79	-6.2	0	0	988.0	NA	0.0000		9999	0	0	0	3220
2017/06/11 04:04:00	BASE	2.15	260	2.68	263	-3.1	79	-6.2	0	0	987.9	NA	0.0000		9999	0	0	0	3310
2017/06/11 04:05:00	BASE	2.07	260	2.73	263	-3.1	79	-6.3	0	0	987.9	NA	0.0000		9999	0	0	0	3150
2017/06/11 04:06:00	BASE	2.10	269	2.73	263	-3.1	79	-6.3	0	0	988.0	NA	0.0000		9999	0	0	0	1740
2017/06/11 04:07:00	BASE	1.96	274	2.73	263	-3.2	79	-6.3	0	0	988.0	NA	0.0000		9999	0	0	0	0
2017/06/11 04:08:00	BASE	1.74	278	2.73	263	-3.2	78	-6.4	0	0	988.0	NA	0.0000		9999	0	0	0	1510
2017/06/11 04:09:00	BASE	1.30	274	2.73	263	-3.2	78	-6.5	0	0	988.0	NA	0.0000		9999	0	0	0	590
2017/06/11 04:10:00	BASE	0.87	258	2.73	263	-3.2	77	-6.7	0	0	988.0	NA	0.0000		9999	1970	0	0	0
2017/06/11 04:11:00	BASE	0.94	257	2.73	263	-3.2	76	-6.8	0	0	988.0	NA	0.0000		9999	1870	0	0	0
2017/06/11 04:12:00	BASE	1.22	253	2.73	263	-3.1	76	-6.8	0	0	988.0	NA	0.0000		9999	1870	0	0	0
2017/06/11 04:13:00	BASE	1.40	240	2.73	263	-3.1	75	-6.9	0	0	988.0	NA	0.0000		9999	0	0	0	1570
2017/06/11 04:14:00	BASE	1.17	234	2.73	263	-3.0	75	-6.9	0	0	988.0	NA	0.0000		9999	0	0	0	0
2017/06/11 04:15:00	BASE	0.95	231	2.52	276	-3.0	75	-6.9	0	0	988.0	NA	0.0000		9999	0	0	0	0
2017/06/11 04:16:00	BASE	1.06	238	2.06	273	-3.0	74	-6.9	0	0	988.0	NA	0.0000		9999	0	0	0	0
2017/06/11 04:17:00	BASE	0.66	257	1.85	289	-3.0	74	-7.0	0	0	988.0	NA	0.0000		9999	0	0	0	0
2017/06/11 04:18:00	BASE	0.09	277	1.75	250	-3.1	74	-7.0	0	0	988.0	NA	0.0000		9999	5910	0	0	0
2017/06/11 04:19:00	BASE	0.05	274	1.75	250	-3.1	74	-7.1	0	0	988.0	NA	0.0000		9999	0	0	0	0
2017/06/11 04:20:00	BASE	0.00	263	1.75	250	-3.1	73	-7.2	0	0	988.0	NA	0.0000		9999	0	0	0	0
2017/06/11 04:21:00	BASE	0.00	263	1.75	250	-3.1	73	-7.3	0	0	988.0	NA	0.0000		9999	0	0	0	0
2017/06/11 04:22:00	BASE	0.00	263	1.54	233	-3.1	73	-7.4	0	0	987.9	NA	0.0000		9999	0	0	0	0
2017/06/11 04:23:00	BASE	0.00	263	1.54	233	-3.1	72	-7.4	0	0	987.9	NA	0.0000		9999	0	0	0	0
2017/06/11 04:24:00	BASE	0.00	263	1.49	237	-3.1	72	-7.5	0	0	987.9	NA	0.0000		9999	0	0	0	0
2017/06/11 04:25:00	BASE	0.00	302	1.49	237	-3.1	72	-7.5	0	0	987.9	NA	0.0000		9999	0	0	0	0
2017/06/11 04:26:00	BASE	0.09	351	1.08	273	-3.2	72	-7.5	0	0	987.9	NA	0.0000		9999	5870	0	0	0
2017/06/11 04:27:00	BASE	0.48	355	1.08	354	-3.2	72	-7.5	0	0	987.9	NA	0.0000		9999	6000	0	0	0
2017/06/11 04:28:00	BASE	0.71	355	1.18	337	-3.2	72	-7.5	0	0	987.9	NA	0.0000		9999	0	0	0	0
2017/06/11 04:29:00	BASE	0.31	342	1.18	337	-3.1	72	-7.4	0	0	987.9	NA	0.0000		9999	0	0	0	0
2017/06/11 04:30:00	BASE	0.00	345	1.18	337	-3.1	72	-7.4	0	0	987.9	NA	0.0000		9999	0	0	0	0
2017/06/11 04:31:00	BASE	0.82	344	2.21	330	-3.2	73	-7.4	0	0	987.9	NA	0.0000		9999	0	0	0	0
2017/06/11 04:32:00	BASE	1.94	325	2.52	316	-3.2	73	-7.3	0	0	987.9	NA	0.0000		9999	0	0	0	0
2017/06/11 04:33:00	BASE	2.73	321	3.65	315	-3.2	74	-7.3	0	0	987.9	NA	0.0000		9999	0	0	0	0
2017/06/11 04:34:00	BASE	2.62	315	3.65	315	-3.2	74	-7.3	0	0	987.9	NA	0.0000		9999	0	0	0	0
2017/06/11 04:35:00	BASE	1.61	311	3.65	315	-3.2	73	-7.3	0	0	987.9	NA	0.0000		9999	0	0	0	0
2017/06/11 04:36:00	BASE	1.64	299	3.65	315	-3.2	73	-7.4	0	0	987.9	NA	0.0000		9999	0	0	0	0
2017/06/11 04:37:00	BASE	2.00	283	3.65	315	-3.2	72	-7.5	0	0	987.9	NA	0.0000		9999	0	0	0	0
2017/06/11 04:38:00	BASE	2.19	281	3.65	315	-3.1	71	-7.6	0	0	987.9	NA	0.0000		9999	0	0	0	0
2017/06/11 04:39:00	BASE	2.45	284	3.65	315	-3.1	71	-7.7	0	0	987.9	NA	0.0000		9999	0	0	0	0
2017/06/11 04:40:00	BASE	2.41	282	3.65	315	-3.2	70	-7.8	0	0	987.9	NA	0.0000		9999	0	0	0	0
2017/06/11 04:41:00	BASE	1.98	277	3.65	315	-3.3	70	-7.9	0	0	987.9	NA	0.0000		9999	0	0	0	0
2017/06/11 04:42:00	BASE	0.79	274	3.65	315	-3.3	71	-7.9	0	0	987.9	NA	0.0000		9999	0	0	0	0
2017/06/11 04:43:00	BASE	0.00	259	2.83	282	-3.4	71	-7.9	0	0	987.9	NA	0.0000		9999	0	0	0	0
2017/06/11 04:44:00	BASE	0.00	213	2.83	282	-3.4	71	-7.9	0	0	988.0	NA	0.0000		9999	0	0	0	0
2017/06/11 04:45:00	BASE	0.96	131	2.83	282	-3.4	70	-8.0	0	0	988.0	NA	0.0000		9999	0	0	0	0
2017/06/11 04:46:00	BASE	1.74	115	2.83	282	-3.4	70	-8.0	0	0	987.9	NA	0.0000		9999	0	0	0	0
2017/06/11 04:47:00	BASE	1.51	133	2.83	282	-3.4	71	-8.0	0	0	987.9	NA	0.0000		9999	0	0	0	0
2017/06/11 04:48:00	BASE	1.39	151	2.73	282	-3.4	71	-7.9	0	0	987.9	NA	0.0000		9999	0	0	0	0
2017/06/11 04:49:00	BASE	1.57	150	2.68	279	-3.4	72	-7.8	0	0	987.9	NA	0.0000		9999	5450	0	0	0
2017/06/11 04:50:00	BASE	1.90	145	2.21	143	-3.5	72	-7.7	0	0	987.9	NA	0.0000		9999	5450	0	0	0
2017/06/11 04:51:00	BASE	1.89	143	2.21	143	-3.6	73	-7.7	0	0	988.0	NA	0.0000		9999	5350	0	0	0
2017/06/11 04:52:00	BASE	1.64	143	2.21	143	-3.6	73	-7.7	0	0	988.0	NA	0.0000		9999	4990	0	0	0
2017/06/11 04:53:00	BASE	1.58	135	2.21	143	-3.7	74	-7.7	0	0	988.0	NA	0.0000		9999	5090	0	0	0
2017/06/11 04:54:00	BASE	1.95	115	2.98	101	-3.7	74	-7.7	0	0	988.0	NA	0.0000		9999	5120	0	0	0
2017/06/11 04:55:00	BASE	2.83	101	4.12	109	-3.7	74	-7.6	0	0	988.0	NA	0.0000		9999	5320	0	0	0
2017/06/11 04:56:00	BASE	3.33	97	4.12	109	-3.7	75	-7.6	0	0	988.0	NA	0.0000		9999	5180	0	0	0
2017/06/11 04:57:00	BASE	3.54	97	4.27	110	-3.8	75	-7.5	0	0	988.0	NA	0.0000		9999	5120	0	0	0
2017/06/11 04:58:00	BASE	3.90	104	4.58	113	-3.8	76	-7.4	0	0	988.0	NA	0.0000		9999	5090	0	0	0
2017/06/11 04:59:00	BASE	3.64	106	4.58	113	-3.8	77	-7.2	0	0	988.1	NA	0.0000		9999	5280	0	0	0
2017/06/11 05:00:00	BASE	3.82	101	4.68	97	-3.7	78	-7.0	0	0	988.0	NA	0.0000		9999	5580	0	0	0
2017/06/11 05:01:00	BASE	4.46	99	4.99	108	-3.7	78	-6.9	0	0	988.0	NA	0.0000		9999	5150	0	0	0
2017/06/11 05:02:00	BASE	4.46	108	4.99	108	-3.6	79	-6.7	0	0	988.0	NA	0.0000		9999	5280	0	0	0
2017/06/11 05:03:00	BASE	4.12	122	4.99	108	-3.5	79	-6.6	0	0	988.0	NA	0.0000		9999	5090	0	0	0
2017/06/11 05:04:00	BASE	4.00	130	4.99	108	-3.4	79	-6.6	0	0	988.0	NA	0.0000		9999	4690	0	0	0
2017/06/11 05:05:00	BASE	4.01	130	4.99	108	-3.4	79	-6.5	0	0	988.0	NA	0.0000		9999	4920	0	0	0
2017/06/11 05:06:00	BASE	3.88	130	4.99	108	-3.3	79	-6.5	0	0	988.0	NA	0.0000		9999	5320	0	0	0
2017/06/11 05:07:00	BASE	3.75	133	4.99	108	-3.3	79	-6.5	0	0	988.0	NA	0.0000		9999	5280	0	0	0
2017/06/11 05:08:00	BASE	3.54	135	4.99	108	-3.3	78	-6.5	0	0	988.1	NA	0.0000		9999	5350	0	0	0
2017/06/11 05:09:00	BASE	3.29	128	4.99	108	-3.3	78	-6.6	0	0	988.2	NA	0.0000		9999	5120	0	0	0
2017/06/11 05:10:00	BASE	3.32	118	4.99	108	-3.4	78	-6.6	0	0	988.2	NA	0.0000		9999	5480	0	0	0
2017/06/11 05:11:00	BASE	3.61	117	4.68	117	-3.4	78	-6.6	0	0	988.2	NA	0.0000		9999	4820	0	0	0
2017/06/11 05:12:00	BASE	3.37	122	4.53	136	-3.4	79	-6.6	0	0	988.2	NA	0.0000		9999	4760	0	0	0
2017/06/11 05:13:00	BASE	3.32	124	4.48	130	-3.4	79	-6.5	0	0	988.2	NA	0.0000		9999	4720	0	0	0
2017/06/11 05:14:00	BASE	3.61	123	4.48	130	-3.3	79	-6.5	0	0	988.2	NA	0.0000		9999	5150	0	0	0
2017/06/11 05:15:00	BASE	3.41	126	4.22	119	-3.3	79	-6.4	0	0	988.2	NA	0.0000		9999	5840	0	0	0
2017/06/11 05:16:00	BASE	3.02	125	4.22	119	-3.3	79	-6.4	0	0	988.2	NA	0.0000		9999	5180	0	0	0
2017/06/11 05:17:00	BASE	2.61	122	4.22	119	-3.3	79	-6.4	0	0	988.2	NA	0.0000		9999	5050	0	0	0
2017/06/11 05:18:00	BASE	2.26	120	4.22	119	-3.3	79	-6.4	0	0	988.3	NA	0.0000		9999	5050	6270	0	0
2017/06/11 05:19:00	BASE	2.04	119	4.22	119	-3.4	79	-6.5	0	0	988.3	NA	0.0000		9999	5120	0	0	0
2017/06/11 05:20:00	BASE	2.07	112	4.22	119	-3.4	79	-6.5	0	0	988.3	NA	0.0000		9999	5280	0	0	0
2017/06/11 05:21:00	BASE	2.08	109	4.12	133	-3.5	79	-6.6	0	0	988.3	NA	0.0000		9999	5220	0	0	0
2017/06/11 05:22:00	BASE	2.08	112	4.12	133	-3.6	79	-6.7	0	0	988.3	NA	0.0000		9999	5220	0	0	0
2017/06/11 05:23:00	BASE	2.06	113	3.91	124	-3.6	79	-6.7	0	0	988.3	NA	0.0000		9999	5090	0	0	0
2017/06/11 05:24:00	BASE	1.91	117	3.65	117	-3.6	79	-6.8	0	0	988.3	NA	0.0000		9999	5180	0	0	0
2017/06/11 05:25:00	BASE	2.00	114	3.04	119	-3.6	79	-6.8	0	0	988.3	NA	0.0000		9999	5220	0	0	0
2017/06/11 05:26:00	BASE	2.31	105	2.78	97	-3.6	79	-6.8	0	0	988.3	NA	0.0000		9999	5220	0	0	0
2017/06/11 05:27:00	BASE	2.68	100	3.04	105	-3.7	78	-6.9	0	0	988.3	NA	0.0000		9999	5220	0	0	0
2017/06/11 05:28:00	BASE	2.89	101	3.14	104	-3.6	78	-6.8	0	0	988.3	NA	0.0000		9999	5250	0	0	0
2017/06/11 05:29:00	BASE	2.90	98	3.24	93	-3.6	78	-6.8	0	0	988.4	NA	0.0000		9999	5280	0	0	0
2017/06/11 05:30:00	BASE	2.98	91	3.24	93	-3.6	79	-6.8	0	0	988.4	NA	0.0000		9999	5350	0	0	0
2017/06/11 05:31:00	BASE	2.95	90	3.24	93	-3.6	79	-6.8	0	0	988.4	NA	0.0000		9999	5480	0	0	0
2017/06/11 05:32:00	BASE	2.70	98	3.24	93	-3.6	79	-6.8	0	0	988.4	NA	0.0000		9999	5640	0	0	0
2017/06/11 05:33:00	BASE	2.50	107	3.24	93	-3.7	79	-6.7	0	0	988.4	NA	0.0000		9999	5810	0	0	0
2017/06/11 05:34:00	BASE	2.29	104	3.24	93	-3.7	79	-6.7	0	0	988.4	NA	0.0000		9999	5610	0	0	0
2017/06/11 05:35:00	BASE	2.07	93	3.24	93	-3.7	80	-6.7	0	0	988.4	NA	0.0000		9999	5020	0	0	0
2017/06/11 05:36:00	BASE	2.10	90	3.24	93	-3.6	80	-6.6	0	0	988.4	NA	0.0000		9999	6000	0	0	0
2017/06/11 05:37:00	BASE	2.31	90	3.24	93	-3.6	80	-6.6	0	0	988.4	NA	0.0000		9999	0	0	0	0
2017/06/11 05:38:00	BASE	2.72	83	3.65	69	-3.6	80	-6.6	0	0	988.5	NA	0.0000		9999	0	0	0	0
2017/06/11 05:39:00	BASE	3.16	70	3.65	69	-3.7	80	-6.7	0	0	988.4	NA	0.0000		9999	5940	0	0	0
2017/06/11 05:40:00	BASE	3.23	63	3.65	69	-3.8	80	-6.7	0	0	988.4	NA	0.0000		9999	0	0	0	0
2017/06/11 05:41:00	BASE	2.87	64	3.65	69	-3.8	80	-6.8	0	0	988.5	NA	0.0000		9999	0	0	0	0
2017/06/11 05:42:00	BASE	2.58	72	3.65	69	-3.8	80	-6.8	0	0	988.4	NA	0.0000		9999	5840	0	0	0
2017/06/11 05:43:00	BASE	2.50	84	3.65	69	-3.8	80	-6.8	0	0	988.4	NA	0.0000		9999	0	0	0	0
2017/06/11 05:44:00	BASE	2.24	99	3.65	69	-3.8	80	-6.7	0	0	988.4	NA	0.0000		9999	0	0	0	0
2017/06/11 05:45:00	BASE	1.94	109	3.65	69	-3.7	80	-6.7	0	0	988.5	NA	0.0000		9999	5870	0	0	0
2017/06/11 05:46:00	BASE	1.66	108	3.65	69	-3.6	79	-6.7	0	0	988.5	NA	0.0000		9999	0	0	0	0
2017/06/11 05:47:00	BASE	1.52	88	3.65	69	-3.6	79	-6.7	0	0	988.5	NA	0.0000		9999	0	0	0	0
2017/06/11 05:48:00	BASE	2.03	66	3.60	67	-3.6	79	-6.8	0	0	988.5	NA	0.0000		9999	0	0	0	0
2017/06/11 05:49:00	BASE	2.52	60	3.55	59	-3.7	78	-6.9	0	0	988.5	NA	0.0000		9999	8300	0	0	0
2017/06/11 05:50:00	BASE	2.55	57	3.09	92	-3.7	78	-7.0	0	0	988.5	NA	0.0000		9999	0	0	0	0
2017/06/11 05:51:00	BASE	2.21	54	3.09	92	-3.8	78	-7.0	0	0	988.5	NA	0.0000		9999	0	0	0	0
2017/06/11 05:52:00	BASE	1.73	45	3.09	92	-3.7	78	-6.9	0	0	988.5	NA	0.0000		9999	0	0	0	0
2017/06/11 05:53:00	BASE	1.46	47	2.98	52	-3.7	78	-6.9	0	0	988.5	NA	0.0000		9999	0	0	0	0
2017/06/11 05:54:00	BASE	1.53	49	2.98	52	-3.6	78	-6.8	0	0	988.5	NA	0.0000		9999	8270	0	0	0
2017/06/11 05:55:00	BASE	1.79	39	2.98	52	-3.6	78	-6.8	0	0	988.5	NA	0.0000		9999	8300	0	0	0
2017/06/11 05:56:00	BASE	1.50	22	2.98	52	-3.6	78	-6.8	0	0	988.5	NA	0.0000		9999	8330	0	0	0
2017/06/11 05:57:00	BASE	1.25	12	2.98	52	-3.6	78	-6.9	0	0	988.5	NA	0.0000		9999	8330	0	0	0
2017/06/11 05:58:00	BASE	1.14	20	2.83	52	-3.6	78	-6.9	0	0	988.5	NA	0.0000		9999	8330	0	0	0
2017/06/11 05:59:00	BASE	1.13	22	2.73	60	-3.6	78	-6.9	0	0	988.5	NA	0.0000		9999	8300	0	0	0
2017/06/11 06:00:00	BASE	1.19	13	2.11	51	-3.6	78	-6.9	0	0	988.5	NA	0.0000		9999	8330	0	0	0
2017/06/11 06:01:00	BASE	1.19	4	2.06	44	-3.6	78	-6.8	0	0	988.5	NA	0.0000		9999	8300	0	0	0
2017/06/11 06:02:00	BASE	0.74	2	2.06	44	-3.5	78	-6.8	0	0	988.5	NA	0.0000		9999	8300	0	0	0
2017/06/11 06:03:00	BASE	0.09	3	2.06	44	-3.5	78	-6.8	0	0	988.5	NA	0.0000		9999	8300	0	0	0
2017/06/11 06:04:00	BASE	0.00	8	2.06	44	-3.5	78	-6.7	0	0	988.5	NA	0.0000		9999	8270	0	0	0
2017/06/11 06:05:00	BASE	0.00	9	1.49	10	-3.4	79	-6.6	0	0	988.5	NA	0.0000		9999	8270	0	0	0
2017/06/11 06:06:00	BASE	0.00	12	1.49	10	-3.4	79	-6.6	0	0	988.5	NA	0.0000		9999	8270	0	0	0
2017/06/11 06:07:00	BASE	0.00	51	1.49	10	-3.3	79	-6.5	0	0	988.5	NA	0.0000		9999	8270	0	0	0
2017/06/11 06:08:00	BASE	0.00	90	1.49	10	-3.2	78	-6.4	0	0	988.5	NA	0.0000		9999	8200	0	0	0
2017/06/11 06:09:00	BASE	0.14	93	1.49	10	-3.1	78	-6.5	0	0	988.5	NA	0.0000		9999	7970	0	0	0
2017/06/11 06:10:00	BASE	0.14	90	1.44	360	-3.1	77	-6.6	0	0	988.5	NA	0.0000		9999	8010	0	0	0
2017/06/11 06:11:00	BASE	0.00	95	1.23	80	-3.2	77	-6.7	0	0	988.5	NA	0.0000		9999	8240	0	0	0
2017/06/11 06:12:00	BASE	0.46	103	1.29	101	-3.2	76	-6.8	0	0	988.5	NA	0.0000		9999	8270	0	0	0
2017/06/11 06:13:00	BASE	0.96	113	1.39	103	-3.4	76	-6.9	0	0	988.5	NA	0.0000		9999	8300	0	0	0
2017/06/11 06:14:00	BASE	0.74	116	1.39	103	-3.5	77	-7.0	0	0	988.5	NA	0.0000		9999	8300	0	0	0
2017/06/11 06:15:00	BASE	0.74	113	1.39	96	-3.6	77	-7.1	0	0	988.5	NA	0.0000		9999	8240	0	0	0
2017/06/11 06:16:00	BASE	1.09	103	1.39	96	-3.7	77	-7.1	0	0	988.5	NA	0.0000		9999	8300	0	0	0
2017/06/11 06:17:00	BASE	0.80	90	1.39	96	-3.7	78	-7.1	0	0	988.5	NA	0.0000		9999	8240	0	0	0
2017/06/11 06:18:00	BASE	0.22	76	1.39	96	-3.7	78	-7.0	0	0	988.6	NA	0.0000		9999	7910	0	0	0
2017/06/11 06:19:00	BASE	0.00	59	1.39	96	-3.6	78	-6.9	0	0	988.7	NA	0.0000		9999	3280	0	0	0
2017/06/11 06:20:00	BASE	0.04	39	1.39	96	-3.5	78	-6.8	0	0	988.7	NA	0.0000		9999	3280	0	0	0
2017/06/11 06:21:00	BASE	0.62	23	1.39	96	-3.4	78	-6.8	0	0	988.7	NA	0.0000		9999	12700	0	0	0
2017/06/11 06:22:00	BASE	1.26	10	1.49	1	-3.4	78	-6.7	0	0	988.7	NA	0.0000		9999	12760	0	0	0
2017/06/11 06:23:00	BASE	1.43	0	1.70	1	-3.4	77	-6.7	0	0	988.7	NA	0.0000		9999	12800	0	0	0
2017/06/11 06:24:00	BASE	1.52	6	1.70	23	-3.4	77	-6.8	0	0	988.7	NA	0.0000		9999	12730	0	0	0
2017/06/11 06:25:00	BASE	1.43	19	1.80	27	-3.5	77	-6.9	0	0	988.7	NA	0.0000		9999	12760	0	0	0
2017/06/11 06:26:00	BASE	1.29	19	1.80	27	-3.6	77	-7.0	0	0	988.7	NA	0.0000		9999	12760	0	0	0
2017/06/11 06:27:00	BASE	1.16	14	1.80	27	-3.6	78	-6.9	0	0	988.7	NA	0.0000		9999	12730	0	0	0
2017/06/11 06:28:00	BASE	0.66	22	1.80	27	-3.6	78	-6.9	0	0	988.7	NA	0.0000		9999	12800	0	0	0
2017/06/11 06:29:00	BASE	0.68	14	3.24	339	-3.6	79	-6.8	0	0	988.7	NA	0.0000		9999	8040	12830	0	0
2017/06/11 06:30:00	BASE	2.03	351	3.96	344	-3.6	79	-6.7	0	0	988.7	NA	0.0000		9999	8040	0	0	0
2017/06/11 06:31:00	BASE	3.42	347	4.12	344	-3.5	79	-6.7	0	0	988.7	NA	0.0000		9999	8010	0	0	0
2017/06/11 06:32:00	BASE	3.62	344	4.12	344	-3.5	78	-6.7	0	0	988.7	NA	0.0000		9999	8010	0	0	0
2017/06/11 06:33:00	BASE	3.36	335	4.12	344	-3.5	78	-6.8	0	0	988.6	NA	0.0000		9999	8040	0	0	0
2017/06/11 06:34:00	BASE	3.42	333	4.12	344	-3.4	77	-7.0	0	0	988.5	NA	0.0000		9999	8300	0	0	0
2017/06/11 06:35:00	BASE	3.42	338	4.12	344	-3.4	75	-7.1	0	0	988.5	NA	0.0000		9999	0	0	0	0
2017/06/11 06:36:00	BASE	3.46	342	4.12	344	-3.3	74	-7.3	0	0	988.5	NA	0.0000		9999	0	0	0	0
2017/06/11 06:37:00	BASE	3.59	342	4.12	344	-3.3	73	-7.4	0	0	988.5	NA	0.0000		9999	0	0	0	0
2017/06/11 06:38:00	BASE	3.78	338	4.27	330	-3.3	73	-7.5	0	0	988.5	NA	0.0000		9999	0	0	0	0
2017/06/11 06:39:00	BASE	4.16	331	4.58	328	-3.3	72	-7.6	0	0	988.5	NA	0.0000		9999	0	0	0	0
2017/06/11 06:40:00	BASE	4.30	327	4.58	328	-3.3	72	-7.6	0	0	988.5	NA	0.0000		9999	0	0	0	0
2017/06/11 06:41:00	BASE	4.12	325	4.58	328	-3.3	72	-7.7	0	0	988.5	NA	0.0000		9999	0	0	0	0
2017/06/11 06:42:00	BASE	3.74	325	4.58	328	-3.4	72	-7.7	0	0	988.5	NA	0.0000		9999	0	0	0	0
2017/06/11 06:43:00	BASE	3.29	325	4.58	328	-3.5	72	-7.8	0	0	988.7	NA	0.0000		9999	8370	0	0	0
2017/06/11 06:44:00	BASE	3.02	325	4.58	328	-3.5	72	-7.8	0	0	988.7	NA	0.0000		9999	8370	0	0	0
2017/06/11 06:45:00	BASE	2.93	325	4.58	328	-3.6	72	-7.9	0	0	988.7	NA	0.0000		9999	0	0	0	0
2017/06/11 06:46:00	BASE	2.90	320	4.58	328	-3.6	72	-8.0	0	0	988.7	NA	0.0000		9999	0	0	0	0
2017/06/11 06:47:00	BASE	2.92	312	4.58	328	-3.7	72	-8.0	0	0	988.7	NA	0.0000		9999	0	0	0	0
2017/06/11 06:48:00	BASE	3.16	306	4.58	328	-3.7	72	-8.0	0	0	988.6	NA	0.0000		9999	8370	0	0	0
2017/06/11 06:49:00	BASE	3.36	303	4.53	327	-3.8	72	-8.1	0	0	988.6	NA	0.0000		9999	8370	0	0	0
2017/06/11 06:50:00	BASE	3.52	295	4.27	327	-3.7	72	-8.0	0	0	988.5	NA	0.0000		9999	0	0	0	0
2017/06/11 06:51:00	BASE	3.42	288	3.91	281	-3.7	72	-8.0	0	0	988.5	NA	0.0000		9999	0	0	0	0
2017/06/11 06:52:00	BASE	3.23	290	3.91	281	-3.6	72	-7.9	0	0	988.5	NA	0.0000		9999	0	0	0	0
2017/06/11 06:53:00	BASE	3.18	290	3.91	281	-3.5	72	-7.8	0	0	988.5	NA	0.0000		9999	0	0	0	0
2017/06/11 06:54:00	BASE	3.17	288	3.91	281	-3.5	72	-7.8	0	0	988.6	NA	0.0000		9999	0	0	0	0
2017/06/11 06:55:00	BASE	3.11	286	3.91	281	-3.4	72	-7.8	0	0	988.7	NA	0.0000		9999	0	0	0	0
2017/06/11 06:56:00	BASE	2.86	285	3.91	281	-3.4	72	-7.8	0	0	988.7	NA	0.0000		9999	0	0	0	0
2017/06/11 06:57:00	BASE	2.80	284	3.91	281	-3.4	71	-7.8	0	0	988.7	NA	0.0000		9999	0	0	0	0
2017/06/11 06:58:00	BASE	3.02	277	3.91	281	-3.4	71	-7.8	0	0	988.7	NA	0.0000		9999	0	0	0	0
2017/06/11 06:59:00	BASE	3.06	268	3.91	281	-3.3	71	-7.8	0	0	988.7	NA	0.0000		9999	0	0	0	0
2017/06/11 07:00:00	BASE	2.75	261	3.91	281	-3.3	71	-7.9	0	0	988.6	NA	0.0000		9999	0	0	0	0
2017/06/11 07:01:00	BASE	2.45	260	3.76	269	-3.3	71	-7.9	0	0	988.6	NA	0.0000		9999	0	0	0	0
2017/06/11 07:02:00	BASE	2.44	261	3.76	269	-3.3	70	-7.9	0	0	988.7	NA	0.0000		9999	0	0	0	0
2017/06/11 07:03:00	BASE	2.54	267	3.76	269	-3.3	70	-7.9	0	0	988.7	NA	0.0000		9999	0	0	0	0
2017/06/11 07:04:00	BASE	2.58	274	3.76	269	-3.3	70	-8.0	0	0	988.7	NA	0.0000		9999	0	0	0	0
2017/06/11 07:05:00	BASE	2.48	272	3.76	269	-3.3	70	-7.9	0	0	988.7	NA	0.0000		9999	0	0	0	0
2017/06/11 07:06:00	BASE	2.10	268	3.76	269	-3.2	70	-7.9	0	0	988.7	NA	0.0000		9999	0	0	0	0
2017/06/11 07:07:00	BASE	1.88	259	3.76	269	-3.2	71	-7.8	0	0	988.7	NA	0.0000		9999	0	0	0	0
2017/06/11 07:08:01	BASE	1.69	243	3.19	260	-3.2	71	-7.7	0	0	988.7	NA	0.0000		9999	0	0	0	0
2017/06/11 07:09:00	BASE	0.95	227	3.09	266	-3.2	71	-7.7	0	0	988.7	NA	0.0000		9999	0	0	0	0
2017/06/11 07:10:00	BASE	0.52	210	3.09	266	-3.2	72	-7.6	0	0	988.7	NA	0.0000		9999	0	0	0	0
2017/06/11 07:11:00	BASE	0.91	208	3.09	266	-3.3	72	-7.6	0	0	988.7	NA	0.0000		9999	0	0	0	0
2017/06/11 07:12:00	BASE	1.05	217	2.98	272	-3.3	72	-7.6	0	0	988.7	NA	0.0000		9999	6400	0	0	0
2017/06/11 07:13:00	BASE	1.19	219	2.98	272	-3.3	72	-7.6	0	0	988.7	NA	0.0000		9999	6500	0	0	0
2017/06/11 07:14:00	BASE	1.85	215	2.52	262	-3.4	73	-7.6	0	0	988.7	NA	0.0000		9999	6560	0	0	0
2017/06/11 07:15:00	BASE	2.44	210	2.78	208	-3.4	73	-7.6	0	0	988.7	NA	0.0000		9999	0	0	0	0
2017/06/11 07:16:00	BASE	2.50	211	2.78	208	-3.4	73	-7.5	0	0	988.7	NA	0.0000		9999	0	0	0	0
2017/06/11 07:17:00	BASE	2.23	220	2.78	208	-3.4	74	-7.5	0	0	988.7	NA	0.0000		9999	12040	0	0	0
2017/06/11 07:18:00	BASE	1.84	224	2.78	208	-3.5	74	-7.5	0	0	988.7	NA	0.0000		9999	0	0	0	0
2017/06/11 07:19:00	BASE	1.24	237	2.78	208	-3.5	74	-7.5	0	0	988.7	NA	0.0000		9999	6330	0	0	0
2017/06/11 07:20:00	BASE	0.59	263	2.78	208	-3.5	74	-7.5	0	0	988.7	NA	0.0000		9999	11810	0	0	0
2017/06/11 07:21:00	BASE	0.14	281	2.78	208	-3.5	74	-7.5	0	0	988.7	NA	0.0000		9999	0	0	0	0
2017/06/11 07:22:00	BASE	0.73	320	2.78	208	-3.5	73	-7.6	0	0	988.7	NA	0.0000		9999	11810	0	0	0
2017/06/11 07:23:00	BASE	1.71	8	2.78	208	-3.5	73	-7.6	0	0	988.7	NA	0.0000		9999	0	0	0	0
2017/06/11 07:24:00	BASE	1.90	31	2.78	208	-3.5	73	-7.6	0	0	988.7	NA	0.0000		9999	0	0	0	0
2017/06/11 07:25:00	BASE	1.69	53	2.62	213	-3.5	73	-7.7	0	0	988.7	NA	0.0000		9999	0	0	0	0
2017/06/11 07:26:00	BASE	0.92	68	2.21	16	-3.6	73	-7.7	0	0	988.7	NA	0.0000		9999	0	0	0	0
2017/06/11 07:27:00	BASE	0.14	61	2.21	16	-3.6	73	-7.6	0	0	988.7	NA	0.0000		9999	0	0	0	0
2017/06/11 07:28:00	BASE	0.00	19	2.21	16	-3.5	73	-7.6	0	0	988.7	NA	0.0000		9999	0	0	0	0
2017/06/11 07:29:00	BASE	0.14	324	2.21	16	-3.5	73	-7.6	0	0	988.7	NA	0.0000		9999	0	0	0	0
2017/06/11 07:30:00	BASE	0.65	310	2.21	16	-3.5	73	-7.5	0	0	988.7	NA	0.0000		9999	0	0	0	0
2017/06/11 07:31:00	BASE	1.12	329	2.21	16	-3.5	73	-7.6	0	0	988.7	NA	0.0000		9999	0	0	0	0
2017/06/11 07:32:00	BASE	1.30	0	2.21	16	-3.5	73	-7.7	0	0	988.8	NA	0.0000		9999	0	0	0	0
2017/06/11 07:33:00	BASE	1.64	13	2.11	16	-3.6	73	-7.7	0	0	988.9	NA	0.0000		9999	0	0	0	0
2017/06/11 07:34:00	BASE	1.87	25	2.11	16	-3.6	73	-7.7	0	0	988.9	NA	0.0000		9999	0	0	0	0
2017/06/11 07:35:00	BASE	1.66	42	2.11	16	-3.6	74	-7.7	0	0	988.8	NA	0.0000		9999	0	0	0	0
2017/06/11 07:36:00	BASE	1.39	57	2.11	16	-3.6	74	-7.6	0	0	988.7	NA	0.0000		9999	0	0	0	0
2017/06/11 07:37:00	BASE	1.03	62	2.11	16	-3.6	74	-7.6	0	0	988.7	NA	0.0000		9999	0	0	0	0
2017/06/11 07:38:00	BASE	0.61	62	2.11	16	-3.6	74	-7.6	0	0	988.8	NA	0.0000		9999	0	0	0	0
2017/06/11 07:39:00	BASE	1.16	58	2.21	49	-3.6	74	-7.5	0	0	988.9	NA	0.0000		9999	0	0	0	0
2017/06/11 07:40:00	BASE	2.26	48	2.83	39	-3.5	74	-7.5	0	0	988.9	NA	0.0000		9999	0	0	0	0
2017/06/11 07:41:00	BASE	2.56	46	2.83	39	-3.5	74	-7.5	0	0	988.8	NA	0.0000		9999	0	0	0	0
2017/06/11 07:42:00	BASE	2.19	53	2.83	39	-3.5	74	-7.5	0	0	988.7	NA	0.0000		9999	0	0	0	0
2017/06/11 07:43:00	BASE	1.79	59	2.83	39	-3.6	74	-7.5	0	0	988.7	NA	0.0000		9999	0	0	0	0
2017/06/11 07:44:00	BASE	0.87	62	2.83	39	-3.6	74	-7.5	0	0	988.7	NA	0.0000		9999	0	0	0	0
2017/06/11 07:45:00	BASE	0.05	83	2.83	39	-3.5	74	-7.5	0	0	988.7	NA	0.0000		9999	0	0	0	0
2017/06/11 07:46:00	BASE	0.14	115	2.83	39	-3.4	73	-7.5	0	0	988.7	NA	0.0000		9999	0	0	0	0
2017/06/11 07:47:00	BASE	0.44	110	2.83	39	-3.3	73	-7.5	0	0	988.7	NA	0.0000		9999	0	0	0	0
2017/06/11 07:48:00	BASE	0.34	93	2.83	39	-3.2	72	-7.6	0	0	988.7	NA	0.0000		9999	0	0	0	0
2017/06/11 07:49:00	BASE	0.09	84	2.83	39	-3.1	71	-7.7	0	0	988.7	NA	0.0000		9999	0	0	0	0
2017/06/11 07:50:00	BASE	0.04	74	2.62	40	-3.1	70	-7.8	0	0	988.7	NA	0.0000		9999	0	0	0	0
2017/06/11 07:51:00	BASE	0.00	77	2.16	54	-3.2	70	-7.9	0	0	988.7	NA	0.0000		9999	0	0	0	0
2017/06/11 07:52:00	BASE	0.86	70	2.26	59	-3.2	70	-7.9	0	0	988.7	NA	0.0000		9999	0	0	0	0
2017/06/11 07:53:00	BASE	1.97	61	2.42	70	-3.2	70	-7.9	0	0	988.7	NA	0.0000		9999	0	0	0	0
2017/06/11 07:54:00	BASE	1.85	77	2.42	70	-3.3	70	-8.0	0	0	988.7	NA	0.0000		9999	0	0	0	0
2017/06/11 07:55:00	BASE	0.95	98	2.42	70	-3.3	70	-8.0	0	0	988.7	NA	0.0000		9999	0	0	0	0
2017/06/11 07:56:00	BASE	0.59	121	2.42	70	-3.4	70	-8.0	0	0	988.7	NA	0.0000		9999	0	0	0	0
2017/06/11 07:57:00	BASE	1.18	141	2.42	70	-3.5	71	-8.0	0	0	988.7	NA	0.0000		9999	0	0	0	0
2017/06/11 07:58:00	BASE	2.30	136	3.65	120	-3.6	71	-8.0	0	0	988.6	NA	0.0000		9999	0	0	0	0
2017/06/11 07:59:00	BASE	3.47	127	4.27	129	-3.6	72	-7.9	0	0	988.6	NA	0.0000		9999	0	0	0	0
2017/06/11 08:00:00	BASE	4.09	126	4.89	131	-3.6	72	-7.8	0	0	988.6	NA	0.0000		9999	0	0	0	0
2017/06/11 08:01:00	BASE	3.97	129	4.89	131	-3.5	73	-7.7	0	0	988.6	NA	0.0000		9999	0	0	0	0
2017/06/11 08:02:00	BASE	3.50	132	4.89	131	-3.4	73	-7.6	0	0	988.7	NA	0.0000		9999	0	0	0	0
2017/06/11 08:03:00	BASE	3.28	131	4.89	131	-3.3	73	-7.5	0	0	988.7	NA	0.0000		9999	0	0	0	0
2017/06/11 08:04:00	BASE	3.21	133	4.89	131	-3.3	72	-7.5	0	0	988.7	NA	0.0000		9999	0	0	0	0
2017/06/11 08:05:00	BASE	3.14	137	4.89	131	-3.3	72	-7.5	0	0	988.7	NA	0.0000		9999	0	0	0	0
2017/06/11 08:06:00	BASE	3.05	135	4.89	131	-3.2	72	-7.5	0	0	988.7	NA	0.0000		9999	0	0	0	0
2017/06/11 08:07:00	BASE	3.41	132	4.89	131	-3.2	72	-7.5	0	0	988.7	NA	0.0000		9999	0	0	0	0
2017/06/11 08:08:00	BASE	3.91	134	4.89	131	-3.2	72	-7.4	0	0	988.7	NA	0.0000		9999	0	0	0	0
2017/06/11 08:09:00	BASE	4.16	129	5.09	119	-3.1	73	-7.4	0	0	988.7	NA	0.0000		9999	0	0	0	0
2017/06/11 08:10:00	BASE	4.35	121	5.09	119	-3.1	73	-7.3	0	0	988.7	NA	0.0000		9999	0	0	0	0
2017/06/11 08:11:00	BASE	4.32	118	5.09	119	-3.1	73	-7.3	0	0	988.7	NA	0.0000		9999	0	0	0	0
2017/06/11 08:12:00	BASE	4.34	116	5.09	119	-3.0	73	-7.2	0	0	988.7	NA	0.0000		9999	4760	0	0	0
2017/06/11 08:13:00	BASE	4.39	118	5.30	120	-3.0	73	-7.2	0	0	988.7	NA	0.0000		9999	4330	0	0	0
2017/06/11 08:14:00	BASE	4.24	123	5.30	120	-3.0	73	-7.1	0	0	988.8	NA	0.0000		9999	4490	5710	0	0
2017/06/11 08:15:00	BASE	3.96	123	5.30	120	-3.0	73	-7.1	0	0	988.9	NA	0.0000		9999	5840	0	0	0
2017/06/11 08:16:00	BASE	3.65	123	5.30	120	-3.0	73	-7.1	0	0	988.9	NA	0.0000		9999	0	0	0	0
2017/06/11 08:17:00	BASE	3.69	118	5.30	120	-2.9	73	-7.0	0	0	989.0	NA	0.0000		9999	4720	0	0	0
2017/06/11 08:18:00	BASE	3.83	112	5.30	120	-2.9	74	-7.0	0	0	989.0	NA	0.0000		9999	4200	0	0	0
2017/06/11 08:19:00	BASE	3.54	113	5.30	120	-2.9	74	-6.9	0	0	989.0	NA	0.0000		9999	4000	0	0	0
2017/06/11 08:20:00	BASE	3.49	116	5.30	120	-2.9	74	-6.9	0	0	989.0	NA	0.0000		9999	3810	4560	0	0
2017/06/11 08:21:00	BASE	3.85	124	5.30	120	-2.9	74	-6.8	0	0	989.0	NA	0.0000		9999	4430	0	0	0
2017/06/11 08:22:00	BASE	3.65	128	5.30	120	-2.9	74	-6.8	0	0	989.0	NA	0.0000		9999	4270	0	0	0
2017/06/11 08:23:00	BASE	3.45	128	5.14	129	-2.9	74	-6.8	0	0	989.0	NA	0.0000		9999	4170	0	0	0
2017/06/11 08:24:00	BASE	3.52	123	5.14	129	-2.9	75	-6.8	0	0	989.0	NA	0.0000		9999	4400	0	0	0
2017/06/11 08:25:00	BASE	3.25	117	5.14	129	-2.9	75	-6.7	0	0	989.1	NA	0.0000		9999	3940	5050	0	0
2017/06/11 08:26:00	BASE	3.02	121	5.14	129	-2.9	75	-6.7	0	0	989.1	NA	0.0000		9999	5120	0	0	0
2017/06/11 08:27:00	BASE	3.06	124	5.14	129	-2.9	75	-6.7	0	0	989.1	NA	0.0000		9999	0	0	0	0
2017/06/11 08:28:00	BASE	3.09	122	5.14	129	-2.9	75	-6.7	0	0	989.1	NA	0.0000		9999	0	0	0	0
2017/06/11 08:29:00	BASE	2.96	125	5.14	129	-2.9	75	-6.8	0	0	989.1	NA	0.0000		9999	0	0	0	0
2017/06/11 08:30:00	BASE	2.84	131	5.14	129	-2.9	75	-6.8	0	0	989.1	NA	0.0000		9999	4560	0	0	0
2017/06/11 08:31:00	BASE	2.44	136	3.96	129	-2.9	75	-6.8	0	0	989.1	NA	0.0000		9999	0	0	0	0
2017/06/11 08:32:00	BASE	1.93	136	3.96	129	-2.9	75	-6.8	0	0	989.1	NA	0.0000		9999	0	0	0	0
2017/06/11 08:33:00	BASE	2.09	140	3.91	134	-2.9	75	-6.8	0	0	989.1	NA	0.0000		9999	0	0	0	0
2017/06/11 08:34:00	BASE	2.20	144	3.60	129	-2.9	75	-6.7	0	0	989.1	NA	0.0000		9999	0	0	0	0
2017/06/11 08:35:00	BASE	1.75	149	3.60	129	-2.8	75	-6.6	0	0	989.1	NA	0.0000		9999	0	0	0	0
2017/06/11 08:36:00	BASE	1.03	148	3.60	129	-2.8	75	-6.5	0	0	989.1	NA	0.0000		9999	0	0	0	0
2017/06/11 08:37:00	BASE	0.58	136	3.60	129	-2.8	75	-6.5	0	0	989.2	NA	0.0000		9999	0	0	0	0
2017/06/11 08:38:00	BASE	0.42	131	3.55	130	-2.8	75	-6.5	0	0	989.2	NA	0.0000		9999	4490	0	0	0
2017/06/11 08:39:00	BASE	0.12	132	3.55	130	-2.7	75	-6.5	0	0	989.2	NA	0.0000		9999	0	0	0	0
2017/06/11 08:40:00	BASE	0.05	138	2.68	149	-2.7	75	-6.5	0	0	989.2	NA	0.0000		9999	5120	0	0	0
2017/06/11 08:41:00	BASE	0.19	135	2.57	150	-2.7	75	-6.5	0	0	989.2	NA	0.0000		9999	0	0	0	0
2017/06/11 08:42:00	BASE	0.18	106	2.57	150	-2.7	75	-6.5	0	0	989.2	NA	0.0000		9999	0	0	0	0
2017/06/11 08:43:00	BASE	0.04	75	2.42	141	-2.7	75	-6.5	0	0	989.3	NA	0.0000		9999	0	0	0	0
2017/06/11 08:44:00	BASE	0.00	66	1.85	132	-2.7	75	-6.6	0	0	989.4	NA	0.0000		9999	0	0	0	0
2017/06/11 08:45:00	BASE	0.00	40	1.49	149	-2.8	75	-6.7	0	0	989.3	NA	0.0000		9999	6630	0	0	0
2017/06/11 08:46:00	BASE	0.00	17	1.44	121	-2.8	75	-6.7	0	0	989.3	NA	0.0000		9999	6500	0	0	0
2017/06/11 08:47:00	BASE	0.00	14	1.44	121	-2.9	75	-6.8	0	0	989.3	NA	0.0000		9999	6730	0	0	0
2017/06/11 08:48:00	BASE	0.00	14	1.23	130	-2.9	75	-6.8	0	0	989.3	NA	0.0000		9999	6790	0	0	0
2017/06/11 08:49:00	BASE	0.00	14	1.23	130	-3.0	75	-6.8	0	0	989.3	NA	0.0000		9999	4270	0	0	0
2017/06/11 08:50:00	BASE	0.00	14	1.18	132	-2.9	75	-6.8	0	0	989.3	NA	0.0000		9999	4040	0	0	0
2017/06/11 08:51:00	BASE	0.00	14	1.03	65	-2.9	75	-6.7	0	0	989.3	NA	0.0000		9999	6560	0	0	0
2017/06/11 08:52:00	BASE	0.00	14	M	M	-2.9	75	-6.7	0	0	989.3	NA	0.0000		9999	6370	0	0	0
2017/06/11 08:53:00	BASE	0.00	1	M	M	-2.9	75	-6.7	0	0	989.3	NA	0.0000		9999	6430	0	0	0
2017/06/11 08:54:00	BASE	0.27	341	1.39	343	-2.8	75	-6.7	0	0	989.4	NA	0.0000		9999	6170	0	0	0
2017/06/11 08:55:00	BASE	1.17	339	2.21	347	-2.9	75	-6.7	0	0	989.4	NA	0.0000		9999	6200	0	0	0
2017/06/11 08:56:00	BASE	2.08	345	2.62	346	-2.9	75	-6.7	0	0	989.4	NA	0.0000		9999	5970	0	0	0
2017/06/11 08:57:00	BASE	2.66	338	3.34	325	-2.9	75	-6.7	0	0	989.4	NA	0.0000		9999	6000	0	0	0
2017/06/11 08:58:00	BASE	3.01	329	3.34	325	-3.0	76	-6.7	0	0	989.3	NA	0.0000		9999	6000	0	0	0
2017/06/11 08:59:00	BASE	3.29	331	3.70	333	-3.0	76	-6.6	0	0	989.3	NA	0.0000		9999	5810	0	0	0
2017/06/11 09:00:00	BASE	3.33	332	3.70	333	-3.1	77	-6.6	0	0	989.3	NA	0.0000		9999	5840	0	0	0
2017/06/11 09:01:00	BASE	2.97	331	3.70	333	-3.1	77	-6.6	0	0	989.4	NA	0.0000		9999	5810	0	0	0
2017/06/11 09:02:00	BASE	2.86	328	3.70	333	-3.1	77	-6.5	0	0	989.4	NA	0.0000		9999	5710	0	0	0
2017/06/11 09:03:00	BASE	2.80	330	3.70	333	-3.1	77	-6.5	0	0	989.4	NA	0.0000		9999	5710	0	0	0
2017/06/11 09:04:00	BASE	2.78	337	3.70	333	-3.0	77	-6.5	0	0	989.4	NA	0.0000		9999	5680	0	0	0
2017/06/11 09:05:00	BASE	2.72	338	3.70	333	-3.0	77	-6.5	0	0	989.4	NA	0.0000		9999	5610	0	0	0
2017/06/11 09:06:00	BASE	2.86	329	4.22	303	-3.0	77	-6.4	0	0	989.4	NA	0.0000		9999	5580	0	0	0
2017/06/11 09:07:00	BASE	3.51	316	4.22	303	-2.9	77	-6.4	0	0	989.4	NA	0.0000		9999	5540	0	0	0
2017/06/11 09:08:00	BASE	3.72	309	4.22	303	-2.9	77	-6.4	0	0	989.3	NA	0.0000		9999	5380	0	0	0
2017/06/11 09:09:00	BASE	3.46	301	4.22	303	-2.9	77	-6.4	0	0	989.3	NA	0.0000		9999	0	0	0	0
2017/06/11 09:10:00	BASE	3.63	298	4.22	299	-2.9	77	-6.4	0	0	989.3	NA	0.0000		9999	0	0	0	0
2017/06/11 09:11:00	BASE	3.79	302	4.22	299	-2.9	77	-6.4	0	0	989.4	NA	0.0000		9999	0	0	0	0
2017/06/11 09:12:00	BASE	3.73	308	4.22	299	-2.9	76	-6.5	0	0	989.4	NA	0.0000		9999	0	0	0	0
2017/06/11 09:13:00	BASE	3.90	312	4.37	315	-2.9	76	-6.5	0	0	989.4	NA	0.0000		9999	0	0	0	0
2017/06/11 09:14:00	BASE	4.14	314	4.68	317	-2.9	76	-6.5	0	0	989.4	NA	0.0000		9999	0	0	0	0
2017/06/11 09:15:00	BASE	4.41	315	5.30	326	-3.0	76	-6.6	0	0	989.4	NA	0.0000		9999	0	0	0	0
2017/06/11 09:16:00	BASE	4.67	321	5.56	331	-3.0	76	-6.7	0	0	989.4	NA	0.0000		9999	0	0	0	0
2017/06/11 09:17:00	BASE	4.80	327	5.56	331	-3.1	75	-6.8	0	0	989.4	NA	0.0000		9999	0	0	0	0
2017/06/11 09:18:00	BASE	4.95	326	5.56	330	-3.1	74	-7.1	0	0	989.4	NA	0.0000		9999	0	0	0	0
2017/06/11 09:19:00	BASE	5.25	320	6.43	310	-3.2	73	-7.4	0	0	989.4	NA	0.0000		9999	0	0	0	0
2017/06/11 09:20:00	BASE	5.60	309	6.53	302	-3.2	72	-7.6	0	0	989.4	NA	0.0000		9999	0	0	0	0
2017/06/11 09:21:00	BASE	5.46	301	6.53	302	-3.2	71	-7.7	0	0	989.4	NA	0.0000		9999	0	0	0	0
2017/06/11 09:22:00	BASE	5.04	300	6.53	302	-3.2	70	-7.8	0	0	989.4	NA	0.0000		9999	0	0	0	0
2017/06/11 09:23:00	BASE	5.06	307	6.53	302	-3.1	70	-7.9	0	0	989.4	NA	0.0000		9999	0	0	0	0
2017/06/11 09:24:00	BASE	4.92	307	6.53	302	-3.1	69	-7.9	0	0	989.4	NA	0.0000		9999	0	0	0	0
2017/06/11 09:25:00	BASE	5.08	319	6.79	318	-3.0	68	-8.1	0	0	989.3	NA	0.0000		9999	0	0	0	0
2017/06/11 09:26:00	BASE	5.31	332	6.79	318	-3.0	67	-8.3	0	0	989.4	NA	0.0000		9999	8240	0	0	0
2017/06/11 09:27:00	BASE	5.26	343	6.79	318	-3.0	66	-8.5	0	0	989.3	NA	0.0000		9999	0	0	0	0
2017/06/11 09:28:00	BASE	5.09	3	6.79	318	-3.1	66	-8.6	0	0	989.4	NA	0.0000		9999	0	0	0	0
2017/06/11 09:29:00	BASE	4.69	14	6.79	318	-3.2	66	-8.7	0	0	989.4	NA	0.0000		9999	0	0	0	0
2017/06/11 09:30:00	BASE	4.56	16	6.79	318	-3.2	66	-8.8	0	0	989.4	NA	0.0000		9999	0	0	0	0
2017/06/11 09:31:00	BASE	4.54	15	6.79	318	-3.3	66	-8.8	0	0	989.4	NA	0.0000		9999	8200	0	0	0
2017/06/11 09:32:00	BASE	5.01	14	7.25	17	-3.4	66	-8.8	0	0	989.4	NA	0.0000		9999	8240	0	0	0
2017/06/11 09:33:00	BASE	6.56	15	8.39	18	-3.4	66	-8.9	0	0	989.2	NA	0.0000		9999	8200	0	0	0
2017/06/11 09:34:00	BASE	7.46	16	8.39	18	-3.4	66	-8.9	0	0	989.2	NA	0.0000		9999	0	0	0	0
2017/06/11 09:35:00	BASE	7.78	9	9.88	5	-3.4	66	-8.9	0	0	989.2	NA	0.0000		9999	0	0	0	0
2017/06/11 09:36:00	BASE	8.63	6	9.88	5	-3.4	66	-8.9	0	0	989.1	NA	0.0000		9999	0	0	0	0
2017/06/11 09:37:00	BASE	8.41	7	9.88	5	-3.3	65	-8.9	0	0	989.1	NA	0.0000		9999	0	0	0	0
2017/06/11 09:38:00	BASE	7.72	6	9.88	5	-3.3	65	-8.9	0	0	989.1	NA	0.0000		9999	0	0	0	0
2017/06/11 09:39:00	BASE	7.86	4	9.88	5	-3.2	65	-8.8	0	0	989.1	NA	0.0000		9999	0	0	0	0
2017/06/11 09:40:00	BASE	7.88	3	9.88	5	-3.1	65	-8.8	0	0	989.1	NA	0.0000		9999	0	0	0	0
2017/06/11 09:41:00	BASE	7.78	6	9.88	5	-3.0	65	-8.7	0	0	989.1	NA	0.0000		9999	0	0	0	0
2017/06/11 09:42:00	BASE	7.68	5	9.88	5	-3.0	64	-8.8	0	0	989.1	NA	0.0000		9999	0	0	0	0
2017/06/11 09:43:00	BASE	6.97	2	9.88	5	-3.0	64	-8.8	0	0	989.1	NA	0.0000		9999	0	0	0	0
2017/06/11 09:44:00	BASE	6.11	0	9.88	5	-3.0	64	-8.9	0	0	989.1	NA	0.0000		9999	0	0	0	0
2017/06/11 09:45:00	BASE	6.15	351	9.62	10	-3.1	64	-8.9	0	0	989.1	NA	0.0000		9999	0	0	0	0
2017/06/11 09:46:00	BASE	6.67	357	9.31	17	-3.1	64	-8.9	0	0	989.1	NA	0.0000		9999	0	0	0	0
2017/06/11 09:47:00	BASE	6.34	15	9.31	17	-3.1	65	-8.8	0	0	989.2	NA	0.0000		9999	0	0	0	0
2017/06/11 09:48:00	BASE	5.49	25	9.31	17	-3.1	65	-8.7	0	0	989.2	NA	0.0000		9999	0	0	0	0
2017/06/11 09:49:00	BASE	5.48	32	9.31	17	-3.1	66	-8.6	0	0	989.2	NA	0.0000		9999	0	0	0	0
2017/06/11 09:50:00	BASE	5.99	40	9.31	17	-3.2	66	-8.6	0	0	989.2	NA	0.0000		9999	0	0	0	0
2017/06/11 09:51:00	BASE	5.95	48	8.18	354	-3.2	66	-8.6	0	0	989.2	NA	0.0000		9999	0	0	0	0
2017/06/11 09:52:00	BASE	6.09	57	7.51	360	-3.3	67	-8.6	0	0	989.2	NA	0.0000		9999	0	0	0	0
2017/06/11 09:53:00	BASE	6.43	59	7.51	360	-3.3	67	-8.6	0	0	989.2	NA	0.0000		9999	0	0	0	0
2017/06/11 09:54:00	BASE	6.41	56	7.51	360	-3.3	68	-8.5	0	0	989.2	NA	0.0000		9999	0	0	0	0
2017/06/11 09:55:00	BASE	6.43	55	7.51	56	-3.3	68	-8.4	0	0	989.2	NA	0.0000		9999	0	0	0	0
2017/06/11 09:56:00	BASE	6.60	56	7.82	59	-3.3	69	-8.2	0	0	989.3	NA	0.0000		9999	0	0	0	0
2017/06/11 09:57:00	BASE	6.54	59	7.82	59	-3.3	69	-8.1	0	0	989.3	NA	0.0000		9999	0	0	0	0
2017/06/11 09:58:00	BASE	6.42	56	7.82	59	-3.2	70	-8.0	0	0	989.4	NA	0.0000		9999	4300	0	0	0
2017/06/11 09:59:00	BASE	6.35	53	7.82	59	-3.2	70	-7.9	0	0	989.4	NA	0.0000		9999	0	0	0	0
2017/06/11 10:00:00	BASE	6.75	56	7.97	63	-3.2	70	-7.9	0	0	989.4	NA	0.0000		9999	4660	0	0	0
2017/06/11 10:01:00	BASE	6.76	59	7.97	63	-3.2	70	-7.9	0	0	989.5	NA	0.0000		9999	0	0	0	0
2017/06/11 10:02:00	BASE	5.98	59	7.97	63	-3.2	70	-7.9	0	0	989.5	NA	0.0000		9999	4630	0	0	0
2017/06/11 10:03:00	BASE	5.79	60	7.97	63	-3.2	70	-7.9	0	0	989.6	NA	0.0000		9999	4660	0	0	0
2017/06/11 10:04:00	BASE	6.34	57	8.13	56	-3.2	70	-7.9	0	0	989.5	NA	0.0000		9999	4720	0	0	0
2017/06/11 10:05:00	BASE	6.09	53	8.13	56	-3.1	70	-7.8	0	0	989.6	NA	0.0000		9999	4590	0	0	0
2017/06/11 10:06:00	BASE	5.23	48	8.13	56	-3.1	70	-7.7	0	0	989.6	NA	0.0000		9999	4720	0	0	0
2017/06/11 10:07:00	BASE	5.20	49	8.13	56	-3.1	71	-7.7	0	0	989.6	NA	0.0000		9999	4790	0	0	0
2017/06/11 10:08:00	BASE	5.26	51	8.13	56	-3.1	71	-7.6	0	0	989.6	NA	0.0000		9999	4820	0	0	0
2017/06/11 10:09:00	BASE	5.03	54	8.13	56	-3.1	71	-7.5	0	0	989.7	NA	0.0000		9999	4990	0	0	0
2017/06/11 10:10:00	BASE	4.75	59	8.13	56	-3.1	71	-7.5	0	0	989.6	NA	0.0000		9999	4990	0	0	0
2017/06/11 10:11:00	BASE	4.41	61	8.13	56	-3.1	71	-7.6	0	0	989.7	NA	0.0000		9999	4860	0	0	0
2017/06/11 10:12:00	BASE	4.55	61	8.13	56	-3.2	71	-7.6	0	0	989.7	NA	0.0000		9999	4860	0	0	0
2017/06/11 10:13:00	BASE	4.85	63	8.13	56	-3.2	71	-7.6	0	0	989.7	NA	0.0000		9999	4890	0	0	0
2017/06/11 10:14:00	BASE	4.90	69	6.43	53	-3.2	71	-7.7	0	0	989.7	NA	0.0000		9999	4690	0	0	0
2017/06/11 10:15:00	BASE	4.85	76	5.92	55	-3.2	71	-7.7	0	0	989.7	NA	0.0000		9999	3970	0	0	0
2017/06/11 10:16:00	BASE	4.35	90	5.92	55	-3.3	71	-7.8	0	0	989.7	NA	0.0000		9999	4000	0	0	0
2017/06/11 10:17:00	BASE	3.85	100	5.71	59	-3.4	71	-7.8	0	0	989.7	NA	0.0000		9999	3870	0	0	0
2017/06/11 10:18:00	BASE	3.72	93	5.71	59	-3.4	71	-7.9	0	0	989.7	NA	0.0000		9999	0	0	0	0
2017/06/11 10:19:00	BASE	3.86	86	5.61	62	-3.5	71	-8.0	0	0	989.7	NA	0.0000		9999	0	0	0	0
2017/06/11 10:20:00	BASE	4.19	80	5.61	62	-3.6	71	-8.1	0	0	989.7	NA	0.0000		9999	4040	0	0	0
2017/06/11 10:21:00	BASE	4.35	77	5.61	62	-3.6	71	-8.1	0	0	989.7	NA	0.0000		9999	0	0	0	0
2017/06/11 10:22:00	BASE	4.14	79	5.61	62	-3.5	70	-8.2	0	0	989.7	NA	0.0000		9999	0	0	0	0
2017/06/11 10:23:00	BASE	3.69	81	5.45	77	-3.5	70	-8.2	0	0	989.7	NA	0.0000		9999	7780	0	0	0
2017/06/11 10:24:00	BASE	3.70	78	5.14	73	-3.5	70	-8.2	0	0	989.7	NA	0.0000		9999	0	0	0	0
2017/06/11 10:25:00	BASE	4.26	75	4.78	77	-3.5	70	-8.2	0	0	989.8	NA	0.0000		9999	0	0	0	0
2017/06/11 10:26:00	BASE	4.39	78	4.78	77	-3.6	70	-8.2	0	0	989.8	NA	0.0000		9999	7610	0	0	0
2017/06/11 10:27:00	BASE	4.32	84	4.78	77	-3.6	70	-8.2	0	0	989.8	NA	0.0000		9999	7510	0	0	0
2017/06/11 10:28:01	BASE	4.20	95	4.78	77	-3.7	71	-8.2	0	0	989.8	NA	0.0000		9999	7510	0	0	0
2017/06/11 10:29:00	BASE	3.85	98	4.78	77	-3.7	71	-8.2	0	0	989.8	NA	0.0000		9999	7580	0	0	0
2017/06/11 10:30:00	BASE	3.64	94	4.73	76	-3.8	72	-8.2	0	0	989.8	NA	0.0000		9999	7580	0	0	0
2017/06/11 10:31:00	BASE	3.58	91	4.73	76	-3.8	72	-8.1	0	0	989.8	NA	0.0000		9999	3610	0	0	0
2017/06/11 10:32:00	BASE	3.60	88	4.73	76	-3.8	72	-8.1	0	0	989.9	NA	0.0000		9999	7580	0	0	0
2017/06/11 10:33:00	BASE	3.65	86	4.73	76	-3.8	72	-8.1	0	0	989.9	NA	0.0000		9999	7550	0	0	0
2017/06/11 10:34:00	BASE	3.61	89	4.73	76	-3.8	72	-8.1	0	0	989.9	NA	0.0000		9999	7550	0	0	0
2017/06/11 10:35:00	BASE	3.42	97	4.63	88	-3.7	72	-8.0	0	0	989.9	NA	0.0000		9999	7550	0	0	0
2017/06/11 10:36:00	BASE	3.45	105	4.58	95	-3.7	72	-8.0	0	0	989.9	NA	0.0000		9999	7550	0	0	0
2017/06/11 10:37:00	BASE	3.60	110	4.32	103	-3.6	72	-7.9	0	0	989.9	NA	0.0000		9999	7550	0	0	0
2017/06/11 10:38:00	BASE	3.36	118	3.96	90	-3.5	72	-7.9	0	0	989.8	NA	0.0000		9999	7480	0	0	0
2017/06/11 10:39:00	BASE	3.12	127	3.96	90	-3.5	72	-7.8	0	0	989.9	NA	0.0000		9999	4360	7480	0	0
2017/06/11 10:40:00	BASE	3.16	131	3.96	90	-3.4	72	-7.8	0	0	989.9	NA	0.0000		9999	3900	4530	7510	0
2017/06/11 10:41:00	BASE	3.25	128	3.91	88	-3.4	71	-7.8	0	0	989.9	NA	0.0000		9999	3510	7480	0	0
2017/06/11 10:42:00	BASE	3.11	121	3.86	116	-3.3	71	-7.8	0	0	990.0	NA	0.0000		9999	4590	7450	0	0
2017/06/11 10:43:00	BASE	2.96	116	3.86	116	-3.3	71	-7.8	0	0	990.0	NA	0.0000		9999	7220	0	0	0
2017/06/11 10:44:00	BASE	2.87	111	3.86	116	-3.3	71	-7.8	0	0	990.1	NA	0.0000		9999	4490	7280	0	0
2017/06/11 10:45:00	BASE	2.57	104	3.86	116	-3.3	71	-7.8	0	0	990.1	NA	0.0000		9999	4560	0	0	0
2017/06/11 10:46:00	BASE	2.62	93	3.86	116	-3.4	71	-7.9	0	0	990.1	NA	0.0000		9999	4460	7610	0	0
2017/06/11 10:47:00	BASE	2.58	90	3.60	126	-3.4	71	-7.9	0	0	990.1	NA	0.0000		9999	4460	0	0	0
2017/06/11 10:48:00	BASE	2.19	93	3.60	126	-3.5	71	-7.9	0	0	990.1	NA	0.0000		9999	4400	7510	0	0
2017/06/11 10:49:00	BASE	2.28	93	3.60	126	-3.5	72	-7.9	0	0	990.1	NA	0.0000		9999	4560	7640	0	0
2017/06/11 10:50:00	BASE	2.41	92	3.60	126	-3.6	72	-7.9	0	0	990.1	NA	0.0000		9999	3900	4660	7680	0
2017/06/11 10:51:00	BASE	2.23	95	3.29	82	-3.6	72	-7.9	0	0	990.1	NA	0.0000		9999	3710	4690	7510	0
2017/06/11 10:52:00	BASE	1.72	109	3.29	82	-3.5	72	-7.8	0	0	990.1	NA	0.0000		9999	4590	7550	0	0
2017/06/11 10:53:00	BASE	1.08	127	3.29	82	-3.5	72	-7.8	0	0	990.1	NA	0.0000		9999	4460	7550	0	0
2017/06/11 10:54:00	BASE	0.39	135	3.29	82	-3.4	72	-7.7	0	0	990.1	NA	0.0000		9999	4330	7510	0	0
2017/06/11 10:55:00	BASE	0.00	132	3.29	82	-3.4	72	-7.7	0	0	990.1	NA	0.0000		9999	4360	7480	0	0
2017/06/11 10:56:00	BASE	0.00	129	2.78	91	-3.4	72	-7.7	0	0	990.1	NA	0.0000		9999	4400	7450	0	0
2017/06/11 10:57:00	BASE	0.00	82	2.78	91	-3.4	72	-7.7	0	0	990.2	NA	0.0000		9999	4360	7420	0	0
2017/06/11 10:58:00	BASE	0.00	18	2.78	91	-3.4	72	-7.7	0	0	990.2	NA	0.0000		9999	4300	7420	0	0
2017/06/11 10:59:00	BASE	0.33	5	2.78	91	-3.4	72	-7.7	0	0	990.2	NA	0.0000		9999	4270	7420	0	0
2017/06/11 11:00:00	BASE	1.03	5	2.21	118	-3.4	72	-7.7	0	0	990.2	NA	0.0000		9999	4400	7420	0	0
2017/06/11 11:01:00	BASE	1.52	14	2.11	118	-3.4	72	-7.7	0	0	990.2	NA	0.0000		9999	4400	7420	0	0
2017/06/11 11:02:00	BASE	1.66	18	1.85	20	-3.4	72	-7.7	0	0	990.2	NA	0.0000		9999	4330	7420	0	0
2017/06/11 11:03:00	BASE	1.55	22	1.85	20	-3.4	72	-7.7	0	0	990.2	NA	0.0000		9999	4360	7420	0	0
2017/06/11 11:04:00	BASE	1.27	23	1.85	20	-3.4	72	-7.7	0	0	990.2	NA	0.0000		9999	4330	7380	0	0
2017/06/11 11:05:00	BASE	0.91	21	1.85	20	-3.4	72	-7.7	0	0	990.2	NA	0.0000		9999	4230	7450	0	0
2017/06/11 11:06:00	BASE	1.08	20	1.85	20	-3.4	72	-7.6	0	0	990.3	NA	0.0000		9999	4330	7510	0	0
2017/06/11 11:07:00	BASE	1.58	19	1.85	11	-3.4	73	-7.6	0	0	990.3	NA	0.0000		9999	4400	7550	0	0
2017/06/11 11:08:00	BASE	1.72	19	1.90	17	-3.4	73	-7.5	0	0	990.3	NA	0.0000		9999	4400	7510	0	0
2017/06/11 11:09:00	BASE	1.74	14	1.95	13	-3.4	73	-7.5	0	0	990.3	NA	0.0000		9999	4270	7510	0	0
2017/06/11 11:10:00	BASE	1.59	6	1.95	13	-3.4	73	-7.5	0	0	990.4	NA	0.0000		9999	4300	7450	0	0
2017/06/11 11:11:00	BASE	0.71	1	1.95	13	-3.4	73	-7.5	0	0	990.4	NA	0.0000		9999	4330	7450	0	0
2017/06/11 11:12:00	BASE	0.00	350	1.95	13	-3.4	74	-7.5	0	0	990.4	NA	0.0000		9999	4300	7480	0	0
2017/06/11 11:13:00	BASE	0.00	343	1.95	13	-3.4	74	-7.4	0	0	990.3	NA	0.0000		9999	4270	7510	0	0
2017/06/11 11:14:00	BASE	0.45	157	1.95	13	-3.3	74	-7.3	0	0	990.3	NA	0.0000		9999	4200	0	0	0
2017/06/11 11:15:00	BASE	1.33	160	2.06	155	-3.2	73	-7.3	0	0	990.3	NA	0.0000		9999	4270	0	0	0
2017/06/11 11:16:00	BASE	1.81	159	2.16	172	-3.1	73	-7.2	0	0	990.3	NA	0.0000		9999	4330	0	0	0
2017/06/11 11:17:00	BASE	1.75	166	2.16	172	-3.0	73	-7.2	0	0	990.3	NA	0.0000		9999	4230	7510	0	0
2017/06/11 11:18:01	BASE	1.28	176	2.16	172	-3.0	73	-7.3	0	0	990.4	NA	0.0000		9999	4230	0	0	0
2017/06/11 11:19:00	BASE	0.91	149	2.16	172	-3.1	72	-7.3	0	0	990.4	NA	0.0000		9999	4430	0	0	0
2017/06/11 11:20:00	BASE	1.17	30	2.16	172	-3.2	72	-7.4	0	0	990.4	NA	0.0000		9999	4200	0	0	0
2017/06/11 11:21:00	BASE	1.47	24	2.16	172	-3.3	72	-7.5	0	0	990.4	NA	0.0000		9999	4170	0	0	0
2017/06/11 11:22:00	BASE	1.37	14	2.16	172	-3.4	73	-7.6	0	0	990.4	NA	0.0000		9999	5540	0	0	0
2017/06/11 11:23:00	BASE	0.89	351	2.16	172	-3.4	73	-7.6	0	0	990.4	NA	0.0000		9999	5510	0	0	0
2017/06/11 11:24:00	BASE	0.27	328	2.16	172	-3.5	74	-7.5	0	0	990.4	NA	0.0000		9999	5410	0	0	0
2017/06/11 11:25:00	BASE	0.00	290	2.16	172	-3.4	74	-7.4	0	0	990.4	NA	0.0000		9999	4130	0	0	0
2017/06/11 11:26:00	BASE	0.09	238	1.90	23	-3.3	74	-7.2	0	0	990.4	NA	0.0000		9999	5480	0	0	0
2017/06/11 11:27:00	BASE	0.67	216	1.90	23	-3.2	74	-7.2	0	0	990.3	NA	0.0000		9999	5090	0	0	0
2017/06/11 11:28:00	BASE	1.19	217	1.90	23	-3.2	74	-7.1	0	0	990.3	NA	0.0000		9999	4230	0	0	0
2017/06/11 11:29:00	BASE	1.14	219	1.90	23	-3.2	74	-7.1	0	0	990.3	NA	0.0000		9999	4360	0	0	0
2017/06/11 11:30:00	BASE	1.11	221	1.90	23	-3.2	74	-7.1	0	0	990.3	NA	0.0000		9999	5180	0	0	0
2017/06/11 11:31:00	BASE	1.18	224	1.44	5	-3.2	74	-7.2	0	0	990.3	NA	0.0000		9999	4990	0	0	0
2017/06/11 11:32:00	BASE	1.16	226	1.44	237	-3.3	74	-7.2	0	0	990.3	NA	0.0000		9999	4690	0	0	0
2017/06/11 11:33:00	BASE	1.29	234	1.54	242	-3.4	74	-7.3	0	0	990.3	NA	0.0000		9999	4860	0	0	0
2017/06/11 11:34:00	BASE	1.38	241	1.54	242	-3.4	75	-7.3	0	0	990.3	NA	0.0000		9999	4860	0	0	0
2017/06/11 11:35:00	BASE	1.41	237	1.65	224	-3.4	75	-7.3	0	0	990.3	NA	0.0000		9999	4950	0	0	0
2017/06/11 11:36:00	BASE	1.49	228	1.65	218	-3.4	75	-7.2	0	0	990.3	NA	0.0000		9999	4400	0	0	0
2017/06/11 11:37:00	BASE	1.38	220	1.65	218	-3.3	75	-7.1	0	0	990.3	NA	0.0000		9999	4660	0	0	0
2017/06/11 11:38:00	BASE	1.17	213	1.65	218	-3.2	75	-7.0	0	0	990.3	NA	0.0000		9999	4860	0	0	0
2017/06/11 11:39:00	BASE	0.62	203	1.65	218	-3.2	75	-7.0	0	0	990.4	NA	0.0000		9999	4720	0	0	0
2017/06/11 11:40:00	BASE	0.13	184	1.65	218	-3.1	75	-6.9	0	0	990.4	NA	0.0000		9999	4490	0	0	0
2017/06/11 11:41:00	BASE	0.40	155	1.65	218	-3.2	75	-7.0	0	0	990.4	NA	0.0000		9999	0	0	0	0
2017/06/11 11:42:00	BASE	1.00	131	1.65	218	-3.3	75	-7.1	0	0	990.4	NA	0.0000		9999	3740	0	0	0
2017/06/11 11:43:00	BASE	1.35	130	1.65	141	-3.4	75	-7.2	0	0	990.4	NA	0.0000		9999	4270	0	0	0
2017/06/11 11:44:00	BASE	1.36	140	1.65	141	-3.5	75	-7.3	0	0	990.4	NA	0.0000		9999	4560	0	0	0
2017/06/11 11:45:00	BASE	1.49	160	2.21	182	-3.5	75	-7.3	0	0	990.4	NA	0.0000		9999	4790	0	0	0
2017/06/11 11:46:00	BASE	1.05	183	2.21	182	-3.4	75	-7.2	0	0	990.4	NA	0.0000		9999	4890	0	0	0
2017/06/11 11:47:00	BASE	1.00	181	2.21	182	-3.3	76	-7.0	0	0	990.4	NA	0.0000		9999	4790	0	0	0
2017/06/11 11:48:00	BASE	1.73	177	2.31	176	-3.1	76	-6.9	0	0	990.4	NA	0.0000		9999	3610	0	0	0
2017/06/11 11:49:00	BASE	2.28	177	2.98	180	-3.0	75	-6.8	0	0	990.4	NA	0.0000		9999	4950	0	0	0
2017/06/11 11:50:00	BASE	2.47	169	2.98	180	-2.9	75	-6.7	0	0	990.4	NA	0.0000		9999	4560	0	0	0
2017/06/11 11:51:00	BASE	2.16	156	2.98	180	-3.0	75	-6.7	0	0	990.4	NA	0.0000		9999	0	0	0	0
2017/06/11 11:52:00	BASE	1.83	152	2.98	180	-3.0	75	-6.8	0	0	990.4	NA	0.0000		9999	4760	0	0	0
2017/06/11 11:53:00	BASE	1.67	152	2.98	180	-3.1	75	-6.8	0	0	990.4	NA	0.0000		9999	4690	0	0	0
2017/06/11 11:54:00	BASE	2.09	145	2.98	180	-3.2	75	-6.9	0	0	990.4	NA	0.0000		9999	4660	0	0	0
2017/06/11 11:55:00	BASE	2.51	137	2.98	180	-3.3	76	-6.9	0	0	990.4	NA	0.0000		9999	0	0	0	0
2017/06/11 11:56:00	BASE	2.43	129	2.98	180	-3.3	76	-6.9	0	0	990.4	NA	0.0000		9999	0	0	0	0
2017/06/11 11:57:00	BASE	2.43	118	2.98	180	-3.3	76	-6.9	0	0	990.4	NA	0.0000		9999	0	0	0	0
2017/06/11 11:58:00	BASE	2.66	114	3.09	125	-3.4	76	-7.0	0	0	990.4	NA	0.0000		9999	0	0	0	0
2017/06/11 11:59:00	BASE	2.83	118	3.09	125	-3.3	76	-6.9	0	0	990.4	NA	0.0000		9999	0	0	0	0
2017/06/11 12:00:00	BASE	2.82	121	3.09	125	-3.3	76	-6.8	0	0	990.4	NA	0.0000		9999	0	0	0	0
2017/06/11 12:01:00	BASE	2.69	124	3.09	125	-3.2	77	-6.7	0	0	990.4	NA	0.0000		9999	0	0	0	0
2017/06/11 12:02:00	BASE	2.29	127	3.09	125	-3.1	77	-6.7	0	0	990.4	NA	0.0000		9999	0	0	0	0
2017/06/11 12:03:00	BASE	1.87	120	3.09	125	-3.1	77	-6.6	0	0	990.4	NA	0.0000		9999	0	0	0	0
2017/06/11 12:04:00	BASE	1.73	107	3.09	125	-3.1	77	-6.6	0	0	990.4	NA	0.0000		9999	0	0	0	0
2017/06/11 12:05:00	BASE	1.76	95	3.09	125	-3.1	77	-6.6	0	0	990.4	NA	0.0000		9999	0	0	0	0
2017/06/11 12:06:00	BASE	1.88	94	3.09	125	-3.2	77	-6.7	0	0	990.4	NA	0.0000		9999	0	0	0	0
2017/06/11 12:07:00	BASE	1.95	99	3.09	125	-3.2	77	-6.7	0	0	990.4	NA	0.0000		9999	0	0	0	0
2017/06/11 12:08:00	BASE	2.04	101	3.09	125	-3.3	77	-6.7	0	0	990.4	NA	0.0000		9999	0	0	0	0
2017/06/11 12:09:00	BASE	1.91	100	3.04	127	-3.3	77	-6.7	0	0	990.4	NA	0.0000		9999	0	0	0	0
2017/06/11 12:10:00	BASE	1.61	96	2.88	121	-3.2	77	-6.6	0	0	990.5	NA	0.0000		9999	0	0	0	0
2017/06/11 12:11:00	BASE	1.35	90	2.37	128	-3.2	78	-6.5	0	0	990.5	NA	0.0000		9999	0	0	0	0
2017/06/11 12:12:00	BASE	0.91	88	2.31	101	-3.1	78	-6.4	0	0	990.5	NA	0.0000		9999	0	0	0	0
2017/06/11 12:13:00	BASE	0.28	99	2.31	101	-3.0	78	-6.3	0	0	990.4	NA	0.0000		9999	0	0	0	0
2017/06/11 12:14:00	BASE	0.00	104	2.31	101	-3.0	78	-6.3	0	0	990.5	NA	0.0000		9999	0	0	0	0
2017/06/11 12:15:00	BASE	0.74	66	2.31	101	-3.0	78	-6.4	0	0	990.5	NA	0.0000		9999	0	0	0	0
2017/06/11 12:16:00	BASE	1.70	43	2.31	55	-3.1	77	-6.5	0	0	990.5	NA	0.0000		9999	0	0	0	0
2017/06/11 12:17:00	BASE	1.67	41	2.31	55	-3.2	77	-6.6	0	0	990.5	NA	0.0000		9999	0	0	0	0
2017/06/11 12:18:00	BASE	1.29	23	2.31	55	-3.3	77	-6.7	0	0	990.5	NA	0.0000		9999	0	0	0	0
2017/06/11 12:19:00	BASE	1.09	7	2.31	55	-3.3	78	-6.7	0	0	990.5	NA	0.0000		9999	0	0	0	0
2017/06/11 12:20:00	BASE	1.22	354	2.31	55	-3.3	78	-6.6	0	0	990.5	NA	0.0000		9999	0	0	0	0
2017/06/11 12:21:00	BASE	1.59	349	2.31	55	-3.3	78	-6.6	0	0	990.5	NA	0.0000		9999	0	0	0	0
2017/06/11 12:22:00	BASE	1.80	350	2.31	55	-3.3	78	-6.6	0	0	990.5	NA	0.0000		9999	0	0	0	0
2017/06/11 12:23:00	BASE	1.71	347	2.31	55	-3.3	78	-6.6	0	0	990.5	NA	0.0000		9999	0	0	0	0
2017/06/11 12:24:00	BASE	1.55	340	2.31	55	-3.3	78	-6.6	0	0	990.5	NA	0.0000		9999	0	0	0	0
2017/06/11 12:25:00	BASE	1.61	331	2.31	55	-3.3	78	-6.6	0	0	990.5	NA	0.0000		9999	7250	0	0	0
2017/06/11 12:26:00	BASE	1.80	326	2.31	323	-3.4	79	-6.5	0	0	990.5	NA	0.0000		9999	0	0	0	0
2017/06/11 12:27:00	BASE	2.41	323	3.29	331	-3.4	79	-6.5	0	0	990.5	NA	0.0000		9999	0	0	0	0
2017/06/11 12:28:00	BASE	2.84	321	3.45	331	-3.4	79	-6.5	0	0	990.5	NA	0.0000		9999	0	0	0	0
2017/06/11 12:29:00	BASE	2.51	314	3.45	331	-3.4	79	-6.5	0	0	990.5	NA	0.0000		9999	0	0	0	0
2017/06/11 12:30:00	BASE	1.97	303	3.45	331	-3.3	79	-6.5	0	0	990.5	NA	0.0000		9999	0	0	0	0
2017/06/11 12:31:00	BASE	1.94	298	3.45	331	-3.3	78	-6.5	0	0	990.5	NA	0.0000		9999	0	0	0	0
2017/06/11 12:32:00	BASE	2.65	313	3.60	342	-3.3	78	-6.6	0	0	990.5	NA	0.0000		9999	6170	0	0	0
2017/06/11 12:33:00	BASE	3.60	340	4.58	347	-3.4	77	-6.8	0	0	990.5	NA	0.0000		9999	6100	0	0	0
2017/06/11 12:34:00	BASE	3.84	355	4.58	347	-3.6	76	-7.2	0	0	990.5	NA	0.0000		9999	6000	0	0	0
2017/06/11 12:35:00	BASE	2.65	10	4.58	347	-3.8	75	-7.5	0	0	990.5	NA	0.0000		9999	6140	0	0	0
2017/06/11 12:36:00	BASE	1.01	20	4.58	347	-3.9	74	-7.9	0	0	990.5	NA	0.0000		9999	6100	0	0	0
2017/06/11 12:37:00	BASE	1.09	17	4.58	347	-4.0	72	-8.3	0	0	990.5	NA	0.0000		9999	5810	0	0	0
2017/06/11 12:38:00	BASE	2.49	22	4.58	347	-4.0	71	-8.5	0	0	990.5	NA	0.0000		9999	6170	0	0	0
2017/06/11 12:39:00	BASE	3.27	35	4.58	347	-4.0	71	-8.6	0	0	990.5	NA	0.0000		9999	6230	0	0	0
2017/06/11 12:40:00	BASE	3.65	36	4.58	347	-4.1	70	-8.7	0	0	990.5	NA	0.0000		9999	6270	0	0	0
2017/06/11 12:41:00	BASE	3.40	27	4.58	347	-4.2	70	-8.8	0	0	990.5	NA	0.0000		9999	6300	0	0	0
2017/06/11 12:42:00	BASE	3.34	31	4.63	41	-4.2	71	-8.7	0	0	990.5	NA	0.0000		9999	0	0	0	0
2017/06/11 12:43:00	BASE	3.65	33	4.63	41	-4.2	71	-8.7	0	0	990.5	NA	0.0000		9999	0	0	0	0
2017/06/11 12:44:00	BASE	3.96	25	5.45	19	-4.2	71	-8.7	0	0	990.5	NA	0.0000		9999	0	0	0	0
2017/06/11 12:45:00	BASE	4.98	25	6.28	25	-4.2	70	-8.8	0	0	990.5	NA	0.0000		9999	6300	0	0	0
2017/06/11 12:46:00	BASE	5.26	29	6.28	25	-4.2	70	-8.8	0	0	990.5	NA	0.0000		9999	6270	0	0	0
2017/06/11 12:47:00	BASE	4.45	44	6.28	25	-4.2	70	-8.9	0	0	990.5	NA	0.0000		9999	6300	0	0	0
2017/06/11 12:48:00	BASE	3.79	53	6.28	25	-4.2	69	-9.0	0	0	990.5	NA	0.0000		9999	6230	0	0	0
2017/06/11 12:49:00	BASE	3.44	49	6.28	25	-4.3	69	-9.1	0	0	990.5	NA	0.0000		9999	6330	0	0	0
2017/06/11 12:50:00	BASE	3.97	53	6.28	25	-4.3	69	-9.2	0	0	990.5	NA	0.0000		9999	6400	0	0	0
2017/06/11 12:51:00	BASE	4.50	64	6.28	25	-4.3	69	-9.2	0	0	990.5	NA	0.0000		9999	0	0	0	0
2017/06/11 12:52:00	BASE	4.20	70	6.28	25	-4.3	68	-9.2	0	0	990.5	NA	0.0000		9999	6100	0	0	0
2017/06/11 12:53:00	BASE	4.33	71	6.28	25	-4.2	68	-9.2	0	0	990.5	NA	0.0000		9999	6140	0	0	0
2017/06/11 12:54:00	BASE	3.83	76	6.28	25	-4.1	68	-9.2	0	0	990.5	NA	0.0000		9999	6330	0	0	0
2017/06/11 12:55:00	BASE	3.40	83	5.97	29	-4.0	68	-9.1	0	0	990.5	NA	0.0000		9999	6330	0	0	0
2017/06/11 12:56:00	BASE	3.47	89	5.92	66	-4.0	68	-9.0	0	0	990.5	NA	0.0000		9999	0	0	0	0
2017/06/11 12:57:00	BASE	3.00	100	5.92	66	-3.9	68	-8.9	0	0	990.5	NA	0.0000		9999	0	0	0	0
2017/06/11 12:58:00	BASE	2.79	119	5.92	66	-3.9	69	-8.8	0	0	990.5	NA	0.0000		9999	0	0	0	0
2017/06/11 12:59:00	BASE	2.60	131	5.92	66	-3.8	69	-8.7	0	0	990.5	NA	0.0000		9999	0	0	0	0
2017/06/11 13:00:00	BASE	2.77	135	5.30	75	-3.8	69	-8.7	0	0	990.5	NA	0.0000		9999	0	0	0	0
2017/06/11 13:01:00	BASE	3.26	138	5.30	75	-3.8	69	-8.6	0	0	990.6	NA	0.0000		9999	0	0	0	0
2017/06/11 13:02:00	BASE	3.28	137	5.30	75	-3.8	69	-8.6	0	0	990.6	NA	0.0000		9999	0	0	0	0
2017/06/11 13:03:00	BASE	2.84	137	4.37	84	-3.7	69	-8.6	0	0	990.7	NA	0.0000		9999	6790	0	0	0
2017/06/11 13:04:00	BASE	2.55	131	4.37	84	-3.6	69	-8.5	0	0	990.7	NA	0.0000		9999	6730	0	0	0
2017/06/11 13:05:00	BASE	2.76	119	4.12	88	-3.6	69	-8.4	0	0	990.8	NA	0.0000		9999	6730	0	0	0
2017/06/11 13:06:00	BASE	3.16	109	4.06	131	-3.5	69	-8.3	0	0	990.8	NA	0.0000		9999	6730	0	0	0
2017/06/11 13:07:00	BASE	3.84	99	4.94	96	-3.4	70	-8.2	0	0	990.8	NA	0.0000		9999	6660	0	0	0
2017/06/11 13:08:00	BASE	4.35	93	4.99	97	-3.4	70	-8.1	0	0	990.8	NA	0.0000		9999	6690	0	0	0
2017/06/11 13:09:00	BASE	4.68	84	5.86	73	-3.4	70	-8.0	0	0	990.9	NA	0.0000		9999	6690	0	0	0
2017/06/11 13:10:00	BASE	4.19	76	5.86	73	-3.4	71	-8.0	0	0	990.9	NA	0.0000		9999	6730	0	0	0
2017/06/11 13:11:00	BASE	2.95	67	5.86	73	-3.4	71	-7.9	0	0	990.9	NA	0.0000		9999	6660	0	0	0
2017/06/11 13:12:00	BASE	2.81	71	5.86	73	-3.5	71	-7.9	0	0	990.9	NA	0.0000		9999	6630	0	0	0
2017/06/11 13:13:00	BASE	3.06	82	5.86	73	-3.6	71	-8.1	0	0	990.9	NA	0.0000		9999	6530	0	0	0
2017/06/11 13:14:00	BASE	3.00	51	5.86	73	-3.6	71	-8.1	0	0	991.0	NA	0.0000		9999	6590	0	0	0
2017/06/11 13:15:00	BASE	3.09	20	5.86	73	-3.6	71	-8.1	0	0	991.0	NA	0.0000		9999	6630	0	0	0
2017/06/11 13:16:00	BASE	3.67	17	5.86	73	-3.5	71	-8.0	0	0	990.9	NA	0.0000		9999	6730	0	0	0
2017/06/11 13:17:00	BASE	3.80	22	5.86	73	-3.5	71	-8.0	0	0	991.0	NA	0.0000		9999	6760	0	0	0
2017/06/11 13:18:00	BASE	3.32	27	5.86	73	-3.3	71	-7.9	0	0	990.9	NA	0.0000		9999	6760	0	0	0
2017/06/11 13:19:00	BASE	3.15	43	5.30	75	-3.3	71	-7.8	0	0	990.9	NA	0.0000		9999	6760	0	0	0
2017/06/11 13:20:00	BASE	2.72	61	4.89	24	-3.3	70	-7.9	0	0	990.9	NA	0.0000		9999	6660	0	0	0
2017/06/11 13:21:00	BASE	2.92	52	4.89	24	-3.3	70	-8.0	0	0	990.9	NA	0.0000		9999	6730	0	0	0
2017/06/11 13:22:00	BASE	3.30	33	4.89	24	-3.4	70	-8.2	0	0	990.9	NA	0.0000		9999	6660	0	0	0
2017/06/11 13:23:00	BASE	2.89	41	4.89	24	-3.5	69	-8.5	0	0	990.9	NA	0.0000		9999	6040	0	0	0
2017/06/11 13:24:00	BASE	2.80	59	4.89	24	-3.6	68	-8.7	0	0	990.9	NA	0.0000		9999	6760	0	0	0
2017/06/11 13:25:00	BASE	3.15	68	4.89	24	-3.7	66	-9.0	0	0	990.9	NA	0.0000		9999	6790	0	0	0
2017/06/11 13:26:00	BASE	3.44	76	4.53	30	-3.8	65	-9.3	0	0	990.9	NA	0.0000		9999	6070	0	0	0
2017/06/11 13:27:00	BASE	2.83	83	4.53	30	-3.8	64	-9.5	0	0	990.9	NA	0.0000		9999	5970	0	0	0
2017/06/11 13:28:00	BASE	1.76	87	4.53	30	-3.8	64	-9.6	0	1	990.9	NA	0.0000		9999	5970	0	0	0
2017/06/11 13:29:00	BASE	0.75	67	4.53	30	-3.8	63	-9.8	0	1	990.9	NA	0.0000		9999	5510	0	0	0
2017/06/11 13:30:00	BASE	1.03	30	4.53	30	-3.9	63	-9.9	0	1	990.9	NA	0.0000		9999	5610	0	0	0
2017/06/11 13:31:00	BASE	2.13	24	3.81	82	-3.9	62	-10.0	0	1	990.9	NA	0.0000		9999	5410	0	0	0
2017/06/11 13:32:00	BASE	2.19	36	3.81	82	-3.9	62	-10.1	1	1	990.9	NA	0.0000		9999	6820	0	0	0
2017/06/11 13:33:00	BASE	2.08	52	3.81	82	-3.8	62	-10.0	1	1	990.9	NA	0.0000		9999	6790	0	0	0
2017/06/11 13:34:00	BASE	1.88	54	3.81	82	-3.7	62	-9.9	1	1	990.9	NA	0.0000		9999	5770	0	0	0
2017/06/11 13:35:00	BASE	1.02	53	3.81	82	-3.6	63	-9.7	1	1	990.9	NA	0.0000		9999	5540	0	0	0
2017/06/11 13:36:00	BASE	0.23	52	2.93	26	-3.5	63	-9.5	1	1	990.9	NA	0.0000		9999	0	0	0	0
2017/06/11 13:37:00	BASE	0.44	56	2.93	26	-3.4	63	-9.4	1	1	990.9	NA	0.0000		9999	0	0	0	0
2017/06/11 13:38:00	BASE	1.04	56	2.93	26	-3.3	63	-9.4	1	1	990.9	NA	0.0000		9999	5320	0	0	0
2017/06/11 13:39:00	BASE	1.25	32	2.93	26	-3.3	62	-9.6	1	1	990.9	NA	0.0000		9999	5810	0	0	0
2017/06/11 13:40:00	BASE	0.94	6	2.93	26	-3.5	61	-9.9	1	1	990.9	NA	0.0000		9999	0	0	0	0
2017/06/11 13:41:00	BASE	0.39	349	2.83	53	-3.8	61	-10.2	1	2	990.8	NA	0.0000		9999	0	0	0	0
2017/06/11 13:42:00	BASE	0.04	13	2.62	47	-3.9	60	-10.5	1	2	990.8	NA	0.0000		9999	0	0	0	0
2017/06/11 13:43:00	BASE	0.00	88	2.01	33	-4.0	60	-10.7	1	2	990.8	NA	0.0000		9999	0	0	0	0
2017/06/11 13:44:00	BASE	0.00	141	2.01	33	-4.0	60	-10.7	1	2	990.8	NA	0.0000		9999	0	0	0	0
2017/06/11 13:45:00	BASE	0.59	151	2.01	33	-3.9	60	-10.5	1	2	990.8	NA	0.0000		9999	0	0	0	0
2017/06/11 13:46:00	BASE	1.26	139	2.01	33	-3.8	60	-10.4	1	2	990.8	NA	0.0000		9999	0	0	0	0
2017/06/11 13:47:00	BASE	1.52	127	2.01	33	-3.9	61	-10.3	1	2	990.9	NA	0.0000		9999	0	0	0	0
2017/06/11 13:48:00	BASE	1.74	116	2.06	111	-4.0	61	-10.3	1	3	990.9	NA	0.0000		9999	0	0	0	0
2017/06/11 13:49:00	BASE	2.09	111	2.68	118	-4.1	62	-10.3	1	3	990.9	NA	0.0000		9999	0	0	0	0
2017/06/11 13:50:00	BASE	2.66	116	3.14	136	-4.3	63	-10.4	2	3	990.9	NA	0.0000		9999	0	0	0	0
2017/06/11 13:51:00	BASE	3.05	126	3.34	128	-4.4	64	-10.3	2	3	990.9	NA	0.0000		9999	6690	0	0	0
2017/06/11 13:52:00	BASE	3.06	128	3.34	128	-4.4	65	-10.0	2	3	990.9	NA	0.0000		9999	6660	0	0	0
2017/06/11 13:53:00	BASE	2.83	122	3.34	128	-4.3	67	-9.6	2	3	991.0	NA	0.0000		9999	6630	0	0	0
2017/06/11 13:54:00	BASE	2.89	116	3.45	113	-4.1	68	-9.1	2	3	991.0	NA	0.0000		9999	6590	0	0	0
2017/06/11 13:55:00	BASE	3.08	116	3.45	113	-3.8	70	-8.6	2	3	991.0	NA	0.0000		9999	6560	0	0	0
2017/06/11 13:56:00	BASE	3.16	117	3.60	115	-3.6	71	-8.2	2	3	991.0	NA	0.0000		9999	6560	0	0	0
2017/06/11 13:57:00	BASE	3.30	120	4.01	121	-3.5	72	-7.8	2	4	991.0	NA	0.0000		9999	6560	0	0	0
2017/06/11 13:58:01	BASE	3.30	127	4.01	121	-3.4	73	-7.6	2	4	991.0	NA	0.0000		9999	6630	0	0	0
2017/06/11 13:59:00	BASE	3.21	132	4.01	121	-3.3	73	-7.4	2	4	991.0	NA	0.0000		9999	6630	0	0	0
2017/06/11 14:00:00	BASE	2.96	128	4.01	121	-3.3	74	-7.3	2	4	991.0	NA	0.0000		9999	6660	0	0	0
2017/06/11 14:01:00	BASE	2.54	116	4.01	121	-3.3	74	-7.2	3	4	991.0	NA	0.0000		9999	6630	0	0	0
2017/06/11 14:02:00	BASE	2.25	106	4.01	121	-3.4	74	-7.3	3	5	991.0	NA	0.0000		9999	6590	0	0	0
2017/06/11 14:03:00	BASE	2.12	101	4.01	121	-3.4	75	-7.3	3	5	991.0	NA	0.0000		9999	6590	0	0	0
2017/06/11 14:04:00	BASE	1.93	99	4.01	121	-3.5	75	-7.3	3	5	991.0	NA	0.0000		9999	4860	0	0	0
2017/06/11 14:05:00	BASE	1.90	104	4.01	121	-3.5	75	-7.2	3	5	991.0	NA	0.0000		9999	4920	0	0	0
2017/06/11 14:06:00	BASE	2.01	108	4.01	121	-3.5	76	-7.2	3	6	991.0	NA	0.0000		9999	4990	0	0	0
2017/06/11 14:07:00	BASE	1.94	106	3.50	128	-3.5	76	-7.1	3	6	991.0	NA	0.0000		9999	5250	0	0	0
2017/06/11 14:08:00	BASE	1.94	99	3.40	134	-3.5	76	-7.1	3	6	991.0	NA	0.0000		9999	5150	0	0	0
2017/06/11 14:09:00	BASE	2.00	93	3.09	127	-3.5	76	-7.1	3	6	991.0	NA	0.0000		9999	5180	0	0	0
2017/06/11 14:10:00	BASE	2.10	84	2.57	111	-3.6	76	-7.1	3	7	991.0	NA	0.0000		9999	5250	0	0	0
2017/06/11 14:11:00	BASE	2.24	72	2.52	56	-3.6	77	-7.2	3	7	991.0	NA	0.0000		9999	5480	0	0	0
2017/06/11 14:12:00	BASE	2.22	56	2.52	56	-3.7	77	-7.1	4	7	991.0	NA	0.0000		9999	5480	0	0	0
2017/06/11 14:13:00	BASE	2.19	48	2.52	56	-3.6	77	-7.1	4	7	991.1	NA	0.0000		9999	5280	0	0	0
2017/06/11 14:14:00	BASE	2.29	44	2.52	56	-3.7	77	-7.1	4	7	991.2	NA	0.0000		9999	5220	0	0	0
2017/06/11 14:15:00	BASE	2.32	37	2.52	56	-3.7	77	-7.2	4	8	991.2	NA	0.0000		9999	5320	0	0	0
2017/06/11 14:16:00	BASE	2.03	30	2.52	56	-3.6	77	-7.2	4	8	991.2	NA	0.0000		9999	5610	0	0	0
2017/06/11 14:17:00	BASE	1.70	27	2.52	56	-3.6	76	-7.2	4	8	991.2	NA	0.0000		9999	5740	0	0	0
2017/06/11 14:18:00	BASE	1.88	24	2.52	6	-3.6	76	-7.2	4	9	991.2	NA	0.0000		9999	5350	0	0	0
2017/06/11 14:19:00	BASE	2.29	14	2.73	10	-3.6	77	-7.1	4	9	991.2	NA	0.0000		9999	5580	0	0	0
2017/06/11 14:20:00	BASE	2.80	11	3.34	14	-3.6	77	-7.1	4	9	991.2	NA	0.0000		9999	5680	0	0	0
2017/06/11 14:21:00	BASE	3.04	11	3.34	14	-3.7	77	-7.2	5	10	991.2	NA	0.0000		9999	6430	0	0	0
2017/06/11 14:22:00	BASE	2.76	9	3.34	14	-3.7	77	-7.2	5	10	991.2	NA	0.0000		9999	4860	6370	0	0
2017/06/11 14:23:00	BASE	2.37	5	3.34	14	-3.7	76	-7.3	5	10	991.2	NA	0.0000		9999	4590	6400	0	0
2017/06/11 14:24:00	BASE	2.19	2	3.34	14	-3.7	76	-7.4	5	11	991.2	NA	0.0000		9999	4760	6400	0	0
2017/06/11 14:25:00	BASE	2.24	358	3.34	14	-3.7	75	-7.5	5	11	991.2	NA	0.0000		9999	6460	0	0	0
2017/06/11 14:26:00	BASE	2.23	354	3.34	14	-3.7	75	-7.5	5	11	991.2	NA	0.0000		9999	4950	6430	0	0
2017/06/11 14:27:00	BASE	2.19	357	3.34	14	-3.7	74	-7.6	5	11	991.1	NA	0.0000		9999	6430	0	0	0
2017/06/11 14:28:00	BASE	2.08	4	3.34	14	-3.7	74	-7.7	6	12	991.2	NA	0.0000		9999	6400	0	0	0
2017/06/11 14:29:00	BASE	1.83	13	3.34	14	-3.7	73	-7.8	6	12	991.2	NA	0.0000		9999	6400	0	0	0
2017/06/11 14:30:00	BASE	1.44	29	3.14	13	-3.7	72	-7.9	6	12	991.2	NA	0.0000		9999	6370	0	0	0
2017/06/11 14:31:00	BASE	1.28	23	2.73	35	-3.7	72	-8.0	6	13	991.2	NA	0.0000		9999	6330	0	0	0
2017/06/11 14:32:00	BASE	0.80	13	2.62	3	-3.7	72	-8.1	6	13	991.2	NA	0.0000		9999	6330	0	0	0
2017/06/11 14:33:00	BASE	0.15	19	2.62	3	-3.6	71	-8.1	6	13	991.2	NA	0.0000		9999	6300	0	0	0
2017/06/11 14:34:00	BASE	0.30	27	2.62	3	-3.6	71	-8.0	7	14	991.2	NA	0.0000		9999	6170	0	0	0
2017/06/11 14:35:00	BASE	0.95	28	2.62	3	-3.5	71	-8.0	7	14	991.2	NA	0.0000		9999	6140	0	0	0
2017/06/11 14:36:00	BASE	1.56	15	2.57	11	-3.5	71	-8.0	7	14	991.2	NA	0.0000		9999	6200	0	0	0
2017/06/11 14:37:00	BASE	1.97	11	2.98	19	-3.5	71	-8.0	7	15	991.2	NA	0.0000		9999	6200	0	0	0
2017/06/11 14:38:00	BASE	2.51	29	4.12	32	-3.5	71	-8.1	7	15	991.2	NA	0.0000		9999	6200	0	0	0
2017/06/11 14:39:00	BASE	3.45	42	4.73	41	-3.6	71	-8.2	8	16	991.2	NA	0.0000		9999	6170	0	0	0
2017/06/11 14:40:00	BASE	4.03	34	4.73	41	-3.6	70	-8.3	8	16	991.2	NA	0.0000		9999	6140	0	0	0
2017/06/11 14:41:00	BASE	3.80	26	4.73	41	-3.7	69	-8.6	8	17	991.2	NA	0.0000		9999	6100	0	0	0
2017/06/11 14:42:00	BASE	3.37	21	4.73	41	-3.7	68	-8.8	8	17	991.2	NA	0.0000		9999	6070	0	0	0
2017/06/11 14:43:00	BASE	3.16	16	4.73	41	-3.7	67	-9.0	9	17	991.2	NA	0.0000		9999	6000	0	0	0
2017/06/11 14:44:00	BASE	2.73	1	4.73	41	-3.6	66	-9.2	9	18	991.2	NA	0.0000		9999	6000	0	0	0
2017/06/11 14:45:00	BASE	2.59	10	4.73	41	-3.6	65	-9.3	9	18	991.2	NA	0.0000		9999	6040	0	0	0
2017/06/11 14:46:00	BASE	2.98	29	4.73	41	-3.6	64	-9.4	9	19	991.2	NA	0.0000		9999	5870	0	0	0
2017/06/11 14:47:00	BASE	2.91	32	4.73	41	-3.6	64	-9.4	10	19	991.2	NA	0.0000		9999	5840	0	0	0
2017/06/11 14:48:00	BASE	2.41	37	4.73	41	-3.6	64	-9.5	10	20	991.2	NA	0.0000		9999	5910	0	0	0
2017/06/11 14:49:00	BASE	2.05	49	4.42	31	-3.5	63	-9.5	10	20	991.2	NA	0.0000		9999	5970	0	0	0
2017/06/11 14:50:00	BASE	1.62	79	3.81	21	-3.5	63	-9.5	11	21	991.2	NA	0.0000		9999	6000	0	0	0
2017/06/11 14:51:00	BASE	1.01	100	3.76	25	-3.5	64	-9.4	11	21	991.2	NA	0.0000		9999	6000	0	0	0
2017/06/11 14:52:00	BASE	0.37	97	3.76	25	-3.4	64	-9.3	12	22	991.2	NA	0.0000		9999	6040	0	0	0
2017/06/11 14:53:00	BASE	0.00	78	3.76	25	-3.4	64	-9.2	12	22	991.2	NA	0.0000		9999	6040	0	0	0
2017/06/11 14:54:00	BASE	0.21	53	3.76	25	-3.5	65	-9.1	13	23	991.2	NA	0.0000		9999	6040	0	0	0
2017/06/11 14:55:00	BASE	0.59	37	3.76	25	-3.5	66	-9.0	13	23	991.2	NA	0.0000		9999	6040	0	0	0
2017/06/11 14:56:00	BASE	1.17	42	3.34	39	-3.6	66	-9.0	13	24	991.2	NA	0.0000		9999	6040	0	0	0
2017/06/11 14:57:00	BASE	1.56	43	2.98	22	-3.6	67	-8.9	13	24	991.2	NA	0.0000		9999	6000	0	0	0
2017/06/11 14:58:00	BASE	0.82	41	2.37	80	-3.6	67	-9.0	13	24	991.2	NA	0.0000		9999	5910	0	0	0
2017/06/11 14:59:00	BASE	0.05	63	2.37	80	-3.7	67	-9.0	14	24	991.2	NA	0.0000		9999	5810	0	0	0
2017/06/11 15:00:00	BASE	0.00	77	2.06	33	-3.7	67	-9.0	14	25	991.2	NA	0.0000		9999	5770	0	0	0
2017/06/11 15:01:00	BASE	0.00	72	2.06	33	-3.6	67	-8.9	14	25	991.1	NA	0.0000		9999	5740	0	0	0
2017/06/11 15:02:00	BASE	0.04	65	2.06	33	-3.6	67	-8.9	14	25	991.2	NA	0.0000		9999	5710	0	0	0
2017/06/11 15:03:00	BASE	0.27	61	2.06	33	-3.6	67	-8.8	15	26	991.2	NA	0.0000		9999	5680	0	0	0
2017/06/11 15:04:00	BASE	0.23	48	2.06	33	-3.5	67	-8.7	15	26	991.2	NA	0.0000		9999	5770	0	0	0
2017/06/11 15:05:00	BASE	0.00	33	2.06	33	-3.5	68	-8.6	15	27	991.3	NA	0.0000		9999	5810	0	0	0
2017/06/11 15:06:00	BASE	0.00	28	2.06	33	-3.4	68	-8.5	16	27	991.3	NA	0.0000		9999	5710	0	0	0
2017/06/11 15:07:00	BASE	0.00	27	1.13	56	-3.3	67	-8.5	16	27	991.3	NA	0.0000		9999	5640	0	0	0
2017/06/11 15:08:00	BASE	0.00	37	1.13	56	-3.3	67	-8.5	15	27	991.3	NA	0.0000		9999	5610	0	0	0
2017/06/11 15:09:00	BASE	0.00	104	1.13	56	-3.3	67	-8.6	16	27	991.3	NA	0.0000		9999	5610	0	0	0
2017/06/11 15:10:00	BASE	0.04	136	1.13	56	-3.3	67	-8.6	16	27	991.3	NA	0.0000		9999	5580	0	0	0
2017/06/11 15:11:00	BASE	0.13	126	1.13	56	-3.3	67	-8.6	16	28	991.3	NA	0.0000		9999	5640	0	0	0
2017/06/11 15:12:00	BASE	0.44	108	1.39	88	-3.3	67	-8.6	16	28	991.3	NA	0.0000		9999	5610	0	0	0
2017/06/11 15:13:00	BASE	1.19	91	2.06	86	-3.4	67	-8.5	17	29	991.3	NA	0.0000		9999	5580	0	0	0
2017/06/11 15:14:00	BASE	1.93	84	2.68	74	-3.4	68	-8.5	17	29	991.3	NA	0.0000		9999	5510	0	0	0
2017/06/11 15:15:00	BASE	2.11	78	2.68	74	-3.5	68	-8.5	18	30	991.3	NA	0.0000		9999	5510	0	0	0
2017/06/11 15:16:00	BASE	2.15	68	2.68	74	-3.5	69	-8.4	18	30	991.4	NA	0.0000		9999	5580	0	0	0
2017/06/11 15:17:00	BASE	2.40	55	2.68	31	-3.5	69	-8.4	19	31	991.4	NA	0.0000		9999	5640	0	0	0
2017/06/11 15:18:00	BASE	2.50	36	2.88	23	-3.6	69	-8.4	20	31	991.4	NA	0.0000		9999	5580	0	0	0
2017/06/11 15:19:00	BASE	2.18	36	3.09	50	-3.5	69	-8.4	20	32	991.4	NA	0.0000		9999	5640	0	0	0
2017/06/11 15:20:00	BASE	2.40	45	3.70	42	-3.5	68	-8.5	21	33	991.4	NA	0.0000		9999	5580	0	0	0
2017/06/11 15:21:00	BASE	3.42	45	4.48	56	-3.5	68	-8.5	21	33	991.4	NA	0.0000		9999	5610	0	0	0
2017/06/11 15:22:00	BASE	3.77	52	4.48	56	-3.5	68	-8.6	21	34	991.4	NA	0.0000		9999	5610	0	0	0
2017/06/11 15:23:00	BASE	3.50	66	4.48	56	-3.5	68	-8.6	21	34	991.4	NA	0.0000		9999	5580	0	0	0
2017/06/11 15:24:00	BASE	3.18	70	4.48	56	-3.5	68	-8.6	22	34	991.3	NA	0.0000		9999	5510	0	0	0
2017/06/11 15:25:00	BASE	3.14	68	4.48	56	-3.5	67	-8.6	22	34	991.4	NA	0.0000		9999	5640	0	0	0
2017/06/11 15:26:00	BASE	2.94	64	4.73	45	-3.4	67	-8.7	21	35	991.4	NA	0.0000		9999	5610	0	0	0
2017/06/11 15:27:00	BASE	3.35	45	4.73	25	-3.4	66	-8.8	21	35	991.4	NA	0.0000		9999	5610	0	0	0
2017/06/11 15:28:00	BASE	4.02	39	4.73	25	-3.3	65	-9.0	21	35	991.4	NA	0.0000		9999	5640	0	0	0
2017/06/11 15:29:00	BASE	4.05	47	5.71	145	-3.3	64	-9.1	21	35	991.3	NA	0.0000		9999	5910	0	0	0
2017/06/11 15:30:00	BASE	4.70	46	6.89	30	-3.3	64	-9.2	21	35	991.2	NA	0.0000		9999	5840	0	0	0
2017/06/11 15:31:00	BASE	5.44	45	7.15	37	-3.3	63	-9.3	20	35	991.3	NA	0.0000		9999	5640	0	0	0
2017/06/11 15:32:00	BASE	6.23	43	8.23	35	-3.3	62	-9.5	20	35	991.2	NA	0.0000		9999	5680	0	0	0
2017/06/11 15:33:00	BASE	7.33	42	8.28	42	-3.4	62	-9.6	20	35	991.2	NA	0.0000		9999	5710	0	0	0
2017/06/11 15:34:00	BASE	7.18	40	8.28	42	-3.5	62	-9.7	20	35	991.2	NA	0.0000		9999	5740	0	0	0
2017/06/11 15:35:00	BASE	5.67	42	8.28	42	-3.5	62	-9.8	19	35	991.3	NA	0.0000		9999	5770	0	0	0
2017/06/11 15:36:00	BASE	4.60	58	8.28	42	-3.6	62	-9.9	19	35	991.3	NA	0.0000		9999	5770	0	0	0
2017/06/11 15:37:00	BASE	4.65	56	8.28	42	-3.6	62	-9.8	19	35	991.3	NA	0.0000		9999	5810	0	0	0
2017/06/11 15:38:00	BASE	5.90	38	8.28	42	-3.6	62	-9.7	19	35	991.3	NA	0.0000		9999	5870	0	0	0
2017/06/11 15:39:00	BASE	6.37	36	8.28	42	-3.5	62	-9.7	18	35	991.3	NA	0.0000		9999	5870	0	0	0
2017/06/11 15:40:00	BASE	5.59	50	8.28	42	-3.5	63	-9.6	18	34	991.4	NA	0.0000		9999	5910	0	0	0
2017/06/11 15:41:00	BASE	5.21	54	8.28	42	-3.4	63	-9.4	18	34	991.4	NA	0.0000		9999	5870	0	0	0
2017/06/11 15:42:00	BASE	5.56	44	8.28	42	-3.4	63	-9.4	17	34	991.4	NA	0.0000		9999	5910	0	0	0
2017/06/11 15:43:00	BASE	5.61	43	8.03	31	-3.4	63	-9.4	17	34	991.4	NA	0.0000		9999	5870	0	0	0
2017/06/11 15:44:00	BASE	5.75	43	7.82	38	-3.4	64	-9.3	17	34	991.4	NA	0.0000		9999	5840	0	0	0
2017/06/11 15:45:00	BASE	6.27	41	7.82	38	-3.4	64	-9.2	17	34	991.4	NA	0.0000		9999	5840	0	0	0
2017/06/11 15:46:00	BASE	6.14	39	7.82	38	-3.4	64	-9.3	17	34	991.4	NA	0.0000		9999	5840	0	0	0
2017/06/11 15:47:00	BASE	6.22	45	7.87	43	-3.4	63	-9.3	17	34	991.4	NA	0.0000		9999	5910	0	0	0
2017/06/11 15:48:00	BASE	6.47	47	7.87	43	-3.4	63	-9.5	16	34	991.4	NA	0.0000		9999	5940	0	0	0
2017/06/11 15:49:00	BASE	6.83	43	8.08	41	-3.4	62	-9.5	16	34	991.4	NA	0.0000		9999	6040	0	0	0
2017/06/11 15:50:00	BASE	7.96	37	9.26	32	-3.4	62	-9.7	16	34	991.4	NA	0.0000		9999	5910	0	0	0
2017/06/11 15:51:00	BASE	8.61	33	9.52	33	-3.6	62	-9.9	16	34	991.4	NA	0.0000		9999	5870	0	0	0
2017/06/11 15:52:00	BASE	7.97	30	9.52	33	-3.7	62	-10.0	16	34	991.4	NA	0.0000		9999	5910	0	0	0
2017/06/11 15:53:00	BASE	7.67	30	9.52	33	-3.8	62	-9.9	16	34	991.4	NA	0.0000		9999	5910	0	0	0
2017/06/11 15:54:00	BASE	8.45	32	10.24	26	-3.8	63	-9.9	16	34	991.4	NA	0.0000		9999	5870	0	0	0
2017/06/11 15:55:00	BASE	9.25	30	10.60	30	-3.9	63	-9.9	15	34	991.3	NA	0.0000		9999	5870	0	0	0
2017/06/11 15:56:00	BASE	8.68	29	10.60	30	-3.9	64	-9.8	15	33	991.4	NA	0.0000		9999	5970	0	0	0
2017/06/11 15:57:00	BASE	7.24	28	10.60	30	-3.9	64	-9.7	15	33	991.4	NA	0.0000		9999	6000	0	0	0
2017/06/11 15:58:00	BASE	7.86	33	10.60	30	-4.0	64	-9.7	15	33	991.4	NA	0.0000		9999	5970	0	0	0
2017/06/11 15:59:00	BASE	9.12	35	10.60	30	-4.0	65	-9.7	15	33	991.3	NA	0.0000		9999	5970	0	0	0
2017/06/11 16:00:00	BASE	8.31	33	10.60	30	-4.0	65	-9.7	15	33	991.4	NA	0.0000		9999	5870	0	0	0
2017/06/11 16:01:00	BASE	8.31	29	10.60	30	-4.1	65	-9.6	15	33	991.3	NA	0.0000		9999	5840	0	0	0
2017/06/11 16:02:00	BASE	8.93	25	10.60	30	-4.0	66	-9.5	15	33	991.3	NA	0.0000		9999	5840	0	0	0
2017/06/11 16:03:00	BASE	8.63	26	10.60	30	-4.0	66	-9.4	15	34	991.3	NA	0.0000		9999	5910	0	0	0
2017/06/11 16:04:00	BASE	8.32	25	10.60	30	-3.9	66	-9.4	15	34	991.4	NA	0.0000		9999	5910	0	0	0
2017/06/11 16:05:00	BASE	8.54	25	10.24	21	-3.9	66	-9.3	15	34	991.4	NA	0.0000		9999	5910	0	0	0
2017/06/11 16:06:00	BASE	9.29	28	10.85	27	-3.9	66	-9.3	15	34	991.3	NA	0.0000		9999	5870	0	0	0
2017/06/11 16:07:00	BASE	9.58	31	10.85	27	-3.9	66	-9.2	15	34	991.4	NA	0.0000		9999	5940	0	0	0
2017/06/11 16:08:00	BASE	9.12	30	10.96	24	-3.9	66	-9.2	15	34	991.4	NA	0.0000		9999	5910	0	0	0
2017/06/11 16:09:00	BASE	8.78	24	10.96	24	-3.9	67	-9.2	15	34	991.4	NA	0.0000		9999	5810	0	0	0
2017/06/11 16:10:00	BASE	8.65	25	10.96	24	-4.0	67	-9.2	15	34	991.4	NA	0.0000		9999	5770	0	0	0
2017/06/11 16:11:00	BASE	8.76	28	10.96	24	-4.0	67	-9.2	15	35	991.4	NA	0.0000		9999	5940	0	0	0
2017/06/11 16:12:00	BASE	8.72	27	10.96	24	-4.0	67	-9.2	15	35	991.4	NA	0.0000		9999	6000	0	0	0
2017/06/11 16:13:00	BASE	8.20	27	10.96	24	-4.0	67	-9.3	16	35	991.4	NA	0.0000		9999	6000	0	0	0
2017/06/11 16:14:00	BASE	9.11	28	10.96	24	-3.9	66	-9.3	16	35	991.3	NA	0.0000		9999	5940	0	0	0
2017/06/11 16:15:00	BASE	9.67	27	10.96	24	-4.0	66	-9.3	16	35	991.4	NA	0.0000		9999	5870	0	0	0
2017/06/11 16:16:00	BASE	9.04	26	10.96	24	-3.9	66	-9.4	16	35	991.4	NA	0.0000		9999	5910	0	0	0
2017/06/11 16:17:00	BASE	8.76	27	10.96	24	-3.9	66	-9.4	16	35	991.4	NA	0.0000		9999	5910	0	0	0
2017/06/11 16:18:00	BASE	8.85	28	10.91	25	-4.0	66	-9.4	15	35	991.4	NA	0.0000		9999	5870	0	0	0
2017/06/11 16:19:00	BASE	8.68	28	10.91	25	-4.0	66	-9.4	16	35	991.4	NA	0.0000		9999	5910	0	0	0
2017/06/11 16:20:00	BASE	8.92	26	10.91	25	-4.0	66	-9.4	16	35	991.3	NA	0.0000		9999	6000	0	0	0
2017/06/11 16:21:00	BASE	9.65	25	10.91	25	-4.0	66	-9.3	15	35	991.1	NA	0.0000		9999	6040	0	0	0
2017/06/11 16:22:00	BASE	9.41	24	10.91	25	-3.9	66	-9.3	15	35	991.3	NA	0.0000		9999	5970	0	0	0
2017/06/11 16:23:00	BASE	9.11	26	10.91	25	-3.9	67	-9.2	15	35	991.3	NA	0.0000		9999	5940	0	0	0
2017/06/11 16:24:00	BASE	9.21	27	10.65	22	-3.8	67	-9.1	15	35	991.3	NA	0.0000		9999	5910	0	0	0
2017/06/11 16:25:00	BASE	9.48	27	10.65	22	-3.8	67	-9.1	15	34	991.3	NA	0.0000		9999	5940	0	0	0
2017/06/11 16:26:00	BASE	9.03	29	10.65	22	-3.8	67	-9.0	15	34	991.3	NA	0.0000		9999	5940	0	0	0
2017/06/11 16:27:00	BASE	7.99	30	10.65	22	-3.9	68	-9.0	15	34	991.3	NA	0.0000		9999	5970	0	0	0
2017/06/11 16:28:00	BASE	7.90	30	10.65	22	-3.9	68	-8.9	15	34	991.3	NA	0.0000		9999	5970	0	0	0
2017/06/11 16:29:00	BASE	8.57	32	10.65	22	-3.9	68	-8.9	15	34	991.3	NA	0.0000		9999	5940	0	0	0
2017/06/11 16:30:00	BASE	8.89	29	10.44	26	-3.9	69	-8.8	15	34	991.3	NA	0.0000		9999	5770	0	0	0
2017/06/11 16:31:00	BASE	9.07	24	10.44	26	-3.9	69	-8.8	16	34	991.3	NA	0.0000		9999	5640	0	0	0
2017/06/11 16:32:00	BASE	8.96	27	10.44	26	-3.9	69	-8.7	15	34	991.3	NA	0.0000		9999	5710	0	0	0
2017/06/11 16:33:00	BASE	8.77	29	10.44	26	-3.9	69	-8.7	15	34	991.3	NA	0.0000		9999	5710	0	0	0
2017/06/11 16:34:00	BASE	9.22	29	10.44	26	-3.9	69	-8.7	15	34	991.3	NA	0.0000		9999	5740	0	0	0
2017/06/11 16:35:00	BASE	9.33	27	10.24	25	-3.9	69	-8.8	15	34	991.3	NA	0.0000		9999	5870	0	0	0
2017/06/11 16:36:00	BASE	8.65	26	10.24	25	-3.9	69	-8.8	15	34	991.3	NA	0.0000		9999	5910	0	0	0
2017/06/11 16:37:00	BASE	8.44	30	10.24	25	-3.8	69	-8.7	15	34	991.3	NA	0.0000		9999	5910	0	0	0
2017/06/11 16:38:00	BASE	8.65	31	10.24	25	-3.8	69	-8.8	16	34	991.3	NA	0.0000		9999	5940	0	0	0
2017/06/11 16:39:00	BASE	8.76	31	10.24	25	-3.8	68	-8.8	16	35	991.3	NA	0.0000		9999	5910	0	0	0
2017/06/11 16:40:00	BASE	8.17	32	10.24	25	-3.8	68	-8.8	17	35	991.2	NA	0.0000		9999	5940	0	0	0
2017/06/11 16:41:00	BASE	7.58	33	10.24	25	-3.8	68	-8.9	17	35	991.3	NA	0.0000		9999	5910	0	0	0
2017/06/11 16:42:00	BASE	7.53	34	10.24	25	-3.8	68	-8.9	17	35	991.3	NA	0.0000		9999	5940	0	0	0
2017/06/11 16:43:00	BASE	7.48	33	10.24	25	-3.8	68	-8.9	17	35	991.4	NA	0.0000		9999	5940	0	0	0
2017/06/11 16:44:00	BASE	7.39	32	9.67	25	-3.7	68	-8.9	16	34	991.4	NA	0.0000		9999	5910	0	0	0
2017/06/11 16:45:00	BASE	7.44	32	9.52	31	-3.7	68	-8.7	16	34	991.3	NA	0.0000		9999	5870	0	0	0
2017/06/11 16:46:00	BASE	7.40	31	9.52	31	-3.7	68	-8.7	16	34	991.3	NA	0.0000		9999	5940	0	0	0
2017/06/11 16:47:00	BASE	6.94	30	9.52	31	-3.6	68	-8.7	16	34	991.3	NA	0.0000		9999	5840	0	0	0
2017/06/11 16:48:00	BASE	7.16	30	9.31	32	-3.6	68	-8.7	16	34	991.3	NA	0.0000		9999	5810	0	0	0
2017/06/11 16:49:00	BASE	6.98	28	8.80	29	-3.5	68	-8.7	17	34	991.4	NA	0.0000		9999	5870	0	0	0
2017/06/11 16:50:00	BASE	6.58	29	8.80	29	-3.5	67	-8.7	17	34	991.4	NA	0.0000		9999	5910	0	0	0
2017/06/11 16:51:00	BASE	5.81	31	8.80	29	-3.5	67	-8.7	17	34	991.4	NA	0.0000		9999	5870	0	0	0
2017/06/11 16:52:00	BASE	5.38	31	8.80	29	-3.5	67	-8.7	17	34	991.4	NA	0.0000		9999	5940	0	0	0
2017/06/11 16:53:00	BASE	6.45	24	8.80	29	-3.5	67	-8.6	17	34	991.3	NA	0.0000		9999	5970	0	0	0
2017/06/11 16:54:00	BASE	6.88	24	8.80	29	-3.5	67	-8.6	16	33	991.4	NA	0.0000		9999	5970	0	0	0
2017/06/11 16:55:00	BASE	5.95	27	8.80	29	-3.5	67	-8.6	16	33	991.4	NA	0.0000		9999	5970	0	0	0
2017/06/11 16:56:00	BASE	4.75	28	8.80	29	-3.5	67	-8.6	15	32	991.4	NA	0.0000		9999	5970	0	0	0
2017/06/11 16:57:00	BASE	5.07	34	8.80	29	-3.5	67	-8.7	15	32	991.4	NA	0.0000		9999	5940	0	0	0
2017/06/11 16:58:00	BASE	6.12	30	7.72	32	-3.5	67	-8.7	15	31	991.3	NA	0.0000		9999	5940	0	0	0
2017/06/11 16:59:00	BASE	7.01	24	8.85	28	-3.5	67	-8.7	15	31	991.3	NA	0.0000		9999	5870	0	0	0
2017/06/11 17:00:00	BASE	7.89	21	9.26	21	-3.5	67	-8.7	14	31	991.3	NA	0.0000		9999	5810	0	0	0
2017/06/11 17:01:00	BASE	7.14	19	9.26	21	-3.5	67	-8.8	14	30	991.4	NA	0.0000		9999	5810	0	0	0
2017/06/11 17:02:00	BASE	6.61	23	9.26	21	-3.6	67	-8.8	14	30	991.4	NA	0.0000		9999	5770	0	0	0
2017/06/11 17:03:00	BASE	6.82	29	9.26	21	-3.6	67	-8.8	14	30	991.4	NA	0.0000		9999	5810	0	0	0
2017/06/11 17:04:00	BASE	6.73	33	9.26	21	-3.7	67	-8.8	14	29	991.4	NA	0.0000		9999	5840	0	0	0
2017/06/11 17:05:00	BASE	7.00	31	9.26	21	-3.7	68	-8.8	14	29	991.4	NA	0.0000		9999	5940	0	0	0
2017/06/11 17:06:00	BASE	6.29	30	9.26	21	-3.6	68	-8.7	13	29	991.4	NA	0.0000		9999	5910	0	0	0
2017/06/11 17:07:00	BASE	5.45	30	9.26	21	-3.6	67	-8.7	13	28	991.4	NA	0.0000		9999	5870	0	0	0
2017/06/11 17:08:00	BASE	5.51	30	9.26	21	-3.5	68	-8.6	13	28	991.4	NA	0.0000		9999	5970	0	0	0
2017/06/11 17:09:00	BASE	5.57	30	9.26	21	-3.5	68	-8.6	12	27	991.4	NA	0.0000		9999	5940	0	0	0
2017/06/11 17:10:00	BASE	5.16	30	8.08	26	-3.5	68	-8.6	12	27	991.4	NA	0.0000		9999	5970	0	0	0
2017/06/11 17:11:00	BASE	4.64	30	8.08	26	-3.5	68	-8.6	12	26	991.4	NA	0.0000		9999	5910	0	0	0
2017/06/11 17:12:00	BASE	4.14	33	7.97	37	-3.5	68	-8.5	11	26	991.5	NA	0.0000		9999	5870	0	0	0
2017/06/11 17:13:00	BASE	4.30	38	7.97	37	-3.4	68	-8.5	11	26	991.5	NA	0.0000		9999	5840	0	0	0
2017/06/11 17:14:00	BASE	4.94	34	7.97	37	-3.4	68	-8.5	11	25	991.5	NA	0.0000		9999	5970	0	0	0
2017/06/11 17:15:00	BASE	4.94	28	6.74	31	-3.5	68	-8.5	11	25	991.5	NA	0.0000		9999	6040	0	0	0
2017/06/11 17:16:00	BASE	4.82	31	6.74	31	-3.5	68	-8.5	11	25	991.4	NA	0.0000		9999	5970	0	0	0
2017/06/11 17:17:00	BASE	5.10	30	6.74	31	-3.5	68	-8.5	10	24	991.4	NA	0.0000		9999	6000	0	0	0
2017/06/11 17:18:00	BASE	5.41	28	6.22	19	-3.5	69	-8.5	10	24	991.5	NA	0.0000		9999	5940	0	0	0
2017/06/11 17:19:00	BASE	5.36	25	6.12	31	-3.5	69	-8.5	10	24	991.5	NA	0.0000		9999	5910	0	0	0
2017/06/11 17:20:00	BASE	5.27	22	6.12	31	-3.5	68	-8.5	10	24	991.5	NA	0.0000		9999	5940	0	0	0
2017/06/11 17:21:00	BASE	5.15	26	6.12	31	-3.5	68	-8.5	10	23	991.5	NA	0.0000		9999	5910	0	0	0
2017/06/11 17:22:00	BASE	4.24	31	6.12	31	-3.5	68	-8.6	10	23	991.5	NA	0.0000		9999	5840	0	0	0
2017/06/11 17:23:00	BASE	3.70	29	6.12	31	-3.5	68	-8.6	9	22	991.5	NA	0.0000		9999	2920	5810	0	0
2017/06/11 17:24:00	BASE	3.88	25	6.12	31	-3.5	68	-8.6	9	22	991.6	NA	0.0000		9999	5740	0	0	0
2017/06/11 17:25:00	BASE	3.93	26	6.12	31	-3.5	68	-8.5	9	22	991.6	NA	0.0000		9999	5840	0	0	0
2017/06/11 17:26:00	BASE	3.93	28	6.12	31	-3.5	68	-8.5	9	21	991.5	NA	0.0000		9999	5840	0	0	0
2017/06/11 17:27:00	BASE	3.81	30	6.12	31	-3.5	68	-8.5	9	21	991.6	NA	0.0000		9999	5870	0	0	0
2017/06/11 17:28:00	BASE	4.40	25	6.02	24	-3.5	69	-8.4	9	21	991.5	NA	0.0000		9999	5870	0	0	0
2017/06/11 17:29:00	BASE	5.40	23	6.64	24	-3.5	69	-8.4	8	20	991.5	NA	0.0000		9999	5910	0	0	0
2017/06/11 17:30:00	BASE	5.80	22	6.64	24	-3.5	69	-8.4	8	20	991.5	NA	0.0000		9999	5740	0	0	0
2017/06/11 17:31:00	BASE	6.02	23	6.64	24	-3.5	69	-8.4	8	20	991.6	NA	0.0000		9999	5810	0	0	0
2017/06/11 17:32:00	BASE	6.28	23	6.79	22	-3.5	69	-8.4	8	20	991.6	NA	0.0000		9999	5840	0	0	0
2017/06/11 17:33:00	BASE	6.49	23	7.05	22	-3.6	69	-8.5	8	19	991.6	NA	0.0000		9999	5810	0	0	0
2017/06/11 17:34:00	BASE	6.65	25	7.25	24	-3.6	69	-8.5	8	19	991.6	NA	0.0000		9999	5810	0	0	0
2017/06/11 17:35:00	BASE	6.58	25	7.25	24	-3.6	68	-8.6	8	19	991.5	NA	0.0000		9999	5870	0	0	0
2017/06/11 17:36:00	BASE	6.25	24	7.25	24	-3.6	68	-8.6	8	19	991.6	NA	0.0000		9999	2620	5870	0	0
2017/06/11 17:37:00	BASE	6.53	25	7.92	24	-3.6	68	-8.7	8	18	991.6	NA	0.0000		9999	2690	5840	0	0
2017/06/11 17:38:00	BASE	7.03	23	7.92	24	-3.7	68	-8.7	8	18	991.6	NA	0.0000		9999	5810	0	0	0
2017/06/11 17:39:00	BASE	6.66	21	7.92	24	-3.7	68	-8.7	8	18	991.6	NA	0.0000		9999	5810	0	0	0
2017/06/11 17:40:00	BASE	6.39	22	7.92	24	-3.7	68	-8.7	8	18	991.6	NA	0.0000		9999	5810	0	0	0
2017/06/11 17:41:00	BASE	6.35	22	7.92	24	-3.7	68	-8.8	7	17	991.6	NA	0.0000		9999	5810	0	0	0
2017/06/11 17:42:00	BASE	6.06	22	7.92	24	-3.7	68	-8.8	7	17	991.6	NA	0.0000		9999	5810	0	0	0
2017/06/11 17:43:00	BASE	5.46	23	7.92	24	-3.6	67	-8.8	7	17	991.6	NA	0.0000		9999	5810	0	0	0
2017/06/11 17:44:00	BASE	5.19	22	7.92	24	-3.6	67	-8.8	7	16	991.6	NA	0.0000		9999	5840	0	0	0
2017/06/11 17:45:00	BASE	5.39	23	7.92	24	-3.5	67	-8.8	7	16	991.6	NA	0.0000		9999	5810	0	0	0
2017/06/11 17:46:00	BASE	5.85	26	7.92	24	-3.5	67	-8.8	7	16	991.6	NA	0.0000		9999	2690	5810	0	0
2017/06/11 17:47:00	BASE	6.18	27	7.82	22	-3.5	67	-8.8	7	15	991.6	NA	0.0000		9999	5710	0	0	0
2017/06/11 17:48:00	BASE	5.92	25	7.82	22	-3.5	67	-8.8	7	15	991.6	NA	0.0000		9999	2590	5680	0	0
2017/06/11 17:49:00	BASE	5.85	23	7.82	22	-3.5	67	-8.7	7	15	991.6	NA	0.0000		9999	2590	5680	0	0
2017/06/11 17:50:00	BASE	6.30	23	7.15	24	-3.5	67	-8.7	6	14	991.6	NA	0.0000		9999	2560	5710	0	0
2017/06/11 17:51:00	BASE	6.49	27	7.15	24	-3.5	67	-8.7	6	14	991.6	NA	0.0000		9999	2560	5580	0	0
2017/06/11 17:52:00	BASE	6.07	27	7.15	24	-3.5	67	-8.7	6	13	991.6	NA	0.0000		9999	2530	5610	0	0
2017/06/11 17:53:00	BASE	5.98	25	7.15	24	-3.5	67	-8.7	5	13	991.6	NA	0.0000		9999	2530	0	0	0
2017/06/11 17:54:00	BASE	5.96	26	7.15	24	-3.5	67	-8.8	5	12	991.6	NA	0.0000		9999	2490	0	0	0
2017/06/11 17:55:00	BASE	6.12	28	7.15	24	-3.6	67	-8.9	5	12	991.6	NA	0.0000		9999	2460	0	0	0
2017/06/11 17:56:00	BASE	6.46	31	7.15	24	-3.6	67	-8.8	5	11	991.6	NA	0.0000		9999	2400	0	0	0
2017/06/11 17:57:00	BASE	6.49	31	7.15	30	-3.6	67	-8.8	5	11	991.6	NA	0.0000		9999	2400	0	0	0
2017/06/11 17:58:00	BASE	5.81	32	7.15	30	-3.7	68	-8.8	4	11	991.6	NA	0.0000		9999	2330	0	0	0
2017/06/11 17:59:00	BASE	5.39	28	7.15	30	-3.6	68	-8.8	4	10	991.6	NA	0.0000		9999	2360	0	0	0
2017/06/11 18:00:00	BASE	5.75	26	7.15	30	-3.6	68	-8.7	4	10	991.6	NA	0.0000		9999	2360	0	0	0
2017/06/11 18:01:00	BASE	5.68	27	7.15	30	-3.5	67	-8.7	4	10	991.6	NA	0.0000		9999	2430	0	0	0
2017/06/11 18:02:00	BASE	5.75	26	7.15	30	-3.5	67	-8.7	4	10	991.6	NA	0.0000		9999	2430	0	0	0
2017/06/11 18:03:00	BASE	5.72	26	7.15	30	-3.4	67	-8.7	4	9	991.6	NA	0.0000		9999	2430	0	0	0
2017/06/11 18:04:00	BASE	5.43	30	7.15	30	-3.4	67	-8.7	3	9	991.6	NA	0.0000		9999	2460	0	0	0
2017/06/11 18:05:00	BASE	4.99	35	7.15	30	-3.4	66	-8.7	3	8	991.7	NA	0.0000		9999	2460	0	0	0
2017/06/11 18:06:00	BASE	4.30	32	7.15	30	-3.3	66	-8.7	3	8	991.7	NA	0.0000		9999	2490	0	0	0
2017/06/11 18:07:00	BASE	3.59	39	6.48	27	-3.3	66	-8.8	3	8	991.7	NA	0.0000		9999	2490	0	0	0
2017/06/11 18:08:00	BASE	2.99	49	6.48	27	-3.2	65	-8.8	3	8	991.7	NA	0.0000		9999	2490	0	0	0
2017/06/11 18:09:00	BASE	3.67	38	6.48	27	-3.2	65	-8.8	3	7	991.7	NA	0.0000		9999	2400	0	0	0
2017/06/11 18:10:00	BASE	4.79	29	6.48	27	-3.2	65	-8.7	3	7	991.7	NA	0.0000		9999	2330	0	0	0
2017/06/11 18:11:00	BASE	4.11	32	6.48	27	-3.1	65	-8.8	2	7	991.7	NA	0.0000		9999	2330	0	0	0
2017/06/11 18:12:00	BASE	2.95	44	6.33	26	-3.1	65	-8.8	2	6	991.7	NA	0.0000		9999	2330	0	0	0
2017/06/11 18:13:01	BASE	2.82	70	6.33	26	-3.1	65	-8.8	2	6	991.7	NA	0.0000		9999	2330	0	0	0
2017/06/11 18:14:01	BASE	2.63	73	6.12	31	-3.1	65	-8.9	2	6	991.7	NA	0.0000		9999	2300	0	0	0
2017/06/11 18:15:00	BASE	2.29	68	6.12	31	-3.1	64	-8.9	2	6	991.7	NA	0.0000		9999	2230	2760	0	0
2017/06/11 18:16:00	BASE	2.27	77	6.12	31	-3.2	65	-8.9	2	6	991.7	NA	0.0000		9999	2560	0	0	0
2017/06/11 18:17:01	BASE	2.51	79	6.12	31	-3.2	65	-8.8	2	6	991.7	NA	0.0000		9999	2260	0	0	0
2017/06/11 18:18:00	BASE	2.45	78	6.12	31	-3.3	66	-8.8	2	5	991.7	NA	0.0000		9999	2530	0	0	0
2017/06/11 18:19:00	BASE	2.10	79	6.12	31	-3.4	66	-8.8	2	5	991.7	NA	0.0000		9999	2430	0	0	0
2017/06/11 18:20:00	BASE	2.05	79	3.76	29	-3.4	67	-8.8	2	5	991.8	NA	0.0000		9999	2300	0	0	0
2017/06/11 18:21:00	BASE	2.52	61	3.65	35	-3.5	67	-8.7	2	5	991.7	NA	0.0000		9999	2330	0	0	0
2017/06/11 18:22:00	BASE	3.28	40	4.12	39	-3.4	67	-8.7	2	4	991.7	NA	0.0000		9999	2330	0	0	0
2017/06/11 18:23:00	BASE	3.83	25	4.48	2	-3.4	67	-8.6	2	4	991.7	NA	0.0000		9999	2330	0	0	0
2017/06/11 18:24:01	BASE	4.05	13	5.50	18	-3.4	68	-8.5	2	4	991.8	NA	0.0000		9999	2330	0	0	0
2017/06/11 18:25:00	BASE	5.00	10	6.48	9	-3.3	68	-8.5	2	4	991.7	NA	0.0000		9999	2330	0	0	0
2017/06/11 18:26:00	BASE	5.29	9	6.48	9	-3.3	68	-8.4	1	4	991.8	NA	0.0000		9999	2330	0	0	0
2017/06/11 18:27:01	BASE	4.20	18	6.48	9	-3.3	67	-8.5	1	4	991.8	NA	0.0000		9999	2330	0	0	0
2017/06/11 18:28:01	BASE	3.95	28	6.48	9	-3.3	67	-8.6	1	3	991.8	NA	0.0000		9999	2330	0	0	0
2017/06/11 18:29:01	BASE	4.56	28	6.48	9	-3.3	67	-8.7	1	3	991.8	NA	0.0000		9999	2360	2820	0	0
2017/06/11 18:30:01	BASE	4.53	29	6.48	9	-3.4	67	-8.7	1	3	991.8	NA	0.0000		9999	2330	2920	0	0
2017/06/11 18:31:01	BASE	4.36	29	6.48	9	-3.4	67	-8.8	1	3	991.8	NA	0.0000		9999	2400	2820	0	0
2017/06/11 18:32:01	BASE	4.52	28	6.48	9	-3.5	67	-8.7	1	3	991.8	NA	0.0000		9999	2790	0	0	0
2017/06/11 18:33:01	BASE	4.21	34	6.48	9	-3.5	67	-8.7	1	3	991.9	NA	0.0000		9999	2760	0	0	0
2017/06/11 18:34:01	BASE	3.65	41	6.48	9	-3.5	68	-8.6	1	2	991.9	NA	0.0000		9999	2690	0	0	0
2017/06/11 18:35:01	BASE	2.99	51	6.02	28	-3.5	68	-8.6	1	2	991.9	NA	0.0000		9999	2690	0	0	0
2017/06/11 18:36:01	BASE	2.99	73	6.02	28	-3.5	68	-8.5	1	2	991.9	NA	0.0000		9999	2760	0	0	0
2017/06/11 18:37:01	BASE	3.43	88	6.02	28	-3.5	68	-8.5	1	2	991.9	NA	0.0000		9999	2760	0	0	0
2017/06/11 18:38:01	BASE	3.48	89	6.02	28	-3.5	68	-8.5	1	2	991.9	NA	0.0000		9999	2720	0	0	0
2017/06/11 18:39:01	BASE	3.44	82	5.30	33	-3.6	68	-8.6	1	2	991.9	NA	0.0000		9999	2760	0	0	0
2017/06/11 18:40:01	BASE	3.80	72	5.30	33	-3.7	69	-8.6	1	2	991.9	NA	0.0000		9999	2660	0	0	0
2017/06/11 18:41:01	BASE	4.17	70	5.30	68	-3.7	69	-8.5	1	2	991.9	NA	0.0000		9999	2620	0	0	0
2017/06/11 18:42:01	BASE	3.50	73	5.30	68	-3.7	69	-8.5	1	1	992.0	NA	0.0000		9999	2560	0	0	0
2017/06/11 18:43:01	BASE	2.79	65	5.30	68	-3.6	69	-8.5	1	1	992.0	NA	0.0000		9999	2720	0	0	0
2017/06/11 18:44:01	BASE	2.81	62	5.30	68	-3.5	69	-8.4	1	1	992.0	NA	0.0000		9999	2850	0	0	0
2017/06/11 18:45:01	BASE	2.87	69	5.30	68	-3.5	68	-8.5	1	1	992.0	NA	0.0000		9999	2820	0	0	0
2017/06/11 18:46:01	BASE	2.70	76	5.30	68	-3.5	68	-8.5	1	1	992.0	NA	0.0000		9999	2760	0	0	0
2017/06/11 18:47:01	BASE	2.59	81	5.30	68	-3.5	68	-8.6	1	1	992.0	NA	0.0000		9999	2720	0	0	0
2017/06/11 18:48:01	BASE	2.50	83	5.30	68	-3.5	68	-8.6	1	1	992.0	NA	0.0000		9999	2660	0	0	0
2017/06/11 18:49:01	BASE	2.39	79	5.30	68	-3.5	68	-8.6	1	1	992.0	NA	0.0000		9999	2620	0	0	0
2017/06/11 18:50:01	BASE	2.61	72	5.30	68	-3.5	68	-8.6	1	1	992.0	NA	0.0000		9999	2620	0	0	0
2017/06/11 18:51:01	BASE	2.39	76	3.29	73	-3.6	68	-8.6	1	1	992.0	NA	0.0000		9999	2660	0	0	0
2017/06/11 18:52:01	BASE	2.08	81	3.29	73	-3.6	68	-8.6	0	1	992.0	NA	0.0000		9999	2690	0	0	0
2017/06/11 18:53:01	BASE	2.55	62	4.32	20	-3.6	68	-8.6	0	1	992.0	NA	0.0000		9999	2620	0	0	0
2017/06/11 18:54:01	BASE	3.40	37	4.32	20	-3.6	69	-8.5	0	0	992.0	NA	0.0000		9999	2530	0	0	0
2017/06/11 18:55:01	BASE	3.63	36	4.32	20	-3.5	69	-8.4	0	0	992.0	NA	0.0000		9999	2560	0	0	0
2017/06/11 18:56:01	BASE	3.16	57	4.32	20	-3.5	69	-8.4	0	0	992.0	NA	0.0000		9999	2620	0	0	0
2017/06/11 18:57:01	BASE	2.87	71	4.32	20	-3.5	69	-8.4	0	0	992.1	NA	0.0000		9999	2690	0	0	0
2017/06/11 18:58:01	BASE	2.80	70	4.32	20	-3.5	69	-8.3	0	0	992.1	NA	0.0000		9999	2720	0	0	0
2017/06/11 18:59:01	BASE	2.80	69	4.32	20	-3.5	69	-8.3	0	0	992.1	NA	0.0000		9999	2720	0	0	0
2017/06/11 19:00:01	BASE	2.91	66	4.32	20	-3.5	69	-8.4	0	0	992.1	NA	0.0000		9999	2720	0	0	0
2017/06/11 19:01:01	BASE	2.92	72	4.32	20	-3.5	69	-8.4	0	0	992.1	NA	0.0000		9999	2690	0	0	0
2017/06/11 19:02:01	BASE	2.86	74	4.32	20	-3.5	69	-8.4	0	0	992.1	NA	0.0000		9999	2720	0	0	0
2017/06/11 19:03:01	BASE	2.81	74	4.22	22	-3.4	68	-8.4	0	0	992.1	NA	0.0000		9999	2720	0	0	0
2017/06/11 19:04:01	BASE	2.71	77	3.81	37	-3.4	68	-8.5	0	0	992.1	NA	0.0000		9999	2760	0	0	0
2017/06/11 19:05:01	BASE	2.68	67	3.40	68	-3.4	68	-8.5	0	0	992.1	NA	0.0000		9999	2760	0	0	0
2017/06/11 19:06:01	BASE	2.44	60	3.29	71	-3.4	68	-8.4	0	0	992.1	NA	0.0000		9999	2760	0	0	0
2017/06/11 19:07:01	BASE	2.07	68	3.29	71	-3.4	68	-8.4	0	0	992.1	NA	0.0000		9999	2790	0	0	0
2017/06/11 19:08:01	BASE	1.65	76	3.29	71	-3.3	68	-8.4	0	0	992.1	NA	0.0000		9999	2820	0	0	0
2017/06/11 19:09:01	BASE	1.39	86	3.29	71	-3.2	67	-8.4	0	0	992.1	NA	0.0000		9999	2850	0	0	0
2017/06/11 19:10:01	BASE	1.42	95	3.24	74	-3.1	67	-8.4	0	0	992.1	NA	0.0000		9999	2790	0	0	0
2017/06/11 19:11:01	BASE	1.29	96	3.24	74	-3.1	66	-8.5	0	0	992.1	NA	0.0000		9999	2620	0	0	0
2017/06/11 19:12:01	BASE	1.32	82	3.24	74	-3.1	66	-8.5	0	0	992.1	NA	0.0000		9999	2620	0	0	0
2017/06/11 19:13:01	BASE	1.79	76	3.24	74	-3.2	67	-8.6	0	0	992.1	NA	0.0000		9999	2530	0	0	0
2017/06/11 19:14:01	BASE	1.89	86	3.19	57	-3.3	67	-8.6	0	0	992.2	NA	0.0000		9999	2660	0	0	0
2017/06/11 19:15:01	BASE	1.38	90	2.42	58	-3.4	67	-8.6	0	0	992.2	NA	0.0000		9999	2720	0	0	0
2017/06/11 19:16:01	BASE	1.82	90	3.24	83	-3.5	68	-8.6	0	0	992.2	NA	0.0000		9999	2790	0	0	0
2017/06/11 19:17:01	BASE	2.76	88	3.24	83	-3.5	68	-8.6	0	0	992.2	NA	0.0000		9999	2890	0	0	0
2017/06/11 19:18:01	BASE	2.77	90	3.24	83	-3.5	68	-8.6	0	0	992.2	NA	0.0000		9999	2950	0	0	0
2017/06/11 19:19:01	BASE	2.46	88	3.24	83	-3.5	68	-8.6	0	0	992.2	NA	0.0000		9999	2990	0	0	0
2017/06/11 19:20:01	BASE	2.29	81	3.24	83	-3.6	68	-8.5	0	0	992.1	NA	0.0000		9999	2990	0	0	0
2017/06/11 19:21:01	BASE	2.31	76	3.24	83	-3.6	69	-8.5	0	0	992.1	NA	0.0000		9999	2920	0	0	0
2017/06/11 19:22:01	BASE	2.61	69	3.24	83	-3.6	69	-8.5	0	0	992.1	NA	0.0000		9999	2950	0	0	0
2017/06/11 19:23:01	BASE	2.68	57	3.24	83	-3.6	69	-8.4	0	0	992.1	NA	0.0000		9999	2890	0	0	0
2017/06/11 19:24:01	BASE	2.35	43	3.24	83	-3.5	69	-8.3	0	0	992.1	NA	0.0000		9999	2890	0	0	0
2017/06/11 19:25:01	BASE	2.05	41	3.24	83	-3.5	69	-8.3	0	0	992.1	NA	0.0000		9999	2890	0	0	0
2017/06/11 19:26:01	BASE	2.03	46	3.19	92	-3.4	69	-8.3	0	0	992.1	NA	0.0000		9999	2950	0	0	0
2017/06/11 19:27:01	BASE	1.82	52	3.14	56	-3.3	69	-8.3	0	0	992.1	NA	0.0000		9999	2990	0	0	0
2017/06/11 19:28:01	BASE	1.38	58	3.14	56	-3.3	68	-8.3	0	0	992.1	NA	0.0000		9999	3080	0	0	0
2017/06/11 19:29:01	BASE	1.68	64	3.14	56	-3.2	68	-8.4	0	0	992.1	NA	0.0000		9999	3120	0	0	0
2017/06/11 19:30:01	BASE	1.95	69	3.14	56	-3.3	68	-8.4	0	0	992.1	NA	0.0000		9999	3050	3540	0	0
2017/06/11 19:31:01	BASE	M	M	3.14	56	-3.3	68	-8.4	0	0	M	NA	0.0000		M	3050	3540	0	0
2017/06/11 19:32:01	BASE	M	M	2.73	41	-3.3	68	-8.4	0	0	M	NA	0.0000		M	M	M	M	M
2017/06/11 19:33:01	BASE	M	M	2.62	62	-3.3	68	-8.4	0	0	991.8	NA	0.0000		9999	0	0	0	0
2017/06/11 19:34:01	BASE	2.05	84	2.62	62	-3.3	68	-8.4	0	0	991.9	NA	0.0000		9999	0	0	0	0
2017/06/11 19:35:01	BASE	1.89	87	2.62	62	-3.3	68	-8.4	0	0	992.0	NA	0.0000		9999	3380	0	0	0
2017/06/11 19:36:01	BASE	1.88	102	2.62	62	-3.7	69	-8.6	0	0	992.1	NA	0.0000		9999	3220	0	0	0
2017/06/11 19:37:01	BASE	1.74	112	2.62	62	-3.7	69	-8.5	0	0	992.1	NA	0.0000		9999	3350	0	0	0
2017/06/11 19:38:01	BASE	1.73	124	2.62	62	-3.7	70	-8.4	0	0	992.1	NA	0.0000		9999	3280	0	0	0
2017/06/11 19:39:01	BASE	1.69	134	2.47	91	-3.7	70	-8.4	0	0	992.0	NA	0.0000		9999	3220	0	0	0
2017/06/11 19:40:01	BASE	1.51	139	2.47	91	-3.6	70	-8.4	0	0	992.1	NA	0.0000		9999	3150	0	0	0
2017/06/11 19:41:01	BASE	1.51	138	2.47	91	-3.6	70	-8.3	0	0	992.1	NA	0.0000		9999	3120	0	0	0
2017/06/11 19:42:01	BASE	1.57	131	2.47	91	-3.5	70	-8.3	0	0	992.1	NA	0.0000		9999	3080	0	0	0
2017/06/11 19:43:01	BASE	1.74	124	2.16	78	-3.6	70	-8.3	0	0	992.0	NA	0.0000		9999	3150	0	0	0
2017/06/11 19:44:01	BASE	1.97	123	2.11	124	-3.6	70	-8.3	0	0	992.1	NA	0.0000		9999	3120	0	0	0
2017/06/11 19:45:01	BASE	2.00	125	2.11	124	-3.6	70	-8.3	0	0	992.1	NA	0.0000		9999	3120	0	0	0
2017/06/11 19:46:01	BASE	1.95	126	2.11	124	-3.6	70	-8.2	0	0	992.1	NA	0.0000		9999	3250	0	0	0
2017/06/11 19:47:01	BASE	1.93	123	2.11	124	-3.5	70	-8.3	0	0	992.1	NA	0.0000		9999	5350	0	0	0
2017/06/11 19:48:01	BASE	2.03	121	2.21	116	-3.5	70	-8.3	0	0	992.1	NA	0.0000		9999	3510	5410	0	0
2017/06/11 19:49:01	BASE	2.12	120	2.21	122	-3.5	69	-8.3	0	0	992.1	NA	0.0000		9999	3410	5280	0	0
2017/06/11 19:50:01	BASE	2.13	121	2.31	122	-3.5	69	-8.3	0	0	992.1	NA	0.0000		9999	3120	5320	0	0
2017/06/11 19:51:01	BASE	2.23	123	2.42	118	-3.5	69	-8.3	0	0	992.1	NA	0.0000		9999	2990	5220	0	0
2017/06/11 19:52:01	BASE	2.27	122	2.47	123	-3.5	69	-8.4	0	0	992.1	NA	0.0000		9999	3150	5180	0	0
2017/06/11 19:53:01	BASE	2.23	122	2.47	123	-3.5	69	-8.4	0	0	992.1	NA	0.0000		9999	5020	0	0	0
2017/06/11 19:54:01	BASE	2.27	122	2.47	123	-3.4	68	-8.4	0	0	992.1	NA	0.0000		9999	3310	5020	0	0
2017/06/11 19:55:01	BASE	2.34	123	2.47	123	-3.4	68	-8.4	0	0	992.1	NA	0.0000		9999	3280	5380	0	0
2017/06/11 19:56:01	BASE	2.53	125	2.88	132	-3.4	68	-8.5	0	0	992.1	NA	0.0000		9999	3120	5410	0	0
2017/06/11 19:57:01	BASE	2.69	125	2.88	125	-3.4	68	-8.5	0	0	992.1	NA	0.0000		9999	2950	5450	0	0
2017/06/11 19:58:01	BASE	2.75	123	3.14	126	-3.4	68	-8.5	0	0	992.1	NA	0.0000		9999	5410	0	0	0
2017/06/11 19:59:01	BASE	2.72	118	3.14	126	-3.4	68	-8.5	0	0	992.1	NA	0.0000		9999	5220	0	0	0
2017/06/11 20:00:01	BASE	2.45	109	3.14	126	-3.4	68	-8.5	0	0	992.1	NA	0.0000		9999	3120	5020	0	0
2017/06/11 20:01:01	BASE	2.50	105	3.14	126	-3.5	68	-8.5	0	0	992.1	NA	0.0000		9999	5090	0	0	0
2017/06/11 20:02:01	BASE	2.68	104	3.14	126	-3.5	69	-8.5	0	0	992.1	NA	0.0000		9999	4630	0	0	0
2017/06/11 20:03:01	BASE	2.64	100	3.14	126	-3.6	69	-8.5	0	0	992.1	NA	0.0000		9999	2590	0	0	0
2017/06/11 20:04:01	BASE	2.64	96	3.14	126	-3.7	70	-8.5	0	0	992.1	NA	0.0000		9999	2100	0	0	0
2017/06/11 20:05:01	BASE	2.72	95	3.14	126	-3.8	70	-8.4	0	0	992.1	NA	0.0000		9999	1800	0	0	0
2017/06/11 20:06:01	BASE	2.81	95	3.14	126	-3.9	71	-8.4	0	0	992.1	NA	0.0000		9999	1610	0	0	0
2017/06/11 20:07:01	BASE	2.87	93	3.14	126	-3.9	71	-8.4	0	0	992.2	NA	0.0000		9999	1180	0	0	0
2017/06/11 20:08:01	BASE	2.84	93	2.98	94	-4.0	71	-8.4	0	0	991.9	NA	0.0000	-SN	9999	1150	0	0	0
2017/06/11 20:09:01	BASE	2.70	93	2.98	94	-4.0	71	-8.4	0	0	992.1	NA	0.0000	-SN	9999	1020	0	0	0
2017/06/11 20:10:01	BASE	2.56	93	2.98	94	-4.0	72	-8.4	0	0	992.1	NA	0.0000	-SN	9999	850	2720	0	0
2017/06/11 20:11:01	BASE	2.42	93	2.98	94	-4.0	72	-8.3	0	0	992.1	NA	0.0000	-SN	9999	890	2490	0	0
2017/06/11 20:12:01	BASE	2.47	90	2.98	94	-4.0	72	-8.3	0	0	992.2	NA	0.0000	-SN	9999	2460	5580	0	0
2017/06/11 20:13:01	BASE	2.60	87	2.98	94	-4.0	72	-8.2	0	0	992.2	NA	0.0000	-SN	9999	2360	5540	0	0
2017/06/11 20:14:00	BASE	2.60	86	2.98	94	-4.0	72	-8.2	0	0	992.2	NA	0.0000	-SN	9999	2430	5610	0	0
2017/06/11 20:15:00	BASE	2.58	85	2.98	94	-4.0	73	-8.2	0	0	992.2	NA	0.0000	-SN	9999	2690	5540	0	0
2017/06/11 20:16:00	BASE	2.58	86	2.98	94	-4.0	73	-8.2	0	0	992.2	NA	0.0000	-SN	9999	2760	5540	0	0
2017/06/11 20:17:00	BASE	2.65	89	2.93	94	-4.0	73	-8.2	0	0	992.1	NA	0.0000		9999	5540	0	0	0
2017/06/11 20:18:00	BASE	2.76	92	3.19	96	-4.0	73	-8.1	0	0	992.2	NA	0.0000		9999	5540	0	0	0
2017/06/11 20:19:00	BASE	2.73	90	3.19	96	-4.0	73	-8.1	0	0	992.2	NA	0.0000		9999	5580	0	0	0
2017/06/11 20:20:00	BASE	2.59	89	3.19	96	-4.0	74	-8.1	0	0	992.2	NA	0.0000		9999	5480	0	0	0
2017/06/11 20:21:00	BASE	2.56	91	3.19	96	-4.1	74	-8.0	0	0	992.2	NA	0.0000		9999	5350	0	0	0
2017/06/11 20:22:00	BASE	2.62	92	3.19	96	-4.1	74	-8.1	0	0	992.2	NA	0.0000		9999	3280	5410	0	0
2017/06/11 20:23:00	BASE	2.70	91	3.19	96	-4.1	74	-8.1	0	0	992.2	NA	0.0000		9999	5540	0	0	0
2017/06/11 20:24:00	BASE	2.79	86	3.19	96	-4.1	74	-8.1	0	0	992.2	NA	0.0000		9999	5540	0	0	0
2017/06/11 20:25:00	BASE	2.91	84	3.19	96	-4.1	74	-8.1	0	0	992.2	NA	0.0000		9999	5350	0	0	0
2017/06/11 20:26:00	BASE	2.89	86	3.19	96	-4.1	74	-8.1	0	0	992.2	NA	0.0000		9999	5350	0	0	0
2017/06/11 20:27:00	BASE	3.04	84	3.40	78	-4.1	74	-8.1	0	0	992.2	NA	0.0000		9999	5450	0	0	0
2017/06/11 20:28:00	BASE	3.23	82	3.45	85	-4.1	74	-8.1	0	0	992.2	NA	0.0000		9999	5450	0	0	0
2017/06/11 20:29:00	BASE	3.28	81	3.55	81	-4.1	73	-8.2	0	0	992.2	NA	0.0000		9999	5540	0	0	0
2017/06/11 20:30:00	BASE	3.30	81	3.55	81	-4.1	73	-8.2	0	0	992.2	NA	0.0000		9999	5480	0	0	0
2017/06/11 20:31:00	BASE	3.42	80	3.81	77	-4.1	73	-8.3	0	0	992.2	NA	0.0000		9999	5480	0	0	0
2017/06/11 20:32:00	BASE	3.48	80	3.81	77	-4.1	73	-8.3	0	0	992.2	NA	0.0000		9999	5250	0	0	0
2017/06/11 20:33:00	BASE	3.36	84	3.81	77	-4.1	72	-8.4	0	0	992.2	NA	0.0000		9999	5280	0	0	0
2017/06/11 20:34:00	BASE	3.22	89	3.81	77	-4.1	72	-8.4	0	0	992.2	NA	0.0000		9999	5510	0	0	0
2017/06/11 20:35:00	BASE	3.10	93	3.81	77	-4.1	72	-8.5	0	0	992.2	NA	0.0000		9999	5450	0	0	0
2017/06/11 20:36:00	BASE	3.24	97	3.81	77	-4.1	71	-8.5	0	0	992.2	NA	0.0000		9999	5540	0	0	0
2017/06/11 20:37:00	BASE	3.63	96	4.32	84	-4.1	71	-8.5	0	0	992.2	NA	0.0000		9999	5540	0	0	0
2017/06/11 20:38:00	BASE	3.95	85	4.32	85	-4.1	71	-8.6	0	0	992.2	NA	0.0000		9999	5410	0	0	0
2017/06/11 20:39:00	BASE	3.97	82	4.32	85	-4.1	71	-8.6	0	0	992.2	NA	0.0000		9999	5450	0	0	0
2017/06/11 20:40:00	BASE	3.79	86	4.32	85	-4.2	71	-8.6	0	0	992.2	NA	0.0000		9999	5580	0	0	0
2017/06/11 20:41:00	BASE	3.54	90	4.32	85	-4.2	71	-8.7	0	0	992.2	NA	0.0000		9999	5510	0	0	0
2017/06/11 20:42:00	BASE	3.35	93	4.32	85	-4.2	71	-8.7	0	0	992.2	NA	0.0000		9999	5540	0	0	0
2017/06/11 20:43:00	BASE	3.26	98	4.32	85	-4.3	71	-8.7	0	0	992.2	NA	0.0000		9999	5580	0	0	0
2017/06/11 20:44:00	BASE	3.35	102	4.32	85	-4.2	71	-8.6	0	0	992.2	NA	0.0000		9999	5540	0	0	0
2017/06/11 20:45:00	BASE	3.53	102	4.32	85	-4.2	72	-8.5	0	0	992.2	NA	0.0000		9999	5540	0	0	0
2017/06/11 20:46:00	BASE	3.52	102	4.32	85	-4.1	72	-8.4	0	0	992.2	NA	0.0000		9999	5510	0	0	0
2017/06/11 20:47:00	BASE	3.34	101	4.32	85	-4.0	72	-8.3	0	0	992.2	NA	0.0000		9999	5540	0	0	0
2017/06/11 20:48:00	BASE	3.22	99	4.12	82	-3.9	72	-8.2	0	0	992.2	NA	0.0000		9999	5580	0	0	0
2017/06/11 20:49:00	BASE	3.22	98	4.06	105	-3.8	72	-8.2	0	0	992.2	NA	0.0000		9999	5510	0	0	0
2017/06/11 20:50:00	BASE	3.11	97	4.06	105	-3.8	72	-8.2	0	0	992.2	NA	0.0000		9999	5450	0	0	0
2017/06/11 20:51:00	BASE	2.95	97	4.06	105	-3.9	72	-8.3	0	0	992.2	NA	0.0000		9999	5350	0	0	0
2017/06/11 20:52:00	BASE	2.88	97	4.06	105	-3.9	72	-8.3	0	0	992.2	NA	0.0000		9999	5350	0	0	0
2017/06/11 20:53:00	BASE	2.89	95	4.06	105	-4.0	72	-8.3	0	0	992.2	NA	0.0000		9999	5380	0	0	0
2017/06/11 20:54:00	BASE	2.90	94	3.81	103	-4.0	72	-8.3	0	0	992.2	NA	0.0000		9999	5320	0	0	0
2017/06/11 20:55:00	BASE	2.75	93	3.65	100	-4.0	73	-8.2	0	0	992.2	NA	0.0000		9999	5280	0	0	0
2017/06/11 20:56:00	BASE	2.53	90	3.65	100	-4.1	73	-8.2	0	0	992.2	NA	0.0000		9999	5410	0	0	0
2017/06/11 20:57:00	BASE	2.45	82	3.65	100	-4.1	73	-8.2	0	0	992.2	NA	0.0000		9999	5450	0	0	0
2017/06/11 20:58:00	BASE	2.52	76	3.65	100	-4.1	73	-8.2	0	0	992.2	NA	0.0000		9999	5410	0	0	0
2017/06/11 20:59:00	BASE	2.47	75	3.24	94	-4.1	73	-8.3	0	0	992.2	NA	0.0000		9999	5280	0	0	0
2017/06/11 21:00:00	BASE	2.51	74	3.19	97	-4.2	73	-8.3	0	0	992.2	NA	0.0000		9999	5280	0	0	0
2017/06/11 21:01:00	BASE	2.50	73	3.19	97	-4.2	73	-8.3	0	0	992.2	NA	0.0000		9999	5250	0	0	0
2017/06/11 21:02:00	BASE	2.22	76	3.19	97	-4.2	73	-8.4	0	0	992.2	NA	0.0000		9999	5180	0	0	0
2017/06/11 21:03:00	BASE	2.13	81	3.04	91	-4.2	72	-8.4	0	0	992.3	NA	0.0000		9999	5250	0	0	0
2017/06/11 21:04:00	BASE	2.24	86	2.83	95	-4.1	72	-8.4	0	0	992.3	NA	0.0000		9999	5380	0	0	0
2017/06/11 21:05:00	BASE	2.18	86	2.83	95	-4.1	72	-8.4	0	0	992.3	NA	0.0000		9999	5350	0	0	0
2017/06/11 21:06:00	BASE	2.06	85	2.83	95	-4.1	72	-8.4	0	0	992.3	NA	0.0000		9999	5350	0	0	0
2017/06/11 21:07:00	BASE	2.19	79	2.83	95	-4.0	71	-8.5	0	0	992.3	NA	0.0000		9999	5280	0	0	0
2017/06/11 21:08:00	BASE	2.31	68	2.83	95	-4.0	71	-8.5	0	0	992.3	NA	0.0000		9999	5380	0	0	0
2017/06/11 21:09:00	BASE	2.16	62	2.83	95	-4.0	71	-8.5	0	0	992.3	NA	0.0000		9999	5480	0	0	0
2017/06/11 21:10:00	BASE	1.85	63	2.83	95	-4.0	70	-8.6	0	0	992.3	NA	0.0000		9999	5410	0	0	0
2017/06/11 21:11:00	BASE	1.41	62	2.83	95	-4.0	70	-8.6	0	0	992.3	NA	0.0000		9999	5450	0	0	0
2017/06/11 21:12:00	BASE	1.22	59	2.83	95	-4.0	70	-8.6	0	0	992.3	NA	0.0000		9999	5480	0	0	0
2017/06/11 21:13:00	BASE	1.28	65	2.83	95	-3.9	70	-8.6	0	0	992.3	NA	0.0000		9999	5450	0	0	0
2017/06/11 21:14:00	BASE	0.97	69	2.52	61	-3.9	70	-8.6	0	0	992.3	NA	0.0000		9999	5450	0	0	0
2017/06/11 21:15:00	BASE	1.06	58	2.52	61	-3.8	70	-8.6	0	0	992.4	NA	0.0000		9999	5450	0	0	0
2017/06/11 21:16:00	BASE	1.65	53	2.52	61	-3.8	69	-8.6	0	0	992.4	NA	0.0000		9999	5450	0	0	0
2017/06/11 21:17:00	BASE	1.82	52	2.47	63	-3.8	69	-8.6	0	0	992.3	NA	0.0000		9999	5380	0	0	0
2017/06/11 21:18:00	BASE	1.80	47	2.16	59	-3.8	69	-8.6	0	0	992.3	NA	0.0000		9999	5350	0	0	0
2017/06/11 21:19:00	BASE	1.75	42	2.11	51	-3.9	70	-8.6	0	0	992.3	NA	0.0000		9999	5380	0	0	0
2017/06/11 21:20:00	BASE	1.73	37	2.11	51	-3.9	70	-8.6	0	0	992.3	NA	0.0000		9999	5450	0	0	0
2017/06/11 21:21:00	BASE	1.86	39	2.11	51	-3.9	70	-8.6	0	0	992.3	NA	0.0000		9999	5410	0	0	0
2017/06/11 21:22:00	BASE	2.09	44	2.47	52	-3.9	70	-8.6	0	0	992.3	NA	0.0000		9999	5380	0	0	0
2017/06/11 21:23:00	BASE	2.21	46	2.47	52	-4.0	70	-8.6	0	0	992.3	NA	0.0000		9999	5410	0	0	0
2017/06/11 21:24:00	BASE	1.98	44	2.47	52	-4.0	71	-8.5	0	0	992.3	NA	0.0000		9999	5350	0	0	0
2017/06/11 21:25:00	BASE	1.77	48	2.47	52	-4.0	71	-8.6	0	0	992.4	NA	0.0000		9999	5410	0	0	0
2017/06/11 21:26:00	BASE	1.69	55	2.47	52	-4.0	71	-8.6	0	0	992.3	NA	0.0000		9999	5280	0	0	0
2017/06/11 21:27:00	BASE	1.63	56	2.47	52	-4.0	70	-8.6	0	0	992.3	NA	0.0000		9999	5320	0	0	0
2017/06/11 21:28:00	BASE	1.48	56	2.47	52	-3.9	70	-8.6	0	0	992.3	NA	0.0000		9999	5320	0	0	0
2017/06/11 21:29:00	BASE	1.41	62	2.47	52	-3.9	69	-8.7	0	0	992.3	NA	0.0000		9999	5410	0	0	0
2017/06/11 21:30:00	BASE	1.39	72	2.47	52	-3.9	69	-8.8	0	0	992.3	NA	0.0000		9999	5410	0	0	0
2017/06/11 21:31:00	BASE	1.36	84	2.47	52	-3.9	69	-8.9	0	0	992.3	NA	0.0000		9999	5410	0	0	0
2017/06/11 21:32:00	BASE	1.46	90	2.31	50	-4.0	69	-8.9	0	0	992.3	NA	0.0000		9999	5180	0	0	0
2017/06/11 21:33:00	BASE	1.54	91	2.06	55	-4.0	68	-9.0	0	0	992.3	NA	0.0000		9999	5180	0	0	0
2017/06/11 21:34:00	BASE	1.63	98	2.06	55	-4.1	69	-9.0	0	0	992.3	NA	0.0000		9999	5250	0	0	0
2017/06/11 21:35:00	BASE	1.78	101	2.62	95	-4.1	69	-9.0	0	0	992.3	NA	0.0000		9999	5150	0	0	0
2017/06/11 21:36:00	BASE	2.12	95	2.78	93	-4.2	69	-8.9	0	0	992.3	NA	0.0000		9999	5280	0	0	0
2017/06/11 21:37:00	BASE	2.12	85	2.78	93	-4.2	70	-8.9	0	0	992.3	NA	0.0000		9999	5320	0	0	0
2017/06/11 21:38:00	BASE	1.98	75	2.78	93	-4.3	70	-8.9	0	0	992.3	NA	0.0000		9999	5320	0	0	0
2017/06/11 21:39:00	BASE	2.09	75	2.78	93	-4.3	71	-8.8	0	0	992.3	NA	0.0000		9999	5380	0	0	0
2017/06/11 21:40:00	BASE	1.89	77	2.78	93	-4.2	71	-8.8	0	0	992.3	NA	0.0000		9999	5380	0	0	0
2017/06/11 21:41:00	BASE	1.69	75	2.78	93	-4.2	70	-8.8	0	0	992.3	NA	0.0000		9999	5450	0	0	0
2017/06/11 21:42:00	BASE	1.89	71	2.78	93	-4.1	70	-8.8	0	0	992.3	NA	0.0000		9999	5320	0	0	0
2017/06/11 21:43:00	BASE	2.11	74	2.78	93	-4.1	69	-8.9	0	0	992.3	NA	0.0000		9999	5380	0	0	0
2017/06/11 21:44:00	BASE	2.15	78	2.78	93	-4.1	69	-9.0	0	0	992.4	NA	0.0000		9999	5510	0	0	0
2017/06/11 21:45:00	BASE	2.21	75	2.78	93	-4.1	69	-9.0	0	0	992.3	NA	0.0000		9999	5480	0	0	0
2017/06/11 21:46:00	BASE	2.30	72	2.57	77	-4.1	69	-8.9	0	0	992.3	NA	0.0000		9999	5410	0	0	0
2017/06/11 21:47:00	BASE	2.33	72	2.57	66	-4.1	69	-8.9	0	0	992.3	NA	0.0000		9999	5380	0	0	0
2017/06/11 21:48:00	BASE	2.33	70	2.57	66	-4.2	69	-8.9	0	0	992.3	NA	0.0000		9999	5250	0	0	0
2017/06/11 21:49:00	BASE	2.18	65	2.57	66	-4.1	70	-8.9	0	0	992.3	NA	0.0000		9999	5450	0	0	0
2017/06/11 21:50:00	BASE	2.07	60	2.57	66	-4.1	69	-8.9	0	0	992.4	NA	0.0000		9999	5510	0	0	0
2017/06/11 21:51:00	BASE	2.10	59	2.57	66	-4.2	69	-8.9	0	0	992.4	NA	0.0000		9999	5540	0	0	0
2017/06/11 21:52:00	BASE	2.02	59	2.57	66	-4.2	70	-8.9	0	0	992.4	NA	0.0000		9999	5540	0	0	0
2017/06/11 21:53:00	BASE	1.88	59	2.57	66	-4.2	70	-8.9	0	0	992.4	NA	0.0000		9999	5580	0	0	0
2017/06/11 21:54:00	BASE	1.83	59	2.57	66	-4.2	70	-8.9	0	0	992.4	NA	0.0000		9999	5580	0	0	0
2017/06/11 21:55:00	BASE	1.75	54	2.57	66	-4.1	70	-8.8	0	0	992.4	NA	0.0000		9999	5510	0	0	0
2017/06/11 21:56:00	BASE	1.62	41	2.57	66	-4.0	69	-8.9	0	0	992.4	NA	0.0000		9999	5350	0	0	0
2017/06/11 21:57:00	BASE	1.77	43	2.62	71	-3.9	68	-8.9	0	0	992.4	NA	0.0000		9999	5410	0	0	0
2017/06/11 21:58:00	BASE	2.01	57	2.62	71	-3.9	68	-9.0	0	0	992.4	NA	0.0000		9999	5540	0	0	0
2017/06/11 21:59:00	BASE	1.92	62	2.62	71	-4.0	68	-9.1	0	0	992.4	NA	0.0000		9999	5480	0	0	0
2017/06/11 22:00:00	BASE	1.95	69	2.62	71	-4.1	68	-9.1	0	0	992.4	NA	0.0000		9999	5540	0	0	0
2017/06/11 22:01:00	BASE	1.81	66	2.62	71	-4.2	69	-9.1	0	0	992.4	NA	0.0000		9999	5610	0	0	0
2017/06/11 22:02:00	BASE	1.02	50	2.62	71	-4.3	69	-9.0	0	0	992.4	NA	0.0000		9999	5610	0	0	0
2017/06/11 22:03:00	BASE	0.48	54	2.62	71	-4.3	70	-8.9	0	0	992.4	NA	0.0000		9999	5450	0	0	0
2017/06/11 22:04:40	BASE	M	M	2.62	71	-4.2	70	-8.9	0	0	M	NA	0.0000		M	5450	0	0	0
2017/06/11 22:05:00	BASE	M	M	2.62	71	-4.2	70	-8.9	0	0	M	NA	0.0000		M	5610	0	0	0
2017/06/11 22:06:00	BASE	M	M	2.62	71	-4.2	70	-8.9	0	0	992.4	NA	0.0000		9999	5540	0	0	0
2017/06/11 22:07:00	BASE	0.24	71	2.47	65	-4.2	70	-8.9	0	0	992.4	NA	0.0000		9999	5540	0	0	0
2017/06/11 22:08:00	BASE	0.09	68	2.47	65	-4.2	70	-8.9	0	0	992.5	NA	0.0000		9999	5380	0	0	0
2017/06/11 22:09:00	BASE	0.00	59	2.47	65	-4.0	69	-8.8	0	0	992.6	NA	0.0000		9999	5540	0	0	0
2017/06/11 22:10:00	BASE	0.00	25	2.11	67	-4.0	69	-8.8	0	0	992.6	NA	0.0000		9999	5510	0	0	0
2017/06/11 22:11:00	BASE	0.09	7	1.80	88	-3.9	69	-8.8	0	0	992.6	NA	0.0000		9999	5510	0	0	0
2017/06/11 22:12:00	BASE	0.28	20	1.80	88	-3.9	69	-8.9	0	0	992.6	NA	0.0000		9999	5510	0	0	0
2017/06/11 22:13:00	BASE	0.80	27	2.21	11	-3.9	69	-8.9	0	0	992.6	NA	0.0000		9999	5540	0	0	0
2017/06/11 22:14:00	BASE	1.15	41	2.21	11	-3.9	68	-8.9	0	0	992.6	NA	0.0000		9999	5510	0	0	0
2017/06/11 22:15:00	BASE	1.36	55	2.21	11	-3.9	68	-8.9	0	0	992.6	NA	0.0000		9999	5380	0	0	0
2017/06/11 22:16:00	BASE	1.53	50	2.21	11	-3.9	68	-9.0	0	0	992.6	NA	0.0000		9999	5410	0	0	0
2017/06/11 22:17:00	BASE	1.56	42	2.21	11	-3.9	68	-9.0	0	0	992.6	NA	0.0000		9999	5480	0	0	0
2017/06/11 22:18:00	BASE	1.53	42	2.21	11	-3.9	68	-9.0	0	0	992.6	NA	0.0000		9999	5640	0	0	0
2017/06/11 22:19:00	BASE	1.90	38	2.83	32	-4.0	68	-9.0	0	0	992.6	NA	0.0000		9999	5540	0	0	0
2017/06/11 22:20:00	BASE	2.39	34	2.83	32	-3.9	68	-9.0	0	0	992.6	NA	0.0000		9999	5540	0	0	0
2017/06/11 22:21:00	BASE	2.09	36	2.83	32	-4.0	68	-9.0	0	0	992.6	NA	0.0000		9999	5610	0	0	0
2017/06/11 22:22:00	BASE	1.73	41	2.83	32	-4.0	68	-8.9	0	0	992.6	NA	0.0000		9999	5680	0	0	0
2017/06/11 22:23:00	BASE	1.11	45	2.83	32	-4.0	69	-8.9	0	0	992.6	NA	0.0000		9999	5580	0	0	0
2017/06/11 22:24:00	BASE	0.36	54	2.83	32	-4.0	69	-8.9	0	0	992.6	NA	0.0000		9999	5640	0	0	0
2017/06/11 22:25:00	BASE	0.14	56	2.83	32	-4.0	69	-8.9	0	0	992.6	NA	0.0000		9999	5610	0	0	0
2017/06/11 22:26:00	BASE	0.09	48	2.83	32	-3.9	68	-8.9	0	0	992.5	NA	0.0000		9999	5580	0	0	0
2017/06/11 22:27:00	BASE	0.00	57	2.83	32	-3.9	68	-8.9	0	0	992.6	NA	0.0000		9999	5610	0	0	0
2017/06/11 22:28:00	BASE	0.00	68	2.83	32	-3.9	68	-9.0	0	0	992.6	NA	0.0000		9999	5480	0	0	0
2017/06/11 22:29:00	BASE	0.10	73	2.62	28	-3.8	67	-9.0	0	0	992.6	NA	0.0000		9999	5480	0	0	0
2017/06/11 22:30:00	BASE	0.40	77	2.21	32	-3.8	67	-9.0	0	0	992.6	NA	0.0000		9999	5580	0	0	0
2017/06/11 22:31:00	BASE	0.35	74	2.01	39	-3.7	66	-9.1	0	0	992.6	NA	0.0000		9999	5580	0	0	0
2017/06/11 22:32:00	BASE	0.14	69	1.39	22	-3.7	66	-9.2	0	0	992.6	NA	0.0000		9999	5480	0	0	0
2017/06/11 22:33:00	BASE	0.27	63	1.34	77	-3.6	65	-9.3	0	0	992.6	NA	0.0000		9999	5480	0	0	0
2017/06/11 22:34:00	BASE	0.90	50	1.65	39	-3.6	64	-9.4	0	0	992.6	NA	0.0000		9999	5580	0	0	0
2017/06/11 22:35:00	BASE	1.43	40	1.65	39	-3.6	64	-9.5	0	0	992.7	NA	0.0000		9999	5540	0	0	0
2017/06/11 22:36:00	BASE	1.22	36	1.65	39	-3.7	64	-9.6	0	0	992.7	NA	0.0000		9999	5480	0	0	0
2017/06/11 22:37:00	BASE	1.43	35	2.42	30	-3.8	64	-9.6	0	0	992.7	NA	0.0000		9999	5450	0	0	0
2017/06/11 22:38:00	BASE	2.03	40	2.47	41	-3.8	65	-9.5	0	0	992.7	NA	0.0000		9999	5410	0	0	0
2017/06/11 22:39:00	BASE	2.21	50	2.47	41	-3.9	65	-9.5	0	0	992.7	NA	0.0000		9999	5410	0	0	0
2017/06/11 22:40:00	BASE	2.11	52	2.47	41	-4.0	66	-9.5	0	0	992.6	NA	0.0000		9999	5380	0	0	0
2017/06/11 22:41:00	BASE	1.88	47	2.47	41	-4.0	66	-9.5	0	0	992.7	NA	0.0000		9999	5280	0	0	0
2017/06/11 22:42:00	BASE	1.85	44	2.47	41	-4.1	66	-9.4	0	0	992.7	NA	0.0000		9999	5250	0	0	0
2017/06/11 22:43:00	BASE	1.76	44	2.47	41	-4.1	67	-9.4	0	0	992.7	NA	0.0000		9999	5280	0	0	0
2017/06/11 22:44:00	BASE	1.53	43	2.47	41	-4.1	67	-9.4	0	0	992.7	NA	0.0000		9999	5450	0	0	0
2017/06/11 22:45:00	BASE	1.41	38	2.47	41	-4.1	67	-9.4	0	0	992.7	NA	0.0000		9999	5380	0	0	0
2017/06/11 22:46:00	BASE	0.94	30	2.47	41	-4.0	66	-9.4	0	0	992.7	NA	0.0000		9999	5250	0	0	0
2017/06/11 22:47:00	BASE	0.88	25	2.47	41	-3.9	66	-9.4	0	0	992.7	NA	0.0000		9999	5320	0	0	0
2017/06/11 22:48:00	BASE	1.16	26	2.31	48	-3.9	65	-9.5	0	0	992.7	NA	0.0000		9999	5380	0	0	0
2017/06/11 22:49:00	BASE	0.96	28	2.26	47	-3.9	65	-9.5	0	0	992.6	NA	0.0000		9999	5410	0	0	0
2017/06/11 22:50:00	BASE	0.40	29	2.16	53	-3.9	65	-9.5	0	0	992.6	NA	0.0000		9999	5410	0	0	0
2017/06/11 22:51:00	BASE	0.00	29	2.16	53	-3.9	65	-9.5	0	0	992.6	NA	0.0000		9999	5280	0	0	0
2017/06/11 22:52:00	BASE	0.05	47	1.75	41	-3.9	65	-9.5	0	0	992.7	NA	0.0000		9999	5280	0	0	0
2017/06/11 22:53:00	BASE	0.05	66	1.75	41	-3.9	65	-9.5	0	0	992.7	NA	0.0000		9999	5410	0	0	0
2017/06/11 22:54:00	BASE	0.00	68	1.39	32	-3.9	65	-9.5	0	0	992.7	NA	0.0000		9999	5450	0	0	0
2017/06/11 22:55:00	BASE	0.00	59	1.34	23	-3.9	65	-9.4	0	0	992.7	NA	0.0000		9999	5540	0	0	0
2017/06/11 22:56:00	BASE	0.00	35	1.34	23	-3.9	65	-9.5	0	0	992.7	NA	0.0000		9999	5510	0	0	0
2017/06/11 22:57:00	BASE	0.00	20	1.29	29	-3.8	65	-9.5	0	0	992.7	NA	0.0000		9999	5580	0	0	0
2017/06/11 22:58:01	BASE	0.00	25	1.29	29	-3.8	65	-9.5	0	0	992.7	NA	0.0000		9999	5580	0	0	0
2017/06/11 22:59:01	BASE	0.00	32	1.08	68	-3.7	64	-9.5	0	0	992.7	NA	0.0000		9999	5610	0	0	0
2017/06/11 23:00:01	BASE	0.00	32	1.08	68	-3.7	64	-9.6	0	0	992.7	NA	0.0000		9999	5580	0	0	0
2017/06/11 23:01:01	BASE	0.39	41	1.34	55	-3.7	64	-9.6	0	0	992.7	NA	0.0000		9999	5610	0	0	0
2017/06/11 23:02:01	BASE	1.16	52	1.65	57	-3.8	64	-9.6	0	0	992.7	NA	0.0000		9999	5510	0	0	0
2017/06/11 23:03:01	BASE	1.36	50	1.65	57	-3.8	64	-9.5	0	0	992.7	NA	0.0000		9999	5380	0	0	0
2017/06/11 23:04:01	BASE	1.10	36	1.65	57	-3.8	64	-9.5	0	0	992.7	NA	0.0000		9999	5480	0	0	0
2017/06/11 23:05:01	BASE	0.51	26	1.65	57	-3.8	65	-9.5	0	0	992.7	NA	0.0000		9999	5480	0	0	0
2017/06/11 23:06:01	BASE	0.00	24	1.65	57	-3.8	65	-9.4	0	0	992.7	NA	0.0000		9999	5480	0	0	0
2017/06/11 23:07:01	BASE	0.20	13	1.65	57	-3.7	65	-9.4	0	0	992.7	NA	0.0000		9999	5480	0	0	0
2017/06/11 23:08:01	BASE	0.20	360	1.65	57	-3.7	65	-9.4	0	0	992.8	NA	0.0000		9999	5540	0	0	0
2017/06/11 23:09:01	BASE	0.00	356	1.65	57	-3.8	65	-9.3	0	0	992.8	NA	0.0000		9999	5540	0	0	0
2017/06/11 23:10:01	BASE	0.00	354	1.65	57	-3.8	65	-9.3	0	0	992.8	NA	0.0000		9999	5540	0	0	0
2017/06/11 23:11:01	BASE	0.00	354	1.65	57	-3.8	66	-9.3	0	0	992.8	NA	0.0000		9999	5540	0	0	0
2017/06/11 23:12:01	BASE	0.00	354	1.44	35	-3.8	66	-9.3	0	0	992.8	NA	0.0000		9999	5510	0	0	0
2017/06/11 23:13:01	BASE	0.00	353	1.44	35	-3.8	66	-9.3	0	0	992.8	NA	0.0000		9999	5510	0	0	0
2017/06/11 23:14:01	BASE	0.00	11	1.29	354	-3.8	65	-9.4	0	0	992.8	NA	0.0000		9999	5510	0	0	0
2017/06/11 23:15:01	BASE	0.00	27	1.29	354	-3.8	65	-9.4	0	0	992.8	NA	0.0000		9999	5450	0	0	0
2017/06/11 23:16:01	BASE	0.00	21	1.29	354	-3.8	65	-9.5	0	0	992.8	NA	0.0000		9999	5510	0	0	0
2017/06/11 23:17:01	BASE	0.00	20	M	M	-3.8	64	-9.5	0	0	992.8	NA	0.0000		9999	5410	0	0	0
2017/06/11 23:18:01	BASE	0.04	17	1.03	19	-3.7	64	-9.5	0	0	992.9	NA	0.0000		9999	5510	0	0	0
2017/06/11 23:19:01	BASE	0.20	24	1.29	56	-3.7	64	-9.6	0	0	992.9	NA	0.0000		9999	5480	0	0	0
2017/06/11 23:20:01	BASE	0.88	38	1.80	43	-3.7	64	-9.6	0	0	992.8	NA	0.0000		9999	5410	0	0	0
2017/06/11 23:21:01	BASE	1.52	42	1.80	43	-3.8	64	-9.6	0	0	992.8	NA	0.0000		9999	5450	0	0	0
2017/06/11 23:22:01	BASE	1.66	47	2.16	56	-3.8	64	-9.6	0	0	992.8	NA	0.0000		9999	5510	0	0	0
2017/06/11 23:23:01	BASE	1.75	50	2.16	56	-3.9	64	-9.6	0	0	992.8	NA	0.0000		9999	5410	0	0	0
2017/06/11 23:24:01	BASE	1.62	52	2.16	56	-3.9	65	-9.6	0	0	992.8	NA	0.0000		9999	5380	0	0	0
2017/06/11 23:25:01	BASE	1.52	52	2.16	56	-4.0	65	-9.7	0	0	992.8	NA	0.0000		9999	5350	0	0	0
2017/06/11 23:26:01	BASE	1.55	52	2.16	56	-4.0	64	-9.7	0	0	992.8	NA	0.0000		9999	5380	0	0	0
2017/06/11 23:27:01	BASE	1.67	52	2.21	54	-4.0	64	-9.8	0	0	992.9	NA	0.0000		9999	5320	0	0	0
2017/06/11 23:28:01	BASE	1.30	44	2.21	54	-4.0	64	-9.9	0	0	992.9	NA	0.0000		9999	5410	0	0	0
2017/06/11 23:29:01	BASE	0.44	44	2.21	54	-4.0	63	-10.0	0	0	992.9	NA	0.0000		9999	5280	0	0	0
2017/06/11 23:30:01	BASE	0.04	65	2.21	54	-4.0	63	-10.1	0	0	992.8	NA	0.0000		9999	5320	0	0	0
2017/06/11 23:31:01	BASE	0.00	84	2.21	54	-4.0	62	-10.1	0	0	992.8	NA	0.0000		9999	5510	0	0	0
2017/06/11 23:32:01	BASE	0.13	93	2.21	54	-4.0	62	-10.2	0	0	992.8	NA	0.0000		9999	5510	0	0	0
2017/06/11 23:33:01	BASE	0.18	100	2.21	54	-4.1	63	-10.2	0	0	992.8	NA	0.0000		9999	5410	0	0	0
2017/06/11 23:34:01	BASE	0.13	105	2.21	54	-4.1	63	-10.2	0	0	992.8	NA	0.0000		9999	5380	0	0	0
2017/06/11 23:35:01	BASE	0.40	105	2.21	54	-4.2	63	-10.2	0	0	992.8	NA	0.0000		9999	5480	0	0	0
2017/06/11 23:36:01	BASE	0.62	105	2.21	54	-4.3	64	-10.1	0	0	992.8	NA	0.0000		9999	5380	0	0	0
2017/06/11 23:37:01	BASE	0.49	102	1.39	36	-4.3	64	-10.1	0	0	992.8	NA	0.0000		9999	5540	0	0	0
2017/06/11 23:38:01	BASE	0.68	97	1.23	94	-4.4	65	-10.1	0	0	992.8	NA	0.0000		9999	5540	0	0	0
2017/06/11 23:39:01	BASE	1.07	95	1.90	90	-4.4	65	-10.0	0	0	992.8	NA	0.0000		9999	5540	0	0	0
2017/06/11 23:40:01	BASE	1.32	95	1.90	90	-4.4	65	-10.0	0	0	992.8	NA	0.0000		9999	5540	0	0	0
2017/06/11 23:41:01	BASE	1.44	96	1.90	90	-4.3	65	-10.0	0	0	992.8	NA	0.0000		9999	5480	0	0	0
2017/06/11 23:42:01	BASE	1.13	98	1.90	90	-4.2	64	-10.0	0	0	992.8	NA	0.0000		9999	5510	0	0	0
2017/06/11 23:43:01	BASE	0.44	104	1.90	90	-4.1	64	-10.0	0	0	992.8	NA	0.0000		9999	5450	0	0	0
2017/06/11 23:44:01	BASE	0.00	107	1.90	90	-4.0	63	-10.1	0	0	992.8	NA	0.0000		9999	5280	0	0	0
2017/06/11 23:45:01	BASE	0.00	107	1.90	90	-3.9	62	-10.2	0	0	992.8	NA	0.0000		9999	5480	0	0	0
2017/06/11 23:46:01	BASE	0.00	107	1.90	90	-3.8	61	-10.3	0	0	992.9	NA	0.0000		9999	5580	0	0	0
2017/06/11 23:47:01	BASE	0.00	107	1.90	90	-3.7	60	-10.4	0	0	992.9	NA	0.0000		9999	5580	0	0	0
2017/06/11 23:48:01	BASE	0.00	102	1.90	90	-3.7	59	-10.5	0	0	992.9	NA	0.0000		9999	5540	0	0	0
2017/06/11 23:49:00	BASE	0.40	86	1.70	93	-3.7	59	-10.6	0	0	992.9	NA	0.0000		9999	5540	0	0	0
2017/06/11 23:50:00	BASE	0.63	72	1.70	93	-3.7	59	-10.5	0	0	992.9	NA	0.0000		9999	5510	0	0	0
2017/06/11 23:51:00	BASE	0.83	58	1.59	45	-3.7	60	-10.5	0	0	992.9	NA	0.0000		9999	5540	0	0	0
2017/06/11 23:52:00	BASE	1.31	47	1.59	45	-3.8	61	-10.3	0	0	992.9	NA	0.0000		9999	5510	0	0	0
2017/06/11 23:53:00	BASE	1.52	44	1.75	43	-3.9	62	-10.1	0	0	992.9	NA	0.0000		9999	5350	0	0	0
2017/06/11 23:54:00	BASE	1.64	42	1.85	47	-4.0	63	-10.0	0	0	992.9	NA	0.0000		9999	5320	0	0	0
2017/06/11 23:55:00	BASE	1.97	46	2.78	59	-4.1	64	-9.8	0	0	992.9	NA	0.0000		9999	5510	0	0	0
2017/06/11 23:56:00	BASE	2.28	51	2.78	59	-4.1	65	-9.8	0	0	992.9	NA	0.0000		9999	5510	0	0	0
2017/06/11 23:57:00	BASE	2.28	50	2.78	59	-4.2	65	-9.8	0	0	992.9	NA	0.0000		9999	5380	0	0	0
2017/06/11 23:58:00	BASE	2.27	50	2.78	59	-4.2	65	-9.9	0	0	992.9	NA	0.0000		9999	5380	0	0	0
2017/06/11 23:59:00	BASE	2.30	52	2.78	59	-4.2	64	-9.9	0	0	992.9	NA	0.0000		9999	5450	0	0	0